[[{"header":{"parameterUnit":"m.s-1","parameterCategory":1,"la1":30.6,"la2":29.2853,"lo1":-89.7004,"lo2":-87.6739,"dy":0.0162,"dx":0.0183,"nx":112,"ny":82,"refTime":"2024-05-17T12:00:00:Z","depth":0,"parameterNumber":2,"parameterNumberName":"U-component_of_WINDS"},"data":[0.0,0.0,0.0,0.0,0.0,0.0,0.0,0.0,0.0,0.0,0.0,0.0,0.0,0.0,0.0,0.0,0.0,0.0,0.0,0.0,0.0,0.0,0.0,0.0,0.0,0.0,0.0,0.0,0.0,0.0,0.0,0.0,0.0,0.0,0.0,0.0,0.0,0.0,0.0,0.0,0.0,0.0,0.0,0.0,0.0,0.0,0.0,0.0,0.0,0.0,0.0,0.0,0.0,0.0,0.0,0.0,0.0,0.0,0.0,0.0,0.0,0.0,0.0,0.0,0.0,0.0,0.0,0.0,0.0,0.0,0.0,0.0,0.0,0.0,0.0,0.0,0.0,0.0,0.0,0.0,0.0,0.0,0.0,0.0,0.0,0.0,0.0,0.0,0.0,0.0,0.0,-1.5085,-1.7789,-1.9096,-1.8099,-1.7871,-1.6443,-1.3292,0.0,0.0,0.0,0.0,0.0,0.0,0.0,0.0,0.0,0.0,0.0,0.0,0.0,0.0,0.0,0.0,0.0,0.0,0.0,0.0,0.0,0.0,0.0,0.0,0.0,0.0,0.0,0.0,0.0,0.0,0.0,0.0,0.0,0.0,0.0,0.0,0.0,0.0,0.0,0.0,0.0,0.0,0.0,0.0,0.0,0.0,0.0,0.0,0.0,0.0,0.0,0.0,0.0,0.0,0.0,0.0,0.0,0.0,0.0,0.0,0.0,0.0,0.0,0.0,0.0,0.0,0.0,0.0,0.0,0.0,0.0,0.0,0.0,0.0,0.0,0.0,0.0,0.0,0.0,0.0,0.0,0.0,0.0,0.0,0.0,0.0,0.0,0.0,0.0,0.0,0.0,0.0,0.0,0.0,0.0,0.0,0.0,0.0,0.0,0.0,0.0,0.0,0.0,0.0,-1.3702,-1.6626,-1.8415,-1.9055,-1.8162,-1.7359,-1.5805,-1.3256,0.0,0.0,0.0,0.0,0.0,0.0,0.0,0.0,0.0,0.0,0.0,0.0,0.0,0.0,0.0,0.0,0.0,0.0,0.0,0.0,0.0,0.0,0.0,0.0,0.0,0.0,0.0,0.0,0.0,0.0,0.0,0.0,0.0,0.0,0.0,0.0,0.0,0.0,0.0,0.0,0.0,0.0,0.0,0.0,0.0,0.0,0.0,0.0,0.0,0.0,0.0,0.0,0.0,0.0,0.0,0.0,0.0,0.0,0.0,0.0,0.0,0.0,0.0,0.0,0.0,0.0,0.0,0.0,0.0,0.0,0.0,0.0,0.0,0.0,0.0,0.0,0.0,0.0,0.0,0.0,0.0,0.0,0.0,0.0,0.0,0.0,0.0,0.0,0.0,0.0,0.0,0.0,0.0,0.0,0.0,0.0,0.0,0.0,0.0,0.0,0.0,0.0,0.0,-1.3427,-1.4806,-1.7053,-1.8621,-1.9142,-1.8183,-1.7238,-1.5678,-1.3256,-1.2694,0.0,0.0,0.0,0.0,0.0,0.0,0.0,0.0,0.0,0.0,0.0,0.0,0.0,0.0,0.0,0.0,0.0,0.0,0.0,0.0,0.0,0.0,0.0,0.0,0.0,0.0,0.0,0.0,0.0,0.0,0.0,0.0,0.0,0.0,0.0,0.0,0.0,0.0,0.0,0.0,0.0,0.0,0.0,0.0,0.0,0.0,0.0,0.0,0.0,0.0,0.0,0.0,0.0,0.0,0.0,0.0,0.0,0.0,0.0,0.0,0.0,0.0,0.0,0.0,0.0,0.0,0.0,0.0,0.0,0.0,0.0,0.0,0.0,0.0,0.0,0.0,0.0,0.0,0.0,0.0,0.0,0.0,0.0,0.0,0.0,0.0,0.0,0.0,0.0,0.0,0.0,0.0,0.0,0.0,0.0,0.0,0.0,0.0,0.0,0.0,0.0,0.0,-1.4767,-1.6092,-1.7173,-1.869,-1.9127,-1.7918,-1.6986,-1.5428,-1.2966,-1.2061,0.0,0.0,0.0,0.0,0.0,0.0,0.0,0.0,0.0,0.0,0.0,0.0,0.0,0.0,0.0,0.0,0.0,0.0,0.0,0.0,0.0,0.0,0.0,0.0,0.0,0.0,0.0,0.0,0.0,0.0,0.0,0.0,0.0,0.0,0.0,0.0,0.0,0.0,0.0,0.0,0.0,0.0,0.0,0.0,0.0,0.0,0.0,0.0,0.0,0.0,0.0,0.0,0.0,0.0,0.0,0.0,0.0,0.0,0.0,0.0,0.0,0.0,0.0,0.0,0.0,0.0,0.0,0.0,0.0,0.0,0.0,0.0,0.0,0.0,0.0,0.0,0.0,0.0,0.0,0.0,0.0,0.0,0.0,0.0,0.0,0.0,0.0,0.0,0.0,0.0,0.0,0.0,0.0,0.0,0.0,0.0,0.0,0.0,0.0,0.0,0.0,0.0,-1.54,-1.7317,-1.7305,-1.875,-1.8964,-1.7146,-1.6244,-1.469,-1.2144,-1.1233,0.0,0.0,0.0,0.0,0.0,0.0,0.0,0.0,0.0,0.0,0.0,0.0,0.0,0.0,0.0,0.0,0.0,0.0,0.0,0.0,0.0,0.0,0.0,0.0,0.0,0.0,0.0,0.0,0.0,0.0,0.0,0.0,0.0,0.0,0.0,0.0,0.0,0.0,0.0,0.0,0.0,0.0,0.0,0.0,0.0,0.0,0.0,0.0,0.0,0.0,0.0,0.0,0.0,0.0,0.0,0.0,0.0,0.0,0.0,0.0,0.0,0.0,0.0,0.0,0.0,0.0,0.0,0.0,0.0,0.0,0.0,0.0,0.0,0.0,0.0,0.0,0.0,0.0,0.0,0.0,0.0,0.0,0.0,0.0,0.0,0.0,0.0,0.0,0.0,0.0,0.0,0.0,0.0,0.0,0.0,0.0,0.0,0.0,0.0,0.0,0.0,0.0,-1.4985,-1.6885,0.0,-1.8791,-1.9014,-1.7291,-1.6713,-1.5184,-1.2207,0.0,0.0,0.0,0.0,0.0,0.0,0.0,0.0,0.0,0.0,0.0,0.0,0.0,0.0,0.0,0.0,0.0,0.0,0.0,0.0,0.0,0.0,0.0,0.0,0.0,0.0,0.0,0.0,0.0,0.0,0.0,0.0,0.0,0.0,0.0,0.0,0.0,0.0,0.0,0.0,0.0,0.0,0.0,0.0,0.0,0.0,0.0,0.0,0.0,0.0,0.0,0.0,0.0,0.0,0.0,0.0,0.0,0.0,0.0,0.0,0.0,0.0,0.0,0.0,0.0,0.0,0.0,0.0,0.0,0.0,0.0,0.0,0.0,0.0,0.0,0.0,0.0,0.0,0.0,0.0,0.0,0.0,0.0,0.0,0.0,0.0,0.0,0.0,0.0,0.0,0.0,0.0,0.0,0.0,0.0,0.0,0.0,0.0,0.0,0.0,0.0,0.0,-1.2517,-1.4943,-1.6847,0.0,-1.889,-1.9116,-1.7439,-1.6853,-1.5298,-1.2294,0.0,0.0,0.0,0.0,0.0,0.0,0.0,0.0,0.0,0.0,0.0,0.0,0.0,0.0,0.0,0.0,0.0,0.0,0.0,0.0,0.0,0.0,0.0,0.0,0.0,0.0,0.0,0.0,0.0,0.0,0.0,0.0,0.0,0.0,0.0,0.0,0.0,0.0,0.0,0.0,0.0,0.0,0.0,0.0,0.0,0.0,0.0,0.0,0.0,0.0,0.0,0.0,0.0,0.0,0.0,0.0,0.0,0.0,0.0,0.0,0.0,0.0,0.0,0.0,0.0,0.0,0.0,0.0,0.0,0.0,0.0,0.0,0.0,0.0,0.0,0.0,0.0,0.0,0.0,0.0,0.0,0.0,0.0,0.0,0.0,0.0,0.0,0.0,0.0,0.0,0.0,0.0,0.0,0.0,0.0,0.0,0.0,0.0,0.0,0.0,0.0,0.0,-1.2601,-1.5472,-1.7501,-1.7501,-1.9003,-1.9274,-1.745,-1.6456,-1.4831,0.0,0.0,0.0,0.0,0.0,0.0,0.0,0.0,0.0,0.0,0.0,0.0,0.0,0.0,0.0,0.0,0.0,0.0,0.0,0.0,0.0,0.0,0.0,0.0,0.0,0.0,0.0,0.0,0.0,0.0,0.0,0.0,0.0,0.0,0.0,0.0,0.0,0.0,0.0,0.0,0.0,0.0,0.0,0.0,0.0,0.0,0.0,0.0,0.0,0.0,0.0,0.0,0.0,0.0,0.0,0.0,0.0,0.0,0.0,0.0,0.0,0.0,0.0,0.0,0.0,0.0,0.0,0.0,0.0,0.0,0.0,0.0,0.0,0.0,0.0,0.0,0.0,0.0,0.0,0.0,0.0,0.0,0.0,0.0,0.0,0.0,0.0,0.0,0.0,0.0,0.0,0.0,0.0,0.0,0.0,0.0,0.0,0.0,0.0,0.0,0.0,0.0,0.0,-1.344,-1.5853,-1.771,-1.8297,-1.9344,-1.9314,-1.7599,-1.7002,-1.5461,-1.2436,0.0,0.0,0.0,0.0,0.0,0.0,0.0,0.0,0.0,0.0,0.0,0.0,0.0,0.0,0.0,0.0,0.0,0.0,0.0,0.0,0.0,0.0,0.0,0.0,0.0,0.0,0.0,0.0,0.0,0.0,0.0,0.0,0.0,0.0,0.0,0.0,0.0,0.0,0.0,0.0,0.0,0.0,0.0,0.0,0.0,0.0,0.0,0.0,0.0,0.0,0.0,0.0,0.0,0.0,0.0,0.0,0.0,0.0,0.0,0.0,0.0,0.0,0.0,0.0,0.0,0.0,0.0,0.0,0.0,0.0,0.0,0.0,0.0,0.0,0.0,0.0,0.0,0.0,0.0,0.0,0.0,0.0,0.0,0.0,0.0,0.0,0.0,0.0,0.0,0.0,0.0,0.0,0.0,0.0,0.0,0.0,0.0,0.0,0.0,0.0,0.0,0.0,-1.375,-1.5998,-1.7804,-1.86,-1.9476,-1.9325,-1.7634,-1.7256,-1.5727,-1.2502,0.0,0.0,0.0,0.0,0.0,0.0,0.0,0.0,0.0,0.0,0.0,0.0,0.0,0.0,0.0,0.0,0.0,0.0,0.0,0.0,0.0,0.0,0.0,0.0,0.0,0.0,0.0,0.0,0.0,0.0,0.0,0.0,0.0,0.0,0.0,0.0,0.0,0.0,0.0,0.0,0.0,0.0,0.0,0.0,0.0,0.0,0.0,0.0,0.0,0.0,0.0,0.0,0.0,0.0,0.0,0.0,0.0,0.0,0.0,0.0,0.0,0.0,0.0,0.0,0.0,0.0,0.0,0.0,0.0,0.0,0.0,0.0,0.0,0.0,0.0,0.0,0.0,0.0,0.0,0.0,0.0,0.0,0.0,0.0,0.0,0.0,0.0,0.0,0.0,0.0,0.0,0.0,0.0,0.0,0.0,0.0,0.0,0.0,0.0,0.0,0.0,0.0,-1.3804,-1.6024,-1.7842,-1.8732,-1.9533,-1.9325,-1.7634,-1.7256,-1.5727,-1.2502,0.0,0.0,0.0,0.0,0.0,0.0,0.0,0.0,0.0,0.0,0.0,0.0,0.0,0.0,0.0,0.0,0.0,0.0,0.0,0.0,0.0,0.0,0.0,0.0,0.0,0.0,0.0,0.0,0.0,0.0,0.0,0.0,0.0,0.0,0.0,0.0,0.0,0.0,0.0,0.0,0.0,0.0,0.0,0.0,0.0,0.0,0.0,0.0,0.0,0.0,0.0,0.0,0.0,0.0,0.0,0.0,0.0,0.0,0.0,0.0,-1.4341,0.0,0.0,0.0,0.0,0.0,0.0,0.0,0.0,0.0,0.0,0.0,0.0,0.0,0.0,0.0,0.0,0.0,0.0,0.0,0.0,0.0,0.0,0.0,0.0,0.0,0.0,0.0,0.0,0.0,0.0,0.0,0.0,0.0,0.0,0.0,0.0,0.0,0.0,0.0,0.0,0.0,-1.4619,-1.6385,-1.8069,-1.9552,-1.9893,-1.9325,-1.7634,-1.7256,-1.5727,-1.2502,-1.1287,0.0,0.0,0.0,0.0,0.0,0.0,0.0,0.0,0.0,0.0,0.0,0.0,0.0,0.0,0.0,0.0,0.0,0.0,0.0,0.0,0.0,0.0,0.0,0.0,0.0,0.0,0.0,0.0,0.0,0.0,0.0,0.0,0.0,0.0,0.0,0.0,0.0,0.0,0.0,0.0,0.0,0.0,0.0,0.0,0.0,0.0,0.0,0.0,0.0,0.0,0.0,0.0,0.0,0.0,0.0,0.0,0.0,0.0,0.0,0.0,-1.5484,0.0,0.0,0.0,0.0,0.0,0.0,0.0,0.0,0.0,0.0,0.0,0.0,0.0,0.0,0.0,0.0,0.0,0.0,0.0,0.0,0.0,0.0,0.0,0.0,0.0,0.0,0.0,0.0,0.0,0.0,0.0,0.0,0.0,0.0,0.0,0.0,0.0,0.0,0.0,0.0,-1.5468,-1.6757,-1.815,-1.9817,-2.0007,-1.9325,-1.7634,-1.7256,-1.5889,-1.3002,-1.1842,0.0,0.0,0.0,0.0,0.0,0.0,0.0,0.0,0.0,0.0,0.0,0.0,0.0,0.0,0.0,0.0,0.0,0.0,0.0,0.0,0.0,0.0,0.0,0.0,0.0,0.0,0.0,0.0,0.0,0.0,0.0,0.0,0.0,0.0,0.0,0.0,0.0,0.0,0.0,0.0,0.0,0.0,0.0,0.0,0.0,0.0,0.0,0.0,0.0,0.0,0.0,0.0,0.0,-1.9161,-1.9715,-2.0946,-2.0361,-2.0496,-2.1096,-1.9658,-1.87,-1.8026,-1.6503,0.0,0.0,0.0,0.0,0.0,0.0,0.0,0.0,0.0,0.0,0.0,0.0,0.0,0.0,0.0,0.0,0.0,0.0,0.0,0.0,0.0,0.0,0.0,0.0,-1.7201,-1.6826,0.0,0.0,0.0,0.0,0.0,0.0,0.0,0.0,0.0,0.0,0.0,0.0,-1.6074,-1.7167,-1.8302,-1.9836,-2.0007,-1.9382,-1.7842,-1.7367,-1.6135,-1.3817,-1.2711,-1.142,0.0,0.0,0.0,0.0,0.0,0.0,0.0,0.0,0.0,0.0,0.0,0.0,0.0,0.0,0.0,0.0,0.0,0.0,0.0,0.0,0.0,0.0,0.0,0.0,0.0,0.0,0.0,0.0,0.0,0.0,0.0,0.0,-1.2878,-1.4492,0.0,0.0,0.0,0.0,0.0,0.0,0.0,0.0,0.0,0.0,0.0,0.0,0.0,-1.8919,-1.9788,-2.135,-2.1816,-2.1196,-2.3308,-2.4043,-2.3624,-2.4192,-2.4538,-2.4635,-2.4404,0.0,-1.9885,-1.8892,0.0,0.0,0.0,0.0,0.0,0.0,0.0,0.0,0.0,0.0,0.0,0.0,0.0,0.0,0.0,0.0,0.0,0.0,0.0,0.0,0.0,0.0,-2.0547,-2.0768,-2.0819,-2.0738,0.0,-1.7566,-1.4647,-1.367,-1.358,0.0,0.0,0.0,0.0,0.0,0.0,0.0,-1.607,-1.761,-1.8927,-1.9893,-2.0007,-1.9609,-1.8619,-1.7769,-1.6546,-1.4817,-1.3698,-1.2388,-1.078,-0.9935,0.0,0.0,0.0,0.0,0.0,0.0,0.0,0.0,0.0,0.0,0.0,0.0,0.0,0.0,0.0,0.0,0.0,0.0,0.0,0.0,0.0,0.0,0.0,0.0,0.0,0.0,0.0,0.0,0.0,-1.3404,-1.5068,-1.5798,-1.5978,-1.5865,0.0,0.0,0.0,0.0,0.0,0.0,0.0,0.0,0.0,-2.0365,-2.0885,-2.1769,-2.3096,-2.4312,-2.4986,-2.5101,-2.6236,-2.6582,-2.6241,-2.6601,-2.6755,-2.6755,-2.6755,-2.5659,-2.3697,-2.1874,-2.0623,-1.9677,0.0,0.0,0.0,0.0,-1.8259,-1.8631,-1.9501,-1.9473,0.0,-1.8916,0.0,0.0,0.0,0.0,0.0,0.0,0.0,0.0,0.0,0.0,-2.1564,-2.2647,-2.2532,-2.2302,-2.2801,-2.1037,-1.8716,0.0,-1.6404,-1.6012,-1.3805,0.0,0.0,0.0,0.0,-1.592,-1.7604,-1.8361,-1.9083,-1.9958,-2.002,-1.9647,-1.877,-1.7836,-1.68,-1.5645,-1.4139,-1.2978,-1.2271,-1.0913,-0.9788,0.0,0.0,0.0,0.0,0.0,0.0,0.0,0.0,0.0,0.0,0.0,0.0,0.0,0.0,0.0,0.0,0.0,0.0,0.0,0.0,0.0,0.0,0.0,0.0,0.0,0.0,0.0,0.0,-1.5459,-1.7035,-1.7624,-1.8288,-1.8353,0.0,0.0,0.0,0.0,0.0,0.0,-2.0281,-2.1119,-2.1962,-2.2774,-2.3639,-2.4697,-2.5942,-2.6621,-2.7255,-2.7895,-2.7895,-2.7895,-2.7895,-2.7895,-2.7895,-2.7895,-2.7895,-2.7525,-2.6755,-2.4409,-2.2947,-2.2023,-2.0546,-2.0373,-2.0946,-2.0946,-2.1041,-2.1357,-2.2503,-2.25,-2.1915,-2.1466,-2.0999,-2.0259,-1.8463,0.0,0.0,0.0,0.0,-1.9722,-2.1589,-2.201,-2.2338,-2.3947,-2.3851,-2.3581,-2.425,-2.3865,-2.2489,0.0,-1.923,-1.8717,-1.5774,0.0,0.0,0.0,0.0,-1.7331,-1.8762,-1.9063,-1.9378,-2.0002,-2.0031,-1.9742,-1.9097,-1.7989,-1.71,-1.6492,-1.4677,-1.3542,-1.3363,-1.2044,-1.0847,-0.982,0.0,0.0,0.0,0.0,0.0,0.0,0.0,0.0,0.0,0.0,0.0,0.0,0.0,0.0,0.0,0.0,0.0,0.0,0.0,0.0,0.0,0.0,0.0,0.0,0.0,0.0,0.0,0.0,0.0,-2.0962,-2.1273,0.0,0.0,0.0,0.0,-2.1196,-2.1331,-2.21,-2.3764,-2.462,-2.5442,-2.6313,-2.7198,-2.7684,-2.778,-2.7818,-2.7857,-2.7895,-2.7895,-2.7895,-2.7895,-2.7895,-2.7895,-2.7895,-2.7895,-2.7876,-2.7703,-2.5904,-2.4697,-2.3879,-2.297,-2.2643,-2.2663,-2.2663,-2.3074,-2.3632,-2.3703,-2.3679,-2.3702,-2.4422,-2.365,-2.244,-2.2328,-2.1262,0.0,0.0,-2.1186,-2.1553,-2.3255,-2.3684,-2.3948,-2.4995,-2.5303,-2.5364,-2.5422,-2.5383,-2.4567,0.0,-2.1355,-2.0815,-1.9058,0.0,-1.7661,-1.7661,-1.7648,-1.7913,-1.8708,-1.9525,-2.0021,-2.001,-1.9993,-1.9969,-1.9931,-1.8429,-1.7477,-1.744,-1.5608,-1.4219,-1.3519,-1.3154,-1.2242,-1.0671,-0.9856,0.0,0.0,0.0,0.0,0.0,0.0,0.0,0.0,0.0,0.0,0.0,0.0,0.0,0.0,0.0,0.0,0.0,0.0,0.0,0.0,0.0,0.0,0.0,0.0,0.0,0.0,0.0,0.0,-2.3067,-2.412,0.0,-2.3596,-2.4019,-2.4466,-2.4755,-2.5293,-2.5895,-2.651,-2.6813,-2.7121,-2.7428,-2.7741,-2.8145,-2.8665,-2.8665,-2.8948,-2.95,-2.95,-2.95,-2.95,-2.95,-2.95,-2.95,-2.95,-2.9198,-2.8626,-2.8005,-2.6948,-2.5678,-2.537,-2.4909,-2.4404,-2.4404,-2.4553,-2.4772,-2.4772,-2.4752,-2.4766,-2.4953,-2.431,-2.3438,-2.3384,-2.2966,-2.2571,-2.3021,-2.3365,-2.3795,-2.4623,-2.4732,-2.476,-2.5253,-2.5397,-2.5425,-2.5376,-2.5372,-2.5075,-2.4077,-2.3537,-2.2701,-2.1023,-2.093,-2.0911,-2.0389,-2.0217,-2.025,-2.0499,-2.0283,-2.0098,-2.0063,-2.0026,-2.0007,-2.0007,-1.8453,-1.7501,-1.7501,-1.5674,-1.4478,-1.4229,-1.2994,-1.2061,-1.1486,-1.0164,-0.9107,0.0,0.0,0.0,0.0,0.0,0.0,0.0,0.0,0.0,0.0,0.0,0.0,0.0,0.0,0.0,0.0,0.0,0.0,0.0,0.0,0.0,0.0,0.0,0.0,0.0,0.0,-2.4302,-2.4875,-2.6178,-2.6697,-2.5827,-2.6524,-2.7044,-2.7044,-2.7563,-2.7895,-2.7895,-2.8165,-2.8299,-2.8299,-2.8582,-2.9006,-2.9525,-2.9833,-3.0121,-3.0404,-3.0692,-3.0673,-3.0404,-3.0404,-3.0404,-3.0404,-3.0404,-3.0077,-2.9544,-2.9544,-2.8717,-2.7428,-2.714,-2.6697,-2.6173,-2.6173,-2.5981,-2.5692,-2.5404,-2.5308,-2.5293,-2.5206,-2.4812,-2.4358,-2.4323,-2.4274,-2.427,-2.4452,-2.4741,-2.5031,-2.5273,-2.5219,-2.5143,-2.5327,-2.5372,-2.5385,-2.5344,-2.532,-2.5326,-2.5303,-2.4888,-2.409,-2.2682,-2.2875,-2.2979,-2.2191,-2.1983,-2.1808,-2.1504,-2.0905,-2.0398,-2.0106,-2.0031,-2.0007,-2.0007,-1.8453,-1.7501,-1.7501,-1.5728,-1.465,-1.4603,-1.3185,-1.2263,-1.1939,-1.0376,-0.9143,-0.8297,0.0,0.0,0.0,0.0,0.0,0.0,0.0,0.0,0.0,0.0,0.0,0.0,0.0,0.0,0.0,0.0,0.0,0.0,0.0,0.0,0.0,0.0,0.0,-2.2836,-2.3663,-2.4856,-2.6486,-2.7467,-2.7678,-2.6832,-2.7544,-2.8068,-2.8068,-2.8068,-2.8068,-2.8068,-2.88,-2.9223,-2.9223,-3.0044,-3.0481,-3.0481,-3.1308,-3.1308,-3.05,-3.1327,-3.1288,-3.0481,-3.0481,-3.0481,-3.0481,-3.0442,-3.0442,-3.0442,-3.0404,-2.991,-2.9069,-2.8261,-2.7915,-2.7895,-2.7895,-2.7371,-2.6524,-2.5673,-2.5385,-2.5385,-2.5385,-2.5385,-2.5385,-2.5346,-2.5346,-2.5327,-2.5308,-2.5217,-2.5126,-2.5182,-2.5157,-2.5152,-2.5262,-2.5356,-2.5395,-2.5393,-2.5397,-2.5401,-2.548,-2.5337,-2.4924,-2.41,-2.3941,-2.3698,-2.2998,-2.281,0.0,-2.1573,-2.1359,-2.0966,-2.0131,-2.0007,-2.0007,-2.0007,-1.8491,-1.752,-1.7501,-1.5838,-1.4771,-1.4614,-1.3824,-1.295,-1.2014,-1.0522,-0.9304,-0.837,0.0,0.0,0.0,0.0,0.0,0.0,0.0,0.0,0.0,0.0,0.0,0.0,0.0,0.0,0.0,0.0,0.0,0.0,0.0,0.0,0.0,0.0,-2.4409,-2.3817,-2.6029,-2.7895,-2.8357,-2.9737,-3.0564,-3.0314,-3.1044,-3.1525,-3.1525,-3.1525,-3.1525,-3.1525,-3.1737,-3.1852,-3.1852,-3.2083,-3.2218,-3.2218,-3.2449,-3.2449,-3.2218,-3.2468,-3.2449,-3.2218,-3.2218,-3.2218,-3.2179,-3.1602,-3.1346,-3.1288,-3.0654,-3.025,-2.9967,-2.9102,-2.8415,-2.7895,-2.7895,-2.7761,-2.7505,-2.7274,-2.7198,-2.7198,-2.7198,-2.7198,-2.7063,-2.6428,-2.6231,-2.6115,-2.5481,-2.5269,-2.5248,-2.5264,-2.5264,-2.5269,-2.5346,-2.5389,-2.5398,-2.5341,-2.5332,-2.5303,-2.5233,-2.5165,-2.511,-2.5065,-2.497,-2.4846,-2.4633,-2.3985,0.0,-2.3163,-2.2018,-2.1134,-2.0903,-2.0348,-2.0007,-2.0007,-1.9003,-1.8126,-1.7539,-1.6399,-1.5447,-1.4776,-1.3832,-1.2884,-1.1952,-1.1503,-1.0876,0.0,0.0,0.0,0.0,0.0,0.0,0.0,0.0,0.0,0.0,0.0,0.0,0.0,0.0,0.0,0.0,0.0,0.0,0.0,0.0,0.0,0.0,-2.5659,-2.7269,-2.6794,-2.8107,-2.9377,-3.0102,-3.1083,-3.1833,-3.2179,-3.2622,-3.2891,-3.2891,-3.2891,-3.2891,-3.2891,-3.2891,-3.2891,-3.2891,-3.2891,-3.2891,-3.2891,-3.3256,-3.3256,-3.2891,-3.3276,-3.3256,-3.2891,-3.2891,-3.2891,-3.2872,-3.241,-3.2006,-3.166,-3.1154,-3.0731,0.0,0.0,0.0,0.0,0.0,-2.8396,-2.8357,-2.803,-2.7895,-2.7895,-2.7895,-2.7895,-2.7818,-2.7294,-2.714,-2.6967,-2.6096,-2.5846,-2.5769,-2.5385,-2.5308,-2.5313,-2.5351,-2.5356,-2.5351,-2.5332,-2.5346,-2.5317,-2.5243,-2.5238,0.0,-2.5427,-2.5355,-2.5279,-2.5298,-2.4758,-2.4211,-2.386,-2.2879,-2.2073,-2.1689,-2.0927,-2.0436,-2.0499,-1.9379,0.0,0.0,0.0,-1.5597,-1.439,-1.37,0.0,0.0,0.0,0.0,0.0,0.0,0.0,0.0,-1.0051,-1.0156,0.0,0.0,0.0,0.0,0.0,0.0,0.0,0.0,0.0,0.0,0.0,0.0,0.0,0.0,0.0,0.0,-2.7967,-3.0577,-3.0673,-3.0025,-3.0108,-3.166,-3.1929,-3.2256,-3.2987,-3.3141,-3.3199,-3.3199,-3.3199,-3.3199,-3.3199,0.0,0.0,0.0,0.0,-3.3199,-3.3199,-3.3949,-3.3949,-3.3199,-3.3968,-3.393,-3.3199,-3.3199,-3.3199,-3.3199,-3.3083,-3.2641,-3.1968,-3.1891,-3.1327,-3.0538,-3.0442,-3.0404,-3.0308,-2.9525,-2.9242,-2.9146,-2.8429,0.0,0.0,-2.8179,-2.8179,-2.8159,-2.8068,-2.8049,-2.7857,-2.6986,-2.6755,-2.6538,-2.5658,-2.5432,-2.5418,-2.5293,-2.5298,-2.5313,-2.5384,-2.5394,-2.5374,-2.5364,-2.5364,-2.5364,-2.5351,-2.5273,-2.5234,-2.5266,-2.5184,-2.4802,-2.4003,-2.3727,-2.3306,-2.2525,0.0,0.0,-2.119,-1.977,-1.8815,-1.8693,-1.7193,-1.5668,-1.4164,-1.3928,-1.3486,-1.2729,-1.261,-1.2514,-1.2446,-1.3165,-1.3147,-1.2446,-1.2265,-1.2126,0.0,0.0,0.0,0.0,0.0,0.0,0.0,0.0,0.0,0.0,0.0,0.0,0.0,0.0,0.0,-2.803,-3.0006,-3.1679,-3.2333,-3.2275,-3.2295,-3.2622,-3.3295,-3.3782,-3.3936,-3.4584,-3.5,-3.5,-3.5,-3.5,-3.5,-3.5,-3.5,-3.5,-3.5,-3.5,-3.5,-3.5154,-3.5154,-3.5,0.0,0.0,-3.5,-3.5,-3.5,-3.4962,-3.4257,-3.3859,-3.3667,-3.2968,-3.2199,-3.1385,-3.0673,-3.0404,-3.0385,-3.0212,-3.0154,-3.0135,-2.9962,-2.9923,-2.9923,-2.9923,-2.9923,-2.9788,-2.9088,-2.8876,0.0,-2.7876,-2.764,-2.7426,-2.6449,-2.6264,-2.6133,-2.5338,-2.5228,-2.5308,-2.5317,-2.5317,-2.5293,-2.5176,-2.516,-2.5113,-2.5025,-2.5145,-2.5245,-2.516,-2.5111,-2.4962,-2.4575,-2.4032,-2.3566,-2.3302,-2.2497,-2.172,-2.1085,-2.0734,-1.9964,-1.8617,-1.7675,-1.6993,-1.6619,-1.6564,-1.6377,-1.5993,-1.5968,-1.5891,-1.5769,-1.5932,-1.5914,-1.5732,-1.4433,-1.3761,0.0,0.0,0.0,0.0,0.0,0.0,0.0,0.0,0.0,0.0,0.0,-2.509,0.0,0.0,-2.9929,-3.0333,-3.1833,-3.3083,-3.3487,-3.393,-3.4045,-3.3603,-3.3936,-3.4379,-3.4814,-3.5231,-3.55,-3.55,-3.55,-3.55,-3.55,-3.55,-3.55,-3.55,-3.55,-3.55,-3.55,-3.55,-3.55,-3.55,-3.55,-3.55,-3.55,-3.55,-3.55,-3.5481,-3.5045,-3.4603,-3.4129,-3.3256,-3.266,-3.2256,-3.1814,-3.1135,-3.0404,-3.0404,-3.0404,-3.0404,-3.0404,-3.0404,-3.0404,-3.0404,-3.0404,-3.0327,-2.989,-2.9756,-2.9571,-2.8656,-2.8407,-2.8166,-2.712,-2.66,-2.6225,-2.5717,-2.5336,-2.5097,-2.5097,-2.5097,-2.5086,-2.5006,-2.4993,-2.4987,-2.4915,-2.5006,-2.5075,-2.5006,-2.4962,-2.4896,-2.4712,-2.4381,-2.4118,-2.4064,-2.3243,-2.2402,-2.1664,-2.0864,-1.9864,-1.8582,-1.82,-1.7794,-1.7377,-1.7318,-1.7234,-1.7107,-1.6977,-1.6865,-1.6789,-1.6729,-1.6693,-1.6693,-1.6287,-1.5846,0.0,0.0,0.0,0.0,0.0,0.0,0.0,0.0,-2.3183,-2.3755,-2.6192,-2.8303,-2.8505,-3.0546,-3.2199,-3.2199,-3.3468,-3.4449,-3.4449,-3.5064,-3.5231,-3.4545,-3.4449,-3.4737,-3.5423,-3.55,-3.55,-3.55,-3.55,-3.55,-3.55,-3.55,-3.55,-3.55,-3.55,-3.55,-3.55,-3.55,-3.55,-3.55,-3.55,-3.55,-3.55,-3.55,-3.55,-3.55,-3.55,-3.5103,-3.4372,-3.3506,-3.3141,-3.3141,-3.2968,-3.2064,-3.0885,-3.0885,-3.0788,-3.0654,-3.0654,-3.0538,-3.0404,-3.0404,-3.0404,-3.0404,-3.0404,-3.0404,-3.0226,-2.943,-2.9187,-2.8936,-2.7843,-2.7119,-2.6546,-2.6159,-2.5587,-2.5091,-2.4921,-2.4902,-2.4895,-2.4867,-2.4861,-2.4854,-2.4825,-2.4818,-2.4825,-2.4854,-2.4842,-2.4785,-2.4657,-2.4647,-2.4615,-2.4582,-2.3893,-2.3092,-2.224,-2.0824,-1.9632,-1.8789,-1.8773,-1.8536,-1.7917,-1.7829,-1.7788,-1.7772,-1.7554,-1.7418,-1.7376,-1.7257,-1.7194,-1.7182,-1.7827,-1.77,-2.0217,-1.951,-1.9453,-2.1185,-2.1646,-2.2283,0.0,0.0,-2.6042,-2.7692,-2.9008,-3.0115,-3.1002,-3.2686,-3.3917,-3.3917,-3.4737,-3.5346,-3.5346,-3.5442,-3.5462,-3.5365,-3.5346,-3.5385,-3.5481,-3.55,-3.55,-3.55,-3.55,-3.55,-3.55,-3.55,-3.55,-3.55,-3.55,-3.55,-3.55,-3.55,-3.55,-3.55,-3.55,-3.55,-3.55,-3.55,-3.55,-3.55,-3.55,-3.5442,-3.5288,-3.441,-3.4052,-3.3975,-3.3199,-3.2795,-3.2622,-3.2622,-3.2179,-3.1545,-3.1545,-3.1058,-3.0404,-3.0404,-3.0404,-3.0404,-3.0404,-3.0404,-3.0379,-3.0251,-3.0226,-2.9966,-2.8833,-2.857,-2.8141,-2.6354,-2.5933,-2.5778,-2.5053,-2.4902,-2.4861,-2.4742,-2.4712,-2.4684,-2.4566,-2.4541,-2.459,-2.4689,-2.4811,-2.4797,-2.4549,-2.4631,-2.4637,-2.4515,-2.4425,-2.3719,-2.2157,-2.1209,-2.0364,-1.96,-1.9575,-1.9582,-1.962,-1.9601,-1.9548,-1.942,-1.9395,-1.9266,-1.9022,-1.9025,-1.8958,-1.8824,-1.8914,-1.8534,-2.263,-2.2555,0.0,0.0,-2.492,-2.6053,-2.7117,-2.8248,-2.9327,-3.0161,-3.1444,-3.256,-3.2986,-3.4102,-3.4968,0.0,-3.525,-3.55,-3.55,-3.55,-3.5308,-3.4795,-3.5192,-3.55,-3.55,-3.55,-3.55,-3.55,-3.55,-3.55,-3.55,-3.55,-3.55,-3.55,-3.55,-3.55,-3.55,-3.55,-3.55,-3.55,-3.55,-3.55,-3.55,-3.55,-3.55,-3.55,-3.55,-3.55,-3.5462,-3.5122,-3.4968,-3.493,-3.4564,-3.4404,-3.4288,-3.3276,-3.2699,-3.2391,-3.2391,-3.1852,-3.1154,-3.1154,-3.0808,-3.0404,-3.0404,-3.0404,-3.0386,-3.0254,-3.0235,-3.0092,-2.954,-2.8998,-2.8404,-2.7539,-2.6597,-2.5793,-2.5437,-2.4995,-2.4653,-2.4599,-2.4582,-2.4566,-2.4508,-2.45,-2.4525,-2.4574,-2.4629,-2.4629,-2.4517,-2.4541,-2.4557,-2.4508,-2.4045,-2.3452,-2.2757,-2.1532,-2.0674,-2.0364,-1.9946,-1.9738,-1.9776,-1.9855,-1.9824,-1.965,-1.9593,-1.9497,-1.9297,-1.9214,-1.9144,-1.9095,-1.9095,-1.8914,-2.4367,0.0,0.0,-2.5986,-2.7428,-2.8717,-2.9007,-3.037,-3.1651,-3.1748,-3.2814,-3.3754,-3.3774,-3.4525,-3.5135,-3.5135,-3.5346,-3.55,-3.55,-3.55,-3.5269,-3.4622,-3.5122,-3.55,-3.55,-3.55,-3.55,-3.55,-3.55,-3.55,-3.55,-3.55,-3.55,-3.55,-3.55,-3.55,-3.55,-3.55,-3.55,-3.55,-3.55,-3.55,-3.55,-3.55,-3.55,-3.55,-3.55,-3.55,-3.55,-3.55,-3.55,-3.55,-3.55,-3.55,-3.5346,-3.4083,-3.3468,-3.3256,-3.3256,-3.2564,-3.1698,-3.1698,-3.1115,-3.0404,-3.0404,-3.0404,-3.0367,-3.0215,-3.0182,-3.0155,-2.9985,-2.9391,-2.8748,-2.847,-2.7362,-2.6238,-2.5801,-2.5243,-2.4778,-2.4537,-2.45,-2.45,-2.45,-2.45,-2.45,-2.45,-2.45,-2.45,-2.45,-2.45,-2.45,-2.45,-2.3944,-2.3471,-2.3221,-2.2126,-2.1365,-2.1142,-2.042,-2.0002,-2.0023,-1.9932,-1.9806,-1.9688,-1.9605,-1.9497,-1.9346,-1.9214,-1.9145,-1.9113,-1.9331,-1.9431,0.0,0.0,-2.5833,-2.7737,-2.8762,-2.9522,-3.0495,-3.1582,-3.2387,-3.2452,-3.2669,-3.2863,-3.2917,-3.3641,-3.4244,-3.4244,-3.4949,-3.55,-3.55,-3.55,-3.5481,-3.5462,-3.5481,-3.55,0.0,-3.55,-3.55,-3.55,-3.55,-3.55,-3.55,-3.55,-3.55,-3.55,-3.55,-3.55,-3.55,-3.55,-3.55,-3.55,-3.55,-3.55,-3.55,-3.55,-3.55,-3.55,-3.55,-3.55,-3.55,-3.55,-3.55,-3.55,-3.55,-3.55,-3.5481,-3.5442,-3.4891,-3.4167,-3.4167,-3.3083,-3.1698,-3.1698,-3.1115,-3.0404,-3.0404,-3.0404,-3.0404,-3.0398,-3.0398,-3.0349,-3.0155,-2.9973,-2.9607,-2.8628,-2.8213,-2.7594,-2.6042,-2.5689,-2.5429,-2.4648,-2.45,-2.45,-2.45,-2.45,-2.45,-2.45,-2.45,-2.45,-2.45,-2.45,-2.45,-2.45,-2.4481,-2.4119,-2.3277,-2.3165,-2.2794,-2.2015,-2.1205,-2.0796,-2.0856,-2.0182,-1.9838,-1.9884,-1.9757,-1.9638,-1.9485,-1.9354,-1.9222,-1.9113,-1.9902,-2.0264,0.0,0.0,-2.8249,-2.9311,-3.0665,-3.1842,-3.2177,-3.2643,-3.3043,-3.3202,-3.2431,-3.1958,-3.2694,-3.264,-3.2846,-3.3954,-3.4416,-3.4834,-3.5423,-3.55,-3.5288,-3.4718,-3.5154,0.0,0.0,0.0,0.0,-3.55,-3.5981,-3.6308,-3.6308,-3.6827,-3.6892,-3.6308,-3.6308,-3.6038,-3.5519,-3.55,-3.55,-3.55,-3.55,-3.55,-3.55,-3.55,-3.55,-3.55,-3.55,-3.55,-3.55,-3.55,-3.55,-3.55,-3.55,-3.55,-3.55,-3.55,-3.5308,-3.5064,-3.5064,-3.4314,-3.3256,-3.2679,-3.1948,-3.1122,-3.042,-3.0196,-3.0182,-3.0085,-3.0075,-3.0049,-2.9977,-2.9826,-2.9614,-2.9288,-2.8633,-2.7947,-2.7408,-2.6869,-2.6256,-2.5448,-2.5299,-2.5132,-2.4592,-2.45,-2.45,-2.45,-2.45,-2.45,-2.45,-2.45,-2.45,-2.45,-2.45,-2.4388,-2.4101,-2.3527,-2.3073,-2.2813,-2.2033,-2.1603,-2.1633,-2.0924,-2.0508,-2.0439,-2.0478,-2.0369,-2.0099,-2.0619,-2.0829,-2.0699,-2.097,-2.1097,-2.7303,-2.8651,-3.0004,-3.1054,-3.2214,-3.3109,-3.3109,-3.3264,-3.3185,-3.2436,-3.1513,-3.0879,-3.0993,-3.0849,-3.1251,-3.2923,-3.3506,-3.4257,-3.5712,-3.5673,-3.5404,-3.5122,-3.5589,-3.5698,0.0,0.0,0.0,-3.5519,-3.625,-3.6692,-3.6692,-3.7526,-3.7738,-3.718,-3.7161,-3.693,-3.6404,-3.6385,-3.6385,-3.6385,-3.6385,-3.6231,-3.5923,-3.5923,-3.5762,-3.546,-3.546,-3.546,-3.546,-3.546,-3.5486,-3.55,-3.55,-3.55,-3.55,-3.55,-3.55,-3.5493,-3.5417,-3.4808,-3.3951,-3.3081,-3.2203,-3.1305,-3.039,-3.0073,-3.0007,-2.9926,-2.9902,-2.9902,-2.9902,-2.976,-2.9608,-2.9608,-2.9063,-2.8486,-2.817,-2.7687,-2.7092,-2.6275,-2.5912,-2.554,-2.502,-2.4685,-2.45,-2.45,-2.45,-2.45,-2.45,-2.45,-2.45,-2.45,-2.45,-2.45,-2.45,-2.3981,-2.3657,-2.3657,-2.2895,-2.2423,-2.2423,-2.1727,-2.1298,-2.1201,-2.1275,-2.1194,-2.0901,-2.1437,-2.1633,-2.1514,-2.1794,-2.192,-2.8959,-3.007,-3.1155,-3.2918,-3.3335,-3.3298,-3.3296,-3.3345,-3.273,-3.0387,-2.9946,-2.9544,0.0,0.0,-2.9594,-3.1309,-3.2334,-3.3795,-3.6346,-3.6038,-3.5865,0.0,0.0,0.0,0.0,0.0,0.0,-3.5685,0.0,-3.6769,-3.6827,-3.7654,-3.8104,-3.8065,-3.8058,-3.8038,-3.8,-3.7981,-3.7981,-3.7988,-3.7988,-3.7558,-3.6769,-3.6769,-3.6332,-3.552,-3.552,-3.5501,-3.5463,-3.5463,-3.5465,-3.55,-3.55,-3.55,-3.55,-3.55,-3.55,-3.5479,-3.5266,-3.4655,-3.3815,-3.2947,-3.201,-3.1097,-3.0418,-3.008,-2.9934,-2.9945,-2.9907,-2.9869,-2.9869,-2.9734,-2.9589,-2.9589,-2.9482,-2.9174,-2.8356,-2.817,-2.7929,-2.7111,-2.6275,-2.5689,-2.5652,-2.502,-2.45,-2.45,-2.45,-2.45,-2.45,-2.45,-2.45,-2.45,-2.45,-2.45,-2.45,-2.45,-2.45,-2.45,-2.3721,-2.3277,-2.3277,-2.2558,-2.2148,-2.2141,-2.2144,-2.2043,-2.1852,-2.1828,-2.1761,-2.164,-2.2391,-2.2753,-2.9941,-3.1314,-3.268,-3.3891,-3.3738,-3.3296,-3.3296,-3.187,-3.0415,-2.9923,-2.8404,-2.725,0.0,0.0,0.0,-3.1213,-3.2334,0.0,-3.633,-3.6522,0.0,-3.7494,0.0,-3.7594,-3.7582,-3.7594,0.0,0.0,-3.7528,-3.7935,-3.8531,-3.9384,-3.9557,-3.8915,-3.8853,-3.853,-3.7936,-3.7936,-3.7924,-3.7936,-3.7936,-3.7836,-3.768,-3.768,-3.7558,-3.7339,-3.7283,-3.6922,-3.6365,-3.6305,-3.5947,-3.5439,-3.5439,-3.546,-3.55,-3.55,-3.55,-3.5479,-3.5266,-3.5057,-3.4732,-3.3853,-3.3285,-3.2778,-3.1873,-3.1111,-3.0547,-3.0439,-2.9988,-2.9531,-2.9531,-2.9491,-2.9441,-2.9441,-2.9419,-2.9341,-2.9118,-2.9062,-2.882,-2.7966,-2.6665,-2.5522,-2.4908,-2.4648,-2.45,-2.45,-2.45,-2.45,-2.45,-2.45,-2.45,-2.45,-2.45,-2.45,-2.45,-2.45,-2.45,-2.45,-2.4286,-2.4175,-2.4175,-2.3357,-2.2871,-2.277,-2.2817,-2.2724,-2.2473,-2.3115,-2.3331,-2.3216,-2.3415,-2.3524,-3.1379,-3.2705,-3.3836,-3.4602,-3.4207,-3.3403,-3.2674,-3.1114,-2.9418,-2.807,-2.6951,0.0,0.0,0.0,0.0,0.0,0.0,0.0,-3.6254,-3.6657,-3.7103,0.0,-3.8435,0.0,-3.8432,-3.8435,-3.858,0.0,-3.8665,-3.8669,-3.9125,-3.9989,-4.0238,-3.9739,-3.9695,-3.9448,-3.9007,-3.9007,-3.8997,-3.9002,-3.9002,-3.8834,-3.8535,-3.8535,-3.8316,-3.7947,0.0,-3.7632,-3.7145,-3.6738,-3.6312,-3.5882,-3.5518,-3.5405,-3.546,-3.546,-3.5424,-3.5361,-3.5339,-3.5218,-3.492,-3.4054,-3.3582,-3.3177,-3.2347,-3.1705,-3.1219,-3.1157,-3.0549,-2.9935,-2.9935,-2.9657,-2.9396,-2.9396,-2.9396,-2.9396,-2.9396,-2.9396,-2.9136,-2.8263,-2.7092,-2.5968,-2.5169,-2.4723,-2.45,-2.45,-2.45,-2.45,-2.45,-2.45,-2.45,-2.45,-2.45,-2.45,-2.45,-2.45,-2.45,-2.45,-2.45,-2.4465,-2.4357,-2.3895,-2.3584,-2.3446,-2.3502,-2.341,-2.3174,-2.3732,-2.3921,-2.381,-2.3795,-2.3803,-3.2727,-3.3845,-3.4542,-3.4865,-3.4282,-3.3211,-3.1604,-3.034,-2.8681,-2.576,0.0,-2.525,-2.323,-2.4779,-2.6694,-2.7781,0.0,-3.2608,-3.5967,-3.6516,-3.7206,-3.8884,-3.9186,-3.9254,-3.9259,-3.9263,-3.9543,-4.026,-3.9644,-3.9267,-3.9257,-3.9976,-4.0398,-4.0389,-4.0389,-4.0389,-4.0389,-4.0389,-4.0389,-4.0398,-4.0398,-4.004,-3.9353,-3.938,-3.8953,-3.8222,-3.8222,0.0,-3.7895,-3.7015,-3.6637,-3.6496,-3.5645,-3.5342,-3.5379,-3.5364,-3.5289,-3.5218,-3.5361,-3.5166,-3.4737,-3.4008,-3.3517,-3.3108,-3.2553,-3.2179,-3.1961,-3.1961,-3.1292,-3.0604,-3.0604,-2.9991,-2.9396,-2.9396,-2.9396,-2.9396,-2.9396,-2.9396,-2.9136,-2.8263,-2.7445,-2.6646,-2.5838,-2.5039,-2.45,-2.45,-2.45,-2.45,-2.45,-2.45,-2.45,-2.45,-2.45,-2.45,-2.45,-2.45,-2.45,-2.45,-2.45,-2.442,-2.4238,-2.421,-2.4135,-2.4006,-2.4029,-2.3959,-2.3764,-2.3881,-2.3907,-2.3804,-2.381,-2.381,-3.2711,-3.3636,-3.4153,-3.3725,-3.2609,-3.1307,-3.0193,-2.7843,0.0,0.0,0.0,-2.3211,-2.361,-2.4697,0.0,-2.8439,0.0,0.0,0.0,0.0,-3.7149,0.0,0.0,0.0,0.0,0.0,0.0,0.0,0.0,-4.008,-4.0086,-4.0239,-4.0317,-4.031,-4.0329,-4.0329,-4.0329,-4.0329,-4.0309,-4.0316,-4.0316,-4.0266,-4.0194,-4.0255,-4.017,-3.9966,-3.9966,0.0,-3.8804,-3.7881,-3.7105,-3.6438,-3.5626,-3.5304,-3.5308,-3.5187,-3.513,-3.5105,-3.5037,-3.486,-3.466,-3.468,-3.4514,-3.4252,-3.3932,-3.3341,-3.2797,-3.2797,-3.1738,-3.0604,-3.0604,-2.9991,-2.9396,-2.9396,-2.9396,-2.9396,-2.9396,-2.9396,-2.9136,-2.8263,-2.7445,-2.6646,-2.5838,-2.5039,-2.45,-2.45,-2.45,-2.45,-2.45,-2.45,-2.45,-2.45,-2.45,-2.45,-2.45,-2.45,-2.45,-2.45,-2.45,-2.4491,-2.4446,-2.4294,-2.4135,-2.4006,-2.3847,-2.3721,-2.3623,-2.3656,-2.3711,-2.3804,-2.3797,-2.3797,-3.3227,-3.39,-3.4064,-3.3452,-3.2146,-3.0649,-2.9286,0.0,0.0,0.0,0.0,-2.229,-2.1932,0.0,0.0,0.0,0.0,0.0,0.0,0.0,0.0,0.0,0.0,0.0,0.0,0.0,0.0,0.0,0.0,-4.0291,-4.03,-4.03,-4.0291,-4.0301,-4.0301,-4.0301,-4.0301,-4.0301,-4.0301,-4.03,-4.03,-4.0327,-4.0353,-4.0379,-4.0379,-4.0353,-4.0353,0.0,-3.8814,-3.7909,-3.6996,-3.6046,-3.5221,-3.4898,-3.4935,-3.487,-3.4765,-3.4705,-3.4812,-3.4711,-3.4561,-3.4699,-3.4575,-3.4381,-3.4245,-3.3918,-3.3621,-3.3621,-3.2481,-3.1218,-3.1218,-3.0326,-2.9396,-2.9396,-2.9396,-2.9396,-2.9396,-2.9396,-2.9266,-2.8858,-2.7761,-2.6776,-2.6386,-2.5317,-2.45,-2.45,-2.45,-2.45,-2.45,-2.45,-2.45,-2.45,-2.45,-2.45,-2.45,-2.45,-2.45,-2.45,-2.45,-2.4446,-2.4339,-2.4173,-2.4018,-2.3855,-2.3685,-2.3571,-2.3551,-2.3573,-2.3629,-2.3696,-2.3772,-2.3761,-3.3358,-3.3982,-3.3931,-3.3105,-3.1732,-3.0104,-2.84,-2.5991,0.0,0.0,-2.1984,-2.1498,-2.0443,0.0,0.0,0.0,0.0,0.0,0.0,0.0,0.0,0.0,0.0,0.0,0.0,0.0,0.0,0.0,0.0,0.0,-4.0301,-4.0301,-4.0301,-4.0301,-4.0301,-4.0301,-4.0301,-4.0301,-4.0301,-4.0301,-4.0301,-4.0263,-4.0215,-4.0205,-4.0177,-4.0129,-4.0139,0.0,0.0,-3.7671,-3.6723,-3.5702,-3.4846,-3.4529,-3.4591,-3.4548,-3.4431,-3.4341,-3.4548,-3.4524,-3.4386,-3.4461,-3.4393,-3.4269,-3.4221,-3.4185,-3.4185,-3.4185,-3.3015,-3.1771,-3.1771,-3.0593,-2.9396,-2.9396,-2.9396,-2.9396,-2.9396,-2.9396,-2.9396,-2.9396,-2.804,-2.6907,-2.6907,-2.5578,-2.45,-2.45,-2.45,-2.45,-2.45,-2.45,-2.45,-2.45,-2.45,-2.45,-2.45,-2.45,-2.45,-2.45,-2.45,-2.4429,-2.4275,-2.4115,-2.3968,-2.3808,-2.3631,-2.3544,-2.3544,-2.3573,-2.3603,-2.3596,-2.3707,-2.3696,-3.2309,-3.3277,-3.3474,-3.1955,-3.0494,-2.8981,-2.7177,0.0,0.0,-2.2046,-2.0907,-2.0182,-2.096,-2.1457,0.0,0.0,0.0,0.0,0.0,0.0,0.0,0.0,0.0,0.0,0.0,0.0,0.0,0.0,0.0,0.0,-4.0291,-4.0301,-4.0301,-4.0301,-4.0301,-4.0301,-4.0301,-4.0301,-4.0301,-4.0301,-4.0301,-4.0176,-3.9946,-3.995,-3.9802,-3.9568,-3.9559,0.0,0.0,-3.7408,-3.6551,-3.5702,-3.4846,-3.4508,-3.4497,-3.4367,-3.4316,-3.4281,-3.4136,-3.4061,-3.4049,-3.4049,-3.4281,-3.4517,-3.4269,-3.4161,-3.4111,-3.4111,-3.2944,-3.1703,-3.1703,-3.0561,-2.9396,-2.9396,-2.9396,-2.9396,-2.9396,-2.9396,-2.9396,-2.9396,-2.804,-2.6907,-2.6907,-2.5578,-2.45,-2.45,-2.45,-2.45,-2.45,-2.45,-2.45,-2.45,-2.45,-2.45,-2.45,-2.45,-2.45,-2.45,-2.45,-2.4491,-2.4482,-2.4284,-2.4173,-2.4145,-2.3829,-2.3671,-2.3671,-2.3578,-2.3539,-2.3596,-2.3607,-2.3607,-3.2032,-3.2821,-3.2816,-3.169,-3.0251,-2.8684,-2.699,0.0,-2.1885,-2.1877,-2.0652,-1.9731,-2.0201,-2.0838,-2.1803,0.0,-2.4083,-2.5317,0.0,0.0,0.0,0.0,0.0,0.0,0.0,0.0,0.0,0.0,0.0,0.0,-4.0038,-4.0206,-4.0301,-4.0301,-4.0301,-4.0301,-4.0301,-4.0301,-4.0301,-4.0301,-4.0301,-4.0244,-4.0147,-3.9958,-3.9832,-3.969,-3.9065,0.0,0.0,-3.641,-3.5473,-3.455,-3.4216,-3.4087,-3.4074,-3.4018,-3.3998,-3.3998,-3.3947,-3.3934,-3.3947,-3.3985,-3.4111,-3.4221,-3.4111,-3.4086,-3.4086,-3.4049,-3.2871,-3.1633,-3.1633,-3.0494,-2.9355,-2.9396,-2.9396,-2.9396,-2.9396,-2.9396,-2.9396,-2.9396,-2.804,-2.6907,-2.6907,-2.5578,-2.45,-2.45,-2.45,-2.45,-2.45,-2.45,-2.4446,-2.433,-2.4321,-2.4321,-2.4321,-2.4238,-2.4191,-2.4191,-2.4191,-2.4191,-2.4191,-2.4018,-2.3891,-2.3891,-2.3696,-2.3582,-2.3582,-2.3522,-2.3517,-2.3539,-2.3573,-2.3573,-3.1005,-3.1867,-3.2063,-3.1237,-2.9843,-2.8216,0.0,0.0,-2.1721,-2.1482,-2.0395,-1.9526,-1.9612,-2.0257,-2.1149,-2.2351,-2.3014,-2.4182,-2.6418,0.0,0.0,0.0,0.0,0.0,0.0,0.0,0.0,0.0,0.0,0.0,-3.9658,-3.9933,-4.0137,-4.0301,-4.0301,-4.0301,-4.0301,-4.0301,-4.0301,-4.0301,-4.0301,-4.0225,-4.0038,-3.9624,-3.9346,-3.9118,-3.8141,0.0,0.0,-3.5525,-3.4705,-3.3807,-3.3807,-3.3807,-3.3807,-3.3807,-3.3807,-3.382,-3.3842,-3.3868,-3.3868,-3.3921,-3.3947,-3.3972,-3.3947,-3.3985,-3.4036,-3.3985,-3.2797,-3.1481,-3.1013,-3.008,-2.9302,-2.9355,-2.9376,-2.9376,-2.9396,-2.9396,-2.9396,-2.9396,-2.8244,-2.7185,-2.6944,-2.5745,-2.4752,-2.4511,-2.4437,-2.4429,-2.4429,-2.4411,-2.433,-2.4192,-2.4097,-2.4086,-2.4135,-2.4037,-2.3996,-2.3996,-2.3996,-2.3996,-2.3996,-2.3858,-2.3795,-2.3795,-2.3631,-2.356,-2.356,-2.351,-2.3505,-2.3505,-2.3551,-2.3539,-2.8803,-3.021,-3.1231,-3.0411,-2.8998,-2.7394,0.0,-2.3538,-2.1555,-2.0694,-1.997,-1.9499,-1.9499,-1.9618,-2.0302,-2.2116,-2.2293,-2.3086,-2.5555,0.0,0.0,0.0,0.0,0.0,0.0,0.0,0.0,0.0,0.0,0.0,-3.9115,-3.9363,-3.9739,-4.0272,-4.0301,-4.0301,-4.0301,-4.0301,-4.0301,-4.0301,-4.0301,-4.0017,-3.9477,-3.8681,-3.8039,0.0,0.0,0.0,0.0,-3.5004,-3.4527,-3.3807,-3.3807,-3.3807,-3.3807,-3.3807,-3.3807,-3.3807,-3.3807,-3.3807,-3.3807,-3.3788,-3.386,-3.3881,-3.3815,-3.3842,-3.3895,-3.3895,-3.2753,-3.1163,-2.961,-2.9218,-2.9229,-2.9291,-2.9302,-2.9323,-2.9386,-2.9396,-2.9396,-2.9396,-2.869,-2.7836,-2.7037,-2.6172,-2.5329,-2.4514,-2.4339,-2.4294,-2.4294,-2.4192,-2.4088,-2.4107,-2.386,-2.3795,-2.3986,-2.3996,-2.3996,-2.3996,-2.3996,-2.3996,-2.3996,-2.3996,-2.3996,-2.3996,-2.3795,-2.3692,-2.3692,-2.356,-2.3505,-2.3505,-2.3505,-2.3505,-2.6987,-2.8136,-2.8741,-2.7952,-2.7365,-2.6557,-2.4952,-2.3134,-2.1555,-2.0676,-1.9897,-1.939,-1.9479,-1.9526,-2.0335,-2.2703,-2.3051,0.0,0.0,0.0,0.0,0.0,0.0,0.0,0.0,0.0,0.0,0.0,0.0,0.0,-3.9087,-3.9178,-3.9389,-3.9739,-3.9924,-4.0027,-4.0027,-4.0215,-4.0215,-4.0027,-3.9614,-3.9143,-3.865,-3.7805,-3.725,0.0,0.0,0.0,0.0,-3.4399,-3.4027,-3.3807,-3.3807,-3.3807,-3.3807,-3.3807,-3.3807,-3.3807,-3.3807,-3.3807,-3.3807,-3.3807,-3.3802,-3.3834,-3.382,-3.386,-3.3674,-3.2518,-3.1826,-3.1084,-2.9535,-2.9123,-2.9163,-2.9218,-2.924,-2.924,-2.9262,-2.9294,-2.9334,-2.9334,-2.866,-2.7836,-2.7037,-2.6191,-2.5329,-2.4514,-2.4339,-2.4294,-2.4294,-2.4135,-2.4018,-2.3978,-2.3724,-2.3639,-2.3785,-2.3714,-2.3656,-2.3656,-2.3656,-2.3656,-2.3656,-2.3656,-2.3656,-2.3656,-2.3611,-2.356,-2.356,-2.351,-2.3505,-2.3505,-2.3505,-2.3505,0.0,-2.6282,-2.6862,-2.6649,-2.6153,-2.5346,-2.4043,-2.2483,-2.107,-2.0217,-1.9656,-1.9327,-1.9412,-1.9427,-2.0188,-2.2507,-2.2831,0.0,0.0,0.0,0.0,0.0,0.0,0.0,0.0,0.0,0.0,0.0,0.0,0.0,-3.8935,-3.8654,-3.8568,-3.8739,-3.9406,-3.96,-3.9297,-3.9458,-3.9298,-3.8809,-3.8417,-3.8045,-3.7673,-3.6781,-3.6273,0.0,0.0,0.0,0.0,-3.4009,-3.3807,-3.3807,-3.3807,-3.3807,-3.3807,-3.3807,-3.3807,-3.3807,-3.3807,-3.3807,-3.3807,-3.3807,-3.3807,-3.3807,-3.3807,-3.3815,-3.3524,-3.1868,-3.1397,-3.1029,-2.9467,-2.9055,-2.9085,-2.9163,-2.9156,-2.9167,-2.9189,-2.924,-2.9211,-2.9104,-2.8767,-2.8188,-2.7151,-2.636,-2.5541,-2.4616,-2.4182,-2.3951,-2.3951,-2.3834,-2.3707,-2.3675,-2.3479,-2.337,-2.3468,-2.3447,-2.3418,-2.3418,-2.3418,-2.3418,-2.3418,-2.3464,-2.3505,-2.3505,-2.3505,-2.3505,-2.3505,-2.3505,-2.3505,-2.3505,-2.3505,-2.3505,0.0,0.0,0.0,0.0,-2.5089,-2.3823,-2.3006,-2.163,0.0,-1.9481,-1.9297,-1.9315,-1.937,-1.9389,-1.9994,-2.185,-2.2088,0.0,0.0,0.0,0.0,0.0,0.0,0.0,0.0,0.0,0.0,0.0,0.0,0.0,-3.8707,-3.7951,-3.7492,-3.7492,-3.8652,-3.8921,-3.8188,-3.8199,-3.7779,-3.6971,-3.6938,-3.6798,-3.6538,-3.5708,-3.5171,0.0,0.0,0.0,0.0,-3.3807,-3.3807,-3.3807,-3.3807,-3.3807,-3.3807,-3.3807,-3.3807,-3.3807,-3.3807,-3.3807,-3.3807,-3.3807,-3.3807,-3.3807,-3.3807,-3.3807,-3.3458,-3.1856,-3.1397,-3.1017,-2.9427,-2.9005,-2.9017,-2.9085,-2.9078,-2.91,-2.9145,-2.9156,-2.9071,-2.8724,-2.892,-2.8705,-2.7336,-2.6639,-2.5882,-2.4783,-2.3926,-2.3403,-2.3403,-2.3318,-2.3289,-2.3301,-2.318,-2.3095,-2.3107,-2.3217,-2.3289,-2.3289,-2.3289,-2.3289,-2.3301,-2.3407,-2.3494,-2.3505,-2.3505,-2.3505,-2.3505,-2.3505,-2.3505,-2.3505,-2.3505,-2.3505,-2.1043,0.0,-2.2528,-2.2052,-2.2152,-2.2143,0.0,-2.0778,-2.0272,-1.9481,0.0,0.0,-2.0107,-2.0217,-2.0986,-2.3318,0.0,0.0,0.0,0.0,0.0,0.0,0.0,0.0,0.0,0.0,0.0,0.0,0.0,-3.8707,-3.8707,-3.7951,-3.7492,-3.7492,-3.7215,-3.7062,-3.7075,-3.7227,-3.7127,-3.6752,-3.6309,-3.5837,-3.5386,-3.476,-3.4339,0.0,0.0,0.0,-3.3807,-3.3807,-3.3807,-3.3807,-3.3807,-3.3807,-3.3807,-3.3807,-3.3807,-3.3807,-3.3807,-3.3807,-3.3807,-3.3807,-3.3807,-3.3807,-3.3807,-3.3807,-3.3458,-3.1856,-3.1397,-3.1017,-2.9427,-2.9005,-2.9005,-2.9028,-2.9028,-2.8964,-2.8791,-2.8779,-2.8713,-2.8381,-2.8415,-2.8218,-2.7261,-2.65,-2.5679,-2.4748,-2.3926,-2.3403,-2.3403,-2.3248,-2.3193,-2.3289,-2.3095,-2.2995,-2.3095,-2.3132,-2.3156,-2.3156,-2.3156,-2.3193,-2.3301,-2.3324,-2.3413,-2.3505,-2.3505,-2.3505,-2.3505,-2.3505,-2.3505,-2.3505,-2.3505,-2.3505,-1.984,-2.0858,-2.1776,-2.1667,-2.1712,-2.1684,-2.1198,0.0,0.0,0.0,0.0,0.0,0.0,0.0,0.0,0.0,0.0,0.0,0.0,0.0,0.0,0.0,0.0,0.0,0.0,0.0,0.0,0.0,0.0,-3.8138,-3.8138,-3.7019,-3.6358,-3.6358,-3.5569,-3.5395,-3.5908,-3.6023,-3.5838,-3.538,-3.5039,-3.4734,-3.4449,-3.4149,-3.3934,0.0,0.0,0.0,-3.3807,-3.3807,-3.3807,-3.3807,-3.3807,-3.3807,-3.3807,-3.3807,-3.3807,-3.3807,-3.3807,-3.3807,-3.3807,-3.3807,-3.355,-3.3256,-3.3256,-3.2999,-3.2522,-3.1654,-3.114,-3.0558,-2.9317,-2.9005,-2.9005,-2.9005,-2.9005,-2.8935,-2.8669,-2.8644,-2.8525,-2.8051,-2.8102,-2.7987,-2.7307,-2.6654,-2.5883,-2.4918,-2.4106,-2.346,-2.3109,-2.2985,-2.2927,-2.302,-2.2889,-2.2842,-2.2919,-2.2919,-2.2927,-2.299,-2.302,-2.3045,-2.3102,-2.318,-2.3265,-2.3413,-2.3471,-2.3505,-2.3505,-2.3505,-2.3505,-2.3505,-2.3505,-2.343,-1.9444,-2.0619,-2.1923,-2.2474,-2.2208,-2.1794,-2.1794,0.0,0.0,0.0,0.0,0.0,0.0,0.0,0.0,0.0,0.0,0.0,0.0,0.0,0.0,0.0,0.0,0.0,0.0,0.0,0.0,0.0,0.0,-3.7327,-3.7327,-3.583,-3.5004,-3.5004,-3.4229,-3.4137,-3.4821,-3.4821,-3.4472,-3.3807,-3.3807,-3.3807,-3.3807,-3.3807,-3.3807,-3.3807,0.0,0.0,-3.3807,-3.3807,-3.3807,-3.3807,-3.3807,-3.3807,-3.3807,-3.3807,-3.3807,-3.3807,-3.3807,-3.3807,-3.3807,-3.3807,-3.3256,-3.2601,-3.2601,-3.1953,-3.1231,-3.1231,-3.0723,-3.0008,-2.9207,-2.9005,-2.9005,-2.9005,-2.897,-2.887,-2.8589,-2.8482,-2.8299,-2.7745,-2.7811,-2.7826,-2.7392,-2.6869,-2.6173,-2.5152,-2.4319,-2.3526,-2.2785,-2.2699,-2.2699,-2.2699,-2.2699,-2.2699,-2.2699,-2.2699,-2.2751,-2.2868,-2.2881,-2.2881,-2.2906,-2.3033,-2.3168,-2.3301,-2.3407,-2.3482,-2.3505,-2.3505,-2.3482,-2.3448,-2.3448,-2.3301,-2.0126,-2.1033,-2.1647,-2.1043,-2.1345,-2.1794,-2.1794,0.0,0.0,0.0,0.0,0.0,0.0,0.0,0.0,0.0,0.0,0.0,0.0,0.0,0.0,0.0,0.0,0.0,0.0,0.0,0.0,0.0,0.0,-3.6468,-3.6468,-3.5536,-3.5004,-3.5004,-3.4229,-3.3862,-3.399,-3.399,-3.3917,-3.3807,-3.3807,-3.3807,-3.3807,-3.3807,-3.3807,-3.3807,0.0,-3.3807,-3.3807,-3.3807,-3.3807,-3.3807,-3.3807,-3.3807,-3.3807,-3.3807,-3.3807,-3.3807,-3.3807,-3.3807,-3.3807,-3.3807,-3.3256,-3.2601,-3.2601,-3.1555,-3.0375,-3.0375,-3.0301,-3.0008,-2.9207,-2.9005,-2.9005,-2.9005,-2.8834,-2.8576,-2.8255,-2.7996,-2.7745,-2.7421,-2.739,-2.739,-2.7313,-2.669,-2.591,-2.5109,-2.4319,-2.3526,-2.2785,-2.2699,-2.2699,-2.2699,-2.2699,-2.2699,-2.2699,-2.2699,-2.2712,-2.2725,-2.2725,-2.2777,-2.2906,-2.3033,-2.3168,-2.3301,-2.3313,-2.3401,-2.3505,-2.3505,-2.3383,-2.3168,-2.3168,-2.3028,-1.9098,-2.0126,-2.1106,-2.118,-2.1822,-2.2446,-2.2446,0.0,0.0,0.0,0.0,0.0,0.0,0.0,0.0,0.0,0.0,0.0,0.0,0.0,0.0,0.0,0.0,0.0,0.0,0.0,0.0,0.0,0.0,0.0,-3.5591,-3.4802,-3.4344,-3.4344,-3.399,-3.3807,-3.3807,-3.3807,-3.3807,-3.3807,-3.3807,-3.3807,-3.3807,-3.3807,-3.3807,-3.3807,0.0,-3.3807,-3.3807,-3.3807,-3.3807,-3.3807,-3.3807,-3.3807,-3.3807,-3.3807,-3.3807,-3.3807,-3.3807,-3.3532,-3.3146,-3.3146,-3.2307,-3.1311,-3.1311,-3.0473,-2.9537,-2.9537,-2.9537,-2.9464,-2.9097,-2.9005,-2.9005,-2.9005,-2.881,-2.8507,-2.817,-2.7883,-2.763,-2.736,-2.7299,-2.7299,-2.7299,-2.6988,-2.6488,-2.5712,-2.4939,-2.4163,-2.3388,-2.294,-2.2699,-2.2699,-2.306,-2.3129,-2.2733,-2.3078,-2.3129,-2.2733,-2.2699,-2.2725,-2.279,-2.2932,-2.3033,-2.3077,-2.3229,-2.3324,-2.3383,-2.3283,-2.3187,-2.3077,-2.2879,-2.2656,-1.8559,-1.9428,-2.0511,-2.1767,0.0,-2.3318,-2.3529,0.0,0.0,0.0,0.0,0.0,0.0,0.0,0.0,0.0,0.0,0.0,0.0,0.0,0.0,0.0,0.0,0.0,0.0,0.0,0.0,0.0,0.0,0.0,-3.4729,-3.4137,-3.3807,-3.3807,-3.3807,-3.3807,-3.3807,-3.3807,-3.3807,-3.3807,-3.3807,-3.3807,-3.3807,-3.3807,-3.3807,-3.3807,-3.3807,-3.3807,-3.3807,-3.3807,-3.3807,-3.3807,-3.3807,-3.3807,-3.3807,-3.3807,-3.3807,-3.3807,-3.3807,-3.3275,-3.2601,-3.2601,-3.15,-3.0198,-3.0137,-2.9581,-2.8964,-2.8827,-2.8858,-2.8917,-2.8982,-2.894,-2.8905,-2.8905,-2.8688,-2.8404,-2.8093,-2.78,-2.7557,-2.7345,-2.7299,-2.7299,-2.7299,-2.7299,-2.7023,-2.6214,-2.5626,-2.4974,-2.4181,-2.3595,-2.3233,-2.3233,-2.375,-2.3784,-2.3026,-2.3319,-2.3302,-2.2733,-2.2699,-2.2699,-2.2699,-2.2803,-2.2881,-2.2906,-2.3052,-2.3168,-2.3205,-2.2968,-2.2867,-2.2859,-2.2533,-2.2289,-1.9876,-1.9877,-1.995,-2.2309,-2.3529,0.0,-2.5062,-2.5172,0.0,-2.6098,0.0,0.0,0.0,0.0,0.0,0.0,0.0,0.0,0.0,0.0,0.0,0.0,0.0,0.0,0.0,0.0,0.0,0.0,0.0,0.0,-3.3899,-3.3825,-3.3807,-3.3807,-3.3807,-3.3807,-3.3807,-3.3807,-3.3807,-3.3807,-3.3807,-3.3807,-3.3807,-3.3807,-3.3807,-3.3807,-3.3807,-3.3807,-3.3807,-3.3807,-3.3807,-3.3807,-3.3807,-3.3807,-3.3807,-3.3807,-3.3807,-3.3807,-3.3807,-3.3275,-3.2601,-3.2601,-3.15,-3.0143,-2.9906,-2.9448,-2.8893,-2.8316,-2.8386,-2.8694,-2.8947,-2.8822,-2.8644,-2.8644,-2.8373,-2.8061,-2.7786,-2.7526,-2.7313,-2.7297,-2.7299,-2.7299,-2.7299,-2.7299,-2.7023,-2.6214,-2.6042,-2.5749,-2.5023,-2.4867,-2.4833,-2.4833,-2.4885,-2.4591,-2.3802,-2.3147,-2.275,-2.2699,-2.2699,-2.2699,-2.2699,-2.2712,-2.2777,-2.2906,-2.2747,-2.273,-2.2932,-2.2603,-2.2358,-2.2181,-2.2082,-2.1926,-1.8491,-1.9423,-2.0409,-2.1877,-2.3612,0.0,0.0,-2.5797,-2.6374,-2.7181,-2.775,0.0,0.0,0.0,0.0,0.0,0.0,0.0,0.0,0.0,0.0,0.0,0.0,0.0,0.0,0.0,0.0,0.0,0.0,0.0,-3.3807,-3.3807,-3.3807,-3.3807,-3.3807,-3.3807,-3.3807,-3.3807,-3.3807,-3.3807,-3.3807,-3.3807,-3.3807,-3.3807,-3.3807,-3.3807,-3.3807,-3.3807,-3.3807,-3.3807,-3.3807,-3.3807,-3.3807,-3.3807,-3.3807,-3.3807,-3.3807,-3.3807,-3.3807,-3.2944,-3.1843,-3.1843,-3.0643,-2.9198,-2.908,-2.8773,-2.8399,-2.817,-2.8079,-2.811,-2.8373,-2.8373,-2.8295,-2.8295,-2.8047,-2.7811,-2.773,-2.7481,-2.7299,-2.7299,-2.7299,-2.7299,-2.7299,-2.7299,-2.7195,-2.6885,-2.6419,-2.599,-2.573,-2.5281,-2.5005,-2.5005,-2.5005,-2.4663,-2.3871,-2.3543,-2.3198,-2.2733,-2.2699,-2.2699,-2.2699,-2.2699,-2.2725,-2.2777,-2.2651,-2.2638,-2.2703,-2.2292,-2.2068,-2.2025,-2.1764,-2.1631,-1.7943,-1.9247,-2.0675,-2.178,0.0,0.0,-2.598,-2.6576,-2.7273,-2.8338,0.0,0.0,0.0,0.0,0.0,0.0,0.0,0.0,0.0,0.0,0.0,0.0,0.0,0.0,0.0,0.0,0.0,0.0,0.0,0.0,0.0,-3.3807,-3.3807,-3.3807,-3.3807,-3.3807,-3.3807,-3.3807,-3.3807,-3.3807,-3.3807,-3.3807,-3.3807,-3.3807,-3.3807,-3.3807,-3.3807,-3.3807,-3.3807,-3.3807,-3.3807,-3.3807,-3.3807,-3.3807,-3.3807,-3.3807,-3.3642,-3.3421,-3.3421,-3.2375,-3.1005,-3.0912,-2.986,-2.8563,-2.8365,-2.8215,-2.8061,-2.7897,-2.7771,-2.7713,-2.7829,-2.7911,-2.7964,-2.7964,-2.7826,-2.7672,-2.76,-2.7436,-2.7299,-2.7299,-2.7299,-2.7299,-2.7299,-2.7299,-2.7299,-2.7299,-2.6833,-2.6488,-2.6488,-2.604,-2.573,-2.573,-2.5414,-2.4994,-2.4462,-2.4101,-2.3596,-2.2859,-2.2839,-2.2764,-2.2609,-2.2623,-2.2565,-2.248,-2.2368,-2.234,-2.2354,-2.1911,-2.1751,-2.1809,-2.1509,-2.1433,-1.8725,-1.9498,-2.0598,0.0,0.0,0.0,-2.7255,-2.7824,-2.8282,0.0,0.0,0.0,0.0,0.0,0.0,0.0,0.0,0.0,0.0,0.0,0.0,0.0,0.0,0.0,0.0,0.0,0.0,0.0,0.0,0.0,0.0,-3.3807,-3.3807,-3.3807,-3.3807,-3.3807,-3.3807,-3.3807,-3.3807,-3.3807,-3.3807,-3.3807,-3.3807,-3.3807,-3.3807,-3.3807,-3.3807,-3.3807,-3.3807,-3.3807,-3.3788,-3.3788,-3.3807,-3.3788,-3.3788,-3.3788,-3.3293,-3.2601,-3.2583,-3.1537,-3.0143,-2.9893,-2.9241,-2.8487,-2.7872,-2.7883,-2.7978,-2.7452,-2.7496,-2.7627,-2.7376,-2.7496,-2.7701,-2.7701,-2.7701,-2.7612,-2.736,-2.7299,-2.7299,-2.7299,-2.7299,-2.7299,-2.7299,-2.7299,-2.7299,-2.7299,-2.7299,-2.7299,-2.7299,-2.7299,-2.7282,-2.7282,-2.634,-2.5705,-2.5688,-2.4774,-2.3877,-2.3138,-2.3088,-2.2891,-2.2411,-2.2391,-2.2276,-2.2013,-2.1812,-2.1723,-2.1812,-2.1464,-2.134,-2.1402,-2.1324,-2.134,-1.8725,-1.98,0.0,0.0,0.0,0.0,0.0,-2.8955,0.0,0.0,0.0,0.0,0.0,0.0,0.0,0.0,0.0,0.0,0.0,0.0,0.0,0.0,0.0,0.0,0.0,0.0,0.0,0.0,0.0,0.0,0.0,-3.3807,-3.3807,-3.3807,-3.3807,-3.3807,-3.3807,-3.3753,-3.3726,-3.3726,-3.3684,-3.3712,-3.3807,-3.3807,-3.3807,-3.3807,-3.3807,-3.3807,-3.3807,-3.3753,-3.341,-3.2933,-3.3465,-3.331,-3.283,-3.287,-3.2724,-3.2462,-3.194,-3.1047,-3.0076,-2.9756,-2.8968,-2.8051,-2.7728,-2.7519,-2.7367,-2.7198,-2.7279,-2.739,-2.72,-2.7279,-2.7421,-2.7421,-2.7421,-2.739,-2.733,-2.7299,-2.7299,-2.7299,-2.7299,-2.7299,-2.7299,-2.7299,-2.7299,-2.7299,-2.7299,-2.7299,-2.7299,-2.7087,-2.6752,-2.6224,-2.6184,-2.5765,-2.4741,-2.4845,-2.4444,-2.3172,-2.3088,-2.2798,-2.2149,-2.2115,-2.207,-2.2013,-2.1812,-2.1724,-2.1723,-2.1433,-2.1309,-2.1324,-2.1309,-2.1309,-1.9265,0.0,0.0,0.0,0.0,0.0,0.0,0.0,0.0,0.0,0.0,0.0,0.0,0.0,0.0,0.0,0.0,0.0,0.0,0.0,0.0,0.0,0.0,0.0,0.0,0.0,0.0,0.0,0.0,0.0,0.0,-3.3807,-3.3807,-3.3807,-3.378,-3.3766,-3.3766,-3.3684,-3.3657,-3.3657,-3.3633,-3.3629,-3.3726,-3.3753,-3.3753,-3.3707,-3.3423,-3.3106,-3.2795,-3.276,-3.2454,-3.2025,-3.2465,-3.2342,-3.1936,-3.1963,-3.1775,-3.1415,-3.0852,-3.009,-2.931,-2.8863,-2.8248,-2.7666,-2.743,-2.7214,-2.7071,-2.7071,-2.7121,-2.717,-2.7071,-2.7121,-2.7202,-2.7283,-2.7299,-2.7299,-2.7299,-2.7299,-2.7299,-2.7299,-2.7299,-2.7299,-2.7299,-2.7299,-2.7299,-2.7299,-2.7299,-2.7299,-2.7299,-2.7023,-2.6638,-2.6179,-2.6202,-2.5877,-2.4995,-2.5225,-2.4909,-2.3736,-2.3654,-2.3208,-2.2199,-2.1975,-2.1823,-2.172,-2.1601,-2.1526,-2.1526,-2.1371,-2.1293,-2.1293,-2.1293,-2.1293,-2.0036,0.0,0.0,0.0,0.0,0.0,0.0,0.0,0.0,0.0,0.0,0.0,0.0,0.0,0.0,0.0,0.0,0.0,0.0,0.0,0.0,0.0,0.0,0.0,0.0,0.0,0.0,0.0,0.0,0.0,0.0,-3.3683,-3.3647,-3.3573,-3.3506,-3.3465,-3.3465,-3.3414,-3.3372,-3.3372,-3.3372,-3.3372,-3.3372,-3.3511,-3.3511,-3.3332,-3.2657,-3.1965,-3.1289,-3.1289,-3.1208,-3.1084,-3.1117,-3.1099,-3.1013,-3.1,-3.0532,-2.9875,-2.9467,-2.8869,-2.8166,-2.7572,-2.7396,-2.7334,-2.7071,-2.6975,-2.6975,-2.6975,-2.7008,-2.6991,-2.6975,-2.7008,-2.7057,-2.7218,-2.7283,-2.7282,-2.7299,-2.7282,-2.7282,-2.7282,-2.7282,-2.7282,-2.7282,-2.7282,-2.7299,-2.7299,-2.7299,-2.7299,-2.725,-2.6957,-2.6741,-2.6724,-2.6261,-2.5956,-2.5956,-2.5749,-2.5292,-2.4549,-2.45,-2.3901,-2.2556,-2.2017,-2.1623,-2.1325,-2.1293,-2.1293,-2.1293,-2.1293,-2.1293,-2.1293,-2.1293,-2.1293,0.0,-2.1267,0.0,0.0,0.0,0.0,0.0,0.0,0.0,0.0,0.0,0.0,0.0,0.0,0.0,0.0,0.0,0.0,0.0,0.0,0.0,0.0,0.0,0.0,0.0,0.0,0.0,0.0,0.0,0.0,-3.273,-3.2693,-3.2401,-3.1775,-3.1743,-3.173,-3.173,-3.1682,-3.1642,0.0,-3.1574,-3.1565,-3.1565,-3.2338,-3.2319,-3.1717,-3.1548,-3.1383,-3.1219,-3.1154,-3.075,-3.022,-3.053,-3.0255,-2.9703,-2.9533,-2.9368,-2.9123,-2.8472,-2.8092,-2.7837,-2.7454,-2.7305,-2.7197,-2.6991,-2.6926,-2.6926,-2.6926,-2.6959,-2.6975,-2.6942,-2.6959,-2.7007,-2.704,-2.7104,-2.7168,-2.7282,-2.7217,-2.7135,-2.7135,-2.7135,-2.7135,-2.7135,-2.7233,-2.7299,-2.7299,-2.7299,-2.7201,-2.694,-2.6657,-2.6401,-2.619,-2.5881,-2.5675,-2.5675,-2.5635,-2.5292,-2.4549,-2.45,-2.4128,-2.3301,-2.2622,-2.194,-2.1309,-2.1293,-2.1293,-2.1293,-2.1293,-2.1293,-2.1293,-2.1293,-2.1293,0.0,0.0,0.0,0.0,0.0,0.0,0.0,0.0,0.0,0.0,0.0,0.0,0.0,0.0,0.0,0.0,0.0,0.0,0.0,0.0,0.0,0.0,0.0,0.0,0.0,0.0,0.0,0.0,0.0,-3.324,-3.2434,-3.2397,-3.2032,-3.1224,-3.1167,-3.1154,-3.1154,-3.1093,-3.1052,-3.1052,-3.1012,-3.0799,-3.0455,-3.1334,-3.1243,-3.0377,-3.0337,-3.004,-2.957,-2.9534,-2.9259,-2.8868,-2.9094,-2.89,-2.8531,-2.8414,-2.837,-2.8302,-2.7747,-2.7532,-2.7474,-2.7115,-2.6988,-2.694,-2.6842,-2.6792,-2.6792,-2.6792,-2.6825,-2.6859,-2.6809,-2.6825,-2.6875,-2.6925,-2.7007,-2.7071,-2.7154,-2.7105,-2.7055,-2.7055,-2.7055,-2.7055,-2.7055,-2.7153,-2.7233,-2.7282,-2.725,-2.707,-2.6691,-2.6385,-2.612,-2.5866,-2.5621,-2.5502,-2.5597,-2.5597,-2.5382,-2.4903,-2.4961,-2.4673,-2.3871,-2.3556,-2.2912,-2.1859,-2.1843,-2.1665,-2.1293,-2.1293,-2.1293,-2.1293,-2.1293,-2.1293,0.0,0.0,0.0,0.0,0.0,0.0,0.0,0.0,0.0,0.0,0.0,0.0,0.0,0.0,0.0,0.0,0.0,0.0,0.0,0.0,0.0,0.0,0.0,0.0,0.0,0.0,0.0,0.0,0.0,-3.2795,-3.1906,-3.1851,-3.1488,-3.0683,-3.067,-3.0675,-3.0675,-3.0608,-3.0586,-3.0586,-3.0586,-3.0211,-2.9524,-3.0207,-3.0049,-2.9246,-2.9154,-2.8614,-2.7783,-2.7783,-2.7757,-2.7683,-2.7642,-2.7609,-2.7612,-2.755,-2.7519,-2.7489,-2.7213,-2.7117,-2.7069,-2.6791,-2.6691,-2.6691,-2.6691,-2.6691,-2.6691,-2.6691,-2.6691,-2.6691,-2.6691,-2.6691,-2.6742,-2.6842,-2.6909,-2.6958,-2.6991,-2.6975,-2.6975,-2.6975,-2.6975,-2.6992,-2.6991,-2.699,-2.7022,-2.7121,-2.6989,-2.6741,-2.6368,-2.6068,-2.5797,-2.5607,-2.5394,-2.5333,-2.554,-2.5559,-2.5467,-2.5314,-2.5464,-2.5209,-2.4412,-2.4565,-2.4042,-2.2782,-2.2523,-2.2102,-2.1487,-2.1358,-2.1293,-2.1293,-2.1293,-2.1293,0.0,0.0,0.0,0.0,0.0,0.0,0.0,0.0,0.0,0.0,0.0,0.0,0.0,0.0,0.0,0.0,0.0,0.0,0.0,0.0,0.0,0.0,0.0,0.0,0.0,0.0,0.0,0.0,-3.1655,-3.0985,-2.9772,-2.9715,-2.9357,-2.8537,-2.8799,-2.892,-2.892,-2.8907,-2.8925,-2.8925,-2.8925,-2.8719,-2.8331,-2.8438,-2.8407,-2.8272,-2.8028,-2.7848,-2.7698,-2.7698,-2.7716,-2.7672,-2.7384,-2.726,-2.7228,-2.6939,-2.6841,-2.6841,-2.6775,-2.6775,-2.6758,-2.6708,-2.6691,-2.6691,-2.6691,-2.6691,-2.6691,-2.6691,-2.6691,-2.6691,-2.6691,-2.6691,-2.6691,-2.6725,-2.6725,-2.6792,-2.6958,-2.6942,-2.6909,-2.6909,-2.6909,-2.6926,-2.6975,-2.6708,-2.6504,-2.6504,-2.6211,-2.5873,-2.5577,-2.55,-2.5384,-2.5107,-2.5064,-2.5103,-2.5314,-2.5333,-2.5333,-2.5294,-2.5333,-2.5285,-2.515,-2.5189,-2.4898,-2.4223,-2.3009,-2.2345,-2.2248,-2.1601,-2.1293,-2.1293,-2.1293,-2.1293,0.0,0.0,0.0,0.0,0.0,0.0,0.0,0.0,0.0,0.0,0.0,0.0,0.0,0.0,0.0,0.0,0.0,0.0,0.0,0.0,0.0,0.0,0.0,0.0,0.0,0.0,0.0,0.0,-3.0638,-3.0129,-2.9136,-2.9083,-2.8697,-2.7886,-2.8014,-2.8101,-2.8101,-2.8101,-2.8101,-2.8101,-2.8101,-2.8014,-2.7869,-2.7681,-2.7607,-2.7592,-2.7474,-2.7305,-2.7148,-2.7148,-2.7148,-2.7132,-2.6989,-2.6923,-2.6907,-2.6758,-2.6691,-2.6691,-2.6691,-2.6691,-2.6691,-2.6691,-2.6691,-2.6691,-2.6691,-2.6691,-2.6691,-2.6691,-2.6691,-2.6691,-2.6691,-2.6691,-2.6691,-2.6691,-2.6691,-2.6708,-2.6808,-2.6809,-2.6792,-2.6792,-2.6792,-2.6759,-2.664,-2.6452,-2.6279,-2.6087,-2.5872,-2.5612,-2.5269,-2.5173,-2.5036,-2.4791,-2.4786,-2.4866,-2.5103,-2.5123,-2.5064,-2.4926,-2.5045,-2.5064,-2.4926,-2.5045,-2.5077,-2.4946,-2.4041,-2.3187,-2.2394,-2.207,-2.1698,-2.1293,-2.1293,-2.1198,0.0,0.0,0.0,0.0,0.0,0.0,0.0,0.0,0.0,0.0,0.0,0.0,0.0,0.0,0.0,0.0,0.0,0.0,0.0,0.0,0.0,0.0,0.0,0.0,0.0,0.0,0.0,0.0,-2.956,-2.9212,-2.8522,-2.8469,-2.8192,-2.76,-2.7657,-2.7701,-2.7701,-2.7701,-2.7701,-2.7701,-2.7701,-2.7657,-2.755,-2.7322,-2.7149,-2.7069,-2.7069,-2.694,-2.6691,-2.6691,-2.6691,-2.6691,-2.6691,-2.6691,-2.6691,-2.6691,-2.6691,-2.6691,-2.6691,-2.6691,-2.6691,-2.6691,-2.6691,-2.6691,-2.6691,-2.6691,-2.6691,-2.6691,-2.6691,-2.6691,-2.6691,-2.6691,-2.6691,-2.6691,-2.6691,-2.6691,-2.6691,-2.6691,-2.6691,-2.6691,-2.6624,-2.647,-2.6279,-2.6083,-2.5852,-2.5617,-2.5427,-2.523,-2.4934,-2.4815,-2.4679,-2.4549,-2.4528,-2.463,-2.4886,-2.4906,-2.4811,-2.4609,-2.4786,-2.4806,-2.4609,-2.4791,-2.5005,-2.5217,-2.4826,-2.4033,-2.286,-2.2328,-2.1956,-2.1746,-2.1488,-2.1341,0.0,0.0,0.0,0.0,0.0,0.0,0.0,0.0,0.0,0.0,0.0,0.0,0.0,0.0,0.0,0.0,0.0,0.0,0.0,0.0,0.0,0.0,0.0,0.0,0.0,0.0,0.0,0.0,-2.8101,-2.7726,-2.7316,-2.7297,-2.728,-2.7228,-2.7519,-2.7701,-2.7701,-2.7701,-2.7701,-2.7701,-2.7701,-2.7519,-2.7228,-2.7213,-2.7021,-2.6725,-2.6725,-2.6708,-2.6691,-2.6691,-2.6691,-2.6691,-2.6691,-2.6691,-2.6691,-2.6691,-2.6691,-2.6691,-2.6691,-2.6691,-2.6691,-2.6691,-2.6691,-2.6691,-2.6691,-2.6691,-2.6691,-2.6691,-2.6691,-2.6691,-2.6691,-2.6691,-2.6691,-2.6691,-2.6691,-2.6691,-2.6691,-2.6691,-2.6691,-2.6691,-2.6385,-2.6139,-2.6122,-2.5484,-2.4962,-2.4962,-2.4619,-2.4364,-2.4343,-2.4343,-2.4323,-2.4317,-2.4317,-2.4405,-2.4609,-2.463,-2.4609,-2.4609,-2.4609,-2.4609,-2.4609,-2.4609,-2.4746,-2.5005,-2.4993,-2.469,-2.4092,-2.2128,-2.1807,-2.2986,-2.1951,-2.1909,0.0,0.0,0.0,0.0,0.0,0.0,0.0,0.0,0.0,0.0,0.0,0.0,0.0,0.0,0.0,0.0,0.0,0.0,0.0,0.0,0.0,0.0,0.0,0.0,0.0,0.0,0.0,0.0,0.0,-2.7029,-2.6891,-2.6874,-2.6874,-2.6874,-2.6988,-2.7052,-2.7052,-2.7052,-2.7052,-2.7052,-2.7052,-2.7005,-2.6874,-2.6874,-2.6808,-2.6691,-2.6691,-2.6691,-2.6691,-2.6691,-2.6691,-2.6691,-2.6691,-2.6691,-2.6691,-2.6691,-2.6691,-2.6691,-2.6691,-2.6691,-2.6691,-2.6691,-2.6691,-2.6691,-2.6691,-2.6691,-2.6691,-2.6691,-2.6691,-2.6691,-2.6691,-2.6691,-2.6691,-2.6691,-2.6691,-2.6691,-2.6691,-2.6691,-2.6691,-2.6691,-2.6384,-2.6016,-2.5762,-2.5256,-2.4803,-2.4553,-2.4405,-2.4302,-2.4302,-2.4302,-2.4302,-2.4302,-2.4302,-2.4323,-2.4405,-2.4405,-2.4405,-2.4405,-2.4405,-2.4405,-2.4405,-2.4405,-2.4508,-2.4746,-2.4073,-2.3596,-2.3353,-2.2625,-2.2258,-2.2253,-2.165,-2.1682,0.0,0.0,0.0,0.0,0.0,0.0,0.0,0.0,0.0,0.0,0.0,0.0,0.0,0.0,0.0,0.0,0.0,0.0,0.0,0.0,0.0,0.0,0.0,0.0,0.0,0.0,0.0,0.0,0.0,0.0,-2.6691,-2.6691,-2.6691,-2.6691,-2.6691,-2.6691,-2.6691,-2.6691,-2.6691,-2.6691,-2.6691,-2.6691,-2.6691,-2.6691,-2.6691,-2.6691,-2.6691,-2.6691,-2.6691,-2.6691,-2.6691,-2.6691,-2.6691,-2.6691,-2.6691,-2.6691,-2.6691,-2.6691,-2.6691,-2.6691,-2.6691,-2.6691,-2.6691,-2.6691,-2.6691,-2.6691,-2.6691,-2.6691,-2.6691,-2.6691,-2.6691,-2.6691,-2.6691,-2.6691,-2.6607,-2.6505,-2.6505,-2.659,-2.6691,-2.6691,-2.6263,-2.5817,-2.5559,-2.5044,-2.4614,-2.4343,-2.4302,-2.4302,-2.4302,-2.4302,-2.4302,-2.4302,-2.4302,-2.4302,-2.4302,-2.4302,-2.4302,-2.4302,-2.4302,-2.4302,-2.4302,-2.4302,-2.4364,-2.4487,-2.38,-2.3159,-2.2568,-2.2263,-2.2117,-2.2084,-2.1481,-2.1553,0.0,0.0,0.0,0.0,0.0,0.0,0.0,0.0,0.0,0.0,0.0,0.0,0.0,0.0,0.0,0.0,0.0,0.0,0.0,0.0,0.0,0.0,0.0,0.0,0.0,0.0,0.0,0.0,-2.6691,-2.6691,-2.6691,-2.6691,-2.6691,-2.6691,-2.6691,-2.6691,-2.6691,-2.6691,-2.6691,-2.6691,-2.6691,-2.6691,-2.6691,-2.6691,-2.6691,-2.6691,-2.6691,-2.6691,-2.6691,-2.6691,-2.6691,-2.6691,-2.6691,-2.6691,-2.6691,-2.6691,-2.6691,-2.6691,-2.6691,-2.6691,-2.6691,-2.6691,-2.6691,-2.6691,-2.6691,-2.6691,-2.6691,-2.6691,-2.6691,-2.6691,-2.6691,-2.6674,-2.6674,-2.6674,-2.6384,-2.607,-2.607,-2.6401,-2.6674,-2.6674,-2.6016,-2.5484,-2.5484,-2.4823,-2.4302,-2.4302,-2.4302,-2.4302,-2.4302,-2.4302,-2.4302,-2.4302,-2.4302,-2.4302,-2.4302,-2.4302,-2.4302,-2.4302,-2.4302,-2.4302,-2.4302,-2.4302,-2.4302,-2.4302,-2.4281,-2.3478,-2.1911,-2.106,-2.1316,-2.2619,-2.1559,-2.1679,-1.4791,0.0,0.0,0.0,0.0,0.0,0.0,0.0,0.0,0.0,0.0,0.0,0.0,0.0,0.0,0.0,0.0,0.0,0.0,0.0,0.0,0.0,0.0,0.0,0.0,0.0,0.0,0.0,-2.6691,-2.6691,-2.6691,-2.6691,-2.6691,-2.6691,-2.6691,-2.6691,-2.6691,-2.6691,-2.6691,-2.6691,-2.6691,-2.6691,-2.6691,-2.6691,-2.6691,-2.6691,-2.6691,-2.6691,-2.6691,-2.6691,-2.6691,-2.6691,-2.6691,-2.6691,-2.6691,-2.6691,-2.6691,-2.6691,-2.6691,-2.6691,-2.6691,-2.6691,-2.6691,-2.6691,-2.6691,-2.6691,-2.6691,-2.6691,-2.6691,-2.6641,-2.6333,-2.6263,-2.6192,-2.589,-2.5744,-2.567,-2.567,-2.5762,-2.5835,-2.5835,-2.5427,-2.5079,-2.5079,-2.4639,-2.4302,-2.4302,-2.4302,-2.4302,-2.4302,-2.4302,-2.4302,-2.4302,-2.4302,-2.4302,-2.4302,-2.4302,-2.4302,-2.4302,-2.4302,-2.4302,-2.4302,-2.4302,-2.4302,-2.4302,-2.3824,-2.3127,-2.2194,-2.1754,-2.1599,-2.1697,-2.2169,-2.2414,0.0,0.0,0.0,0.0,0.0,0.0,0.0,-1.9384,0.0,0.0,0.0,0.0,0.0,0.0,0.0,0.0,0.0,0.0,0.0,0.0,0.0,0.0,0.0,0.0,0.0,-2.6691,-2.6691,-2.6691,-2.6691,-2.6573,-2.6251,-2.6234,-2.6099,-2.5794,-2.5794,-2.5794,-2.5794,-2.5794,-2.5794,-2.5794,-2.5794,-2.593,-2.6234,-2.6234,-2.6404,-2.6691,-2.6691,-2.6691,-2.6691,-2.6691,-2.6691,-2.6691,-2.6691,-2.6691,-2.6691,-2.6691,-2.6691,-2.6691,-2.6691,-2.6691,-2.6691,-2.6691,-2.6691,-2.6691,-2.6691,-2.6691,-2.6691,-2.6691,-2.6573,-2.635,-2.5944,-2.5854,-2.5799,-2.5559,-2.537,-2.5237,-2.5237,-2.5121,-2.5102,-2.5427,-2.5195,-2.4902,-2.4902,-2.4574,-2.4302,-2.4302,-2.4302,-2.4302,-2.4302,-2.4302,-2.4302,-2.4302,-2.4302,-2.4302,-2.4302,-2.4302,-2.4302,-2.4302,-2.4302,-2.4302,-2.4302,-2.4302,-2.4219,-2.4094,-2.3711,-2.3044,-2.2088,-2.18,-2.1541,-2.131,-2.2203,-2.254,0.0,0.0,0.0,0.0,0.0,0.0,-2.0107,-1.9701,-1.9553,0.0,0.0,0.0,0.0,0.0,0.0,0.0,0.0,0.0,0.0,0.0,0.0,0.0,0.0,0.0,-2.6691,-2.6623,-2.6573,-2.6573,-2.6488,-2.6167,-2.5507,-2.549,-2.5169,-2.4508,-2.4491,-2.4491,-2.4491,-2.4491,-2.4491,-2.4491,-2.4491,-2.4846,-2.549,-2.5559,-2.5964,-2.6573,-2.6657,-2.6691,-2.6691,-2.6691,-2.6691,-2.6691,-2.6691,-2.6691,-2.6691,-2.6691,-2.6691,-2.6691,-2.6691,-2.6691,-2.6691,-2.6691,-2.6691,-2.6691,-2.6691,-2.6691,-2.6691,-2.6657,-2.6333,-2.5944,-2.554,-2.5427,-2.5427,-2.5389,-2.5082,-2.4823,-2.4803,-2.4533,-2.4492,-2.5218,-2.5063,-2.4823,-2.4823,-2.4533,-2.4302,-2.4302,-2.4302,-2.4302,-2.4302,-2.4302,-2.4302,-2.4302,-2.4302,-2.4302,-2.4302,-2.4302,-2.4302,-2.4302,-2.4302,-2.4281,-2.424,-2.424,-2.4094,-2.3754,-2.3696,-2.3074,-2.1852,-2.1486,-2.1316,-2.1316,-2.1912,-2.2254,-1.8707,0.0,0.0,0.0,0.0,0.0,-1.7585,-1.7794,-1.8341,0.0,0.0,0.0,0.0,0.0,0.0,0.0,0.0,0.0,0.0,0.0,0.0,0.0,0.0,0.0,-2.664,-2.6167,-2.5812,-2.5812,-2.5253,-2.4863,-2.4728,-2.4711,-2.4643,-2.4491,-2.4491,-2.4491,-2.4491,-2.4491,-2.4491,-2.4491,-2.4491,-2.4575,-2.4728,-2.5338,-2.5693,-2.5862,-2.6437,-2.6691,-2.6691,-2.664,-2.6657,-2.6691,-2.6691,-2.6691,-2.6691,-2.6691,-2.6691,-2.6691,-2.6691,-2.6691,-2.6691,-2.6691,-2.6691,-2.6691,-2.6691,-2.6691,-2.6641,-2.6298,-2.5926,-2.5521,-2.5121,-2.502,-2.4942,-2.4599,-2.4472,-2.4405,-2.4359,-2.4271,-2.4271,-2.4421,-2.4426,-2.4426,-2.4426,-2.4343,-2.4302,-2.4302,-2.4302,-2.4302,-2.4302,-2.4302,-2.4302,-2.4302,-2.4302,-2.4302,-2.4302,-2.4302,-2.4302,-2.4302,-2.4302,-2.4177,-2.3925,-2.3903,-2.3754,-2.3407,-2.3068,-2.2637,-2.2117,-2.1578,-2.1316,-2.1316,-2.1912,-2.2208,0.0,0.0,0.0,-1.9672,0.0,0.0,0.0,-1.8635,-1.8775,-2.0297,0.0,0.0,0.0,0.0,0.0,0.0,0.0,0.0,0.0,0.0,0.0,0.0,0.0,0.0,-2.5574,-2.5269,-2.505,-2.505,-2.4711,-2.4338,-2.3966,-2.3949,-2.378,-2.341,-2.3393,-2.3393,-2.3393,-2.3393,-2.3393,-2.3393,-2.3393,-2.3596,-2.3966,-2.4323,-2.4695,-2.5084,-2.5796,-2.61,-2.6117,-2.6421,-2.6572,-2.6606,-2.664,-2.6674,-2.6691,-2.6691,-2.6691,-2.6657,-2.6657,-2.6623,-2.6589,-2.6589,-2.6589,-2.6589,-2.6589,-2.6487,-2.6261,-2.587,-2.55,-2.5102,-2.4659,-2.4549,-2.4472,-2.4198,-2.4151,-2.4151,-2.4103,-2.4103,-2.4103,-2.4103,-2.413,-2.4193,-2.4281,-2.4302,-2.4302,-2.4302,-2.4302,-2.4302,-2.4302,-2.4302,-2.4302,-2.4302,-2.4302,-2.4302,-2.4302,-2.4302,-2.4302,-2.4302,-2.4135,-2.3988,-2.3818,-2.3646,-2.337,-2.3016,-2.264,-2.2379,-2.2208,-2.1898,-2.1744,-2.1758,-2.2067,-2.2208,0.0,0.0,0.0,0.0,0.0,-2.0707,0.0,0.0,0.0,-2.1488,0.0,0.0,0.0,0.0,0.0,0.0,0.0,0.0,0.0,0.0,0.0,0.0,0.0,0.0,0.0,-2.4101,-2.3915,-2.4068,-2.3797,-2.3509,-2.319,-2.319,-2.2919,-2.2313,-2.2296,-2.2296,-2.2296,-2.2296,-2.2296,-2.2282,-2.2282,-2.2572,-2.3129,-2.3281,-2.3684,-2.4292,-2.4973,-2.5277,-2.5311,-2.5983,-2.6267,-2.6301,-2.6487,-2.6606,-2.6657,-2.6657,-2.6623,-2.6589,-2.6589,-2.6502,-2.6364,-2.6364,-2.6312,-2.6241,-2.6241,-2.601,-2.5663,-2.5329,-2.5001,-2.4639,-2.4255,-2.4145,-2.4124,-2.4024,-2.4003,-2.3982,-2.3982,-2.3961,-2.3961,-2.3961,-2.3961,-2.4046,-2.424,-2.4276,-2.4297,-2.4302,-2.4302,-2.4302,-2.4302,-2.4297,-2.4297,-2.4302,-2.4297,-2.4297,-2.4302,-2.4302,-2.4302,-2.4302,-2.3988,-2.376,-2.3711,-2.3319,-2.2949,-2.2618,-2.2333,-2.2208,-2.2208,-2.2208,-2.2208,-2.2208,-2.2208,-2.2208,0.0,0.0,0.0,0.0,-2.2598,0.0,0.0,0.0,-2.0792,-2.0279,0.0,0.0,0.0,0.0,0.0,0.0,0.0,0.0,0.0,0.0,0.0,0.0,0.0,0.0,0.0,-2.273,-2.185,-2.2499,-2.1282,-2.1079,-2.2347,-2.2415,-2.2381,-2.2296,-2.2296,-2.2296,-2.2296,-2.2296,-2.2268,-2.2214,-2.2214,-2.2185,-2.2178,-2.2897,-2.3266,-2.3383,-2.4105,-2.444,-2.4474,-2.5113,-2.5414,-2.5581,-2.6251,-2.652,-2.652,-2.652,-2.652,-2.6502,-2.6502,-2.6241,-2.5886,-2.5886,-2.5649,-2.5351,-2.5351,-2.5082,-2.4744,-2.4704,-2.4395,-2.4073,-2.4024,-2.4024,-2.4024,-2.4003,-2.4003,-2.3982,-2.3861,-2.3818,-2.3818,-2.3818,-2.3818,-2.3903,-2.4166,-2.4208,-2.4229,-2.4297,-2.4302,-2.4302,-2.4302,-2.4234,-2.4229,-2.4281,-2.425,-2.425,-2.4281,-2.4302,-2.4302,-2.4302,-2.3988,-2.3668,-2.3363,-2.2678,-2.2301,-2.2263,-2.2231,-2.2208,-2.2208,-2.2208,-2.2208,-2.2208,-2.2208,-2.2208,0.0,0.0,0.0,0.0,0.0,0.0,-2.1479,0.0,-2.1042,0.0,0.0,0.0,0.0,0.0,0.0,0.0,0.0,0.0,0.0,0.0,0.0,0.0,0.0,0.0,0.0,0.0,0.0,0.0,-2.0814,-2.0585,-2.2048,-2.2132,-2.2132,-2.2132,-2.2132,-2.2132,-2.2132,-2.2132,-2.2118,-2.2075,-2.2075,-2.2044,-2.1998,-2.2348,-2.2499,-2.2549,-2.324,-2.3559,-2.3594,-2.4231,-2.4796,-2.5262,-2.5579,-2.6014,-2.6502,-2.6502,-2.6451,-2.6347,-2.6134,-2.5866,-2.5594,-2.5351,-2.516,-2.5024,-2.5024,-2.4784,-2.4482,-2.4482,-2.4245,-2.3982,-2.3903,-2.3882,-2.3861,-2.3797,-2.376,-2.3739,-2.3696,-2.3674,-2.3674,-2.3674,-2.3674,-2.3739,-2.394,-2.4024,-2.4124,-2.4229,-2.425,-2.425,-2.425,-2.4208,-2.4187,-2.413,-2.4166,-2.4187,-2.413,-2.4193,-2.4193,-2.413,-2.3668,-2.3091,-2.2472,-2.2287,-2.2208,-2.2208,-2.2208,-2.2208,-2.2208,-2.2208,-2.2208,-2.2208,-2.2208,-2.2208,-2.4863,0.0,0.0,0.0,0.0,0.0,0.0,0.0,0.0,0.0,0.0,0.0,0.0,0.0,0.0,0.0,0.0,0.0,0.0,0.0,0.0,0.0,0.0,0.0,0.0,0.0,0.0,0.0,0.0,-1.9852,-2.1895,-2.1828,-2.1797,-2.1982,-2.2013,-2.2013,-2.2013,-2.2013,-2.1998,-2.1969,-2.1969,-2.1969,-2.194,-2.194,-2.194,-2.1974,-2.2465,-2.2607,-2.2596,-2.3291,-2.3917,-2.4504,-2.47,-2.5313,-2.6099,-2.6329,-2.6346,-2.6207,-2.5777,-2.5443,-2.5102,-2.4684,-2.4542,-2.4542,-2.4542,-2.4379,-2.4188,-2.4188,-2.4036,-2.3861,-2.376,-2.3739,-2.3717,-2.3616,-2.3595,-2.3595,-2.3595,-2.3595,-2.3595,-2.3595,-2.3595,-2.3616,-2.3739,-2.3861,-2.3982,-2.4124,-2.4145,-2.4145,-2.4145,-2.4103,-2.4082,-2.4003,-2.4046,-2.4082,-2.4003,-2.3961,-2.3797,-2.3458,-2.3038,-2.2457,-2.1722,-2.1949,-2.2067,-2.1996,-2.2067,-2.2091,-2.2091,-2.2091,-2.2137,-2.2208,-2.2208,-2.2208,0.0,0.0,0.0,-2.443,0.0,0.0,0.0,0.0,-2.2822,0.0,0.0,0.0,0.0,0.0,0.0,0.0,0.0,0.0,0.0,0.0,0.0,0.0,0.0,0.0,0.0,0.0,0.0,0.0,0.0,0.0,-2.1812,-2.1393,-2.1343,-2.1979,-2.2013,-2.2013,-2.2013,-2.2013,-2.1969,-2.1897,-2.1897,-2.1869,-2.1812,-2.1812,-2.1812,-2.1812,-2.1829,-2.165,-2.1422,-2.2151,-2.2613,-2.293,-2.3663,-2.4344,-2.504,-2.5899,-2.622,-2.615,-2.5684,-2.5001,-2.4261,-2.3788,-2.3638,-2.3638,-2.3638,-2.3638,-2.3616,-2.3616,-2.3616,-2.3595,-2.3595,-2.3595,-2.3595,-2.3595,-2.3595,-2.3595,-2.3595,-2.3595,-2.3595,-2.3595,-2.3595,-2.3595,-2.3595,-2.3717,-2.3861,-2.3982,-2.4003,-2.4003,-2.4003,-2.3882,-2.3861,-2.3982,-2.3882,-2.3861,-2.3982,-2.353,-2.2897,-2.21,-2.2067,-2.1841,-2.1423,-2.1688,-2.1688,-2.1423,-2.1688,-2.1793,-2.1793,-2.1793,-2.1949,-2.2208,-2.2208,-2.2208,0.0,0.0,-2.5659,-2.4813,0.0,0.0,0.0,0.0,0.0,0.0,0.0,0.0,0.0,0.0,0.0,0.0,0.0,0.0,0.0,0.0,0.0,0.0,0.0,0.0,0.0,0.0,0.0,0.0,-1.8452,0.0,0.0,-2.1387,-2.1637,-2.1853,-2.1869,-2.1869,-2.1869,-2.1869,-2.1855,-2.1825,-2.1825,-2.1706,-2.1464,-2.1464,-2.1356,-2.1135,-2.1135,-2.1071,-2.099,-2.1245,-2.1926,-2.2814,-2.307,-2.3875,-2.4942,-2.523,-2.5343,-2.5269,-2.4859,-2.4333,-2.3824,-2.3638,-2.3595,-2.3595,-2.3595,-2.3595,-2.3595,-2.3595,-2.3595,-2.3595,-2.3595,-2.3595,-2.3595,-2.3595,-2.3595,-2.3595,-2.3595,-2.3595,-2.3595,-2.3595,-2.3595,-2.3595,-2.3595,-2.3653,-2.3717,-2.3861,-2.3861,-2.3861,-2.3861,-2.3839,-2.3782,-2.3739,-2.376,-2.3653,-2.3304,-2.2785,-2.2221,-2.1626,-2.1769,-2.1664,-2.1155,-2.1399,-2.1496,-2.1399,-2.1496,-2.1544,-2.1544,-2.1544,-2.1592,-2.1688,-2.1688,-2.1769,-2.6229,-2.6188,0.0,-2.5298,-2.4993,0.0,-2.2813,0.0,0.0,0.0,0.0,0.0,0.0,0.0,0.0,0.0,0.0,0.0,0.0,0.0,0.0,0.0,0.0,0.0,0.0,0.0,-1.6725,-1.8493,0.0,0.0,0.0,0.0,-2.1531,-2.1796,-2.1812,-2.1812,-2.1812,-2.1693,-2.1616,-2.1617,-2.1494,-2.1324,-2.1119,-2.1119,-2.1006,-2.0794,-2.0794,-2.0712,-2.0611,-2.0829,-2.1508,-2.244,-2.2669,-2.3464,-2.4482,-2.4784,-2.4819,-2.4639,-2.4385,-2.3994,-2.3595,-2.3595,-2.3595,-2.3595,-2.3595,-2.3595,-2.3595,-2.3595,-2.3595,-2.3595,-2.3595,-2.3595,-2.3595,-2.3595,-2.3595,-2.3595,-2.3595,-2.3595,-2.3595,-2.3595,-2.3595,-2.3595,-2.3595,-2.3595,-2.3616,-2.3717,-2.3739,-2.3739,-2.3739,-2.3739,-2.3696,-2.3595,-2.3674,-2.3421,-2.2672,-2.2142,-2.166,-2.118,-2.1302,-2.1253,-2.0923,-2.1131,-2.1229,-2.1155,-2.1229,-2.1253,-2.1253,-2.1253,-2.1302,-2.1399,-2.1302,-2.135]},{"header":{"parameterUnit":"m.s-1","parameterCategory":1,"la1":30.6,"la2":29.2853,"lo1":-89.7004,"lo2":-87.6739,"dy":0.0162,"dx":0.0183,"nx":112,"ny":82,"refTime":"2024-05-17T12:00:00:Z","depth":0,"parameterNumber":3,"parameterNumberName":"V-component_of_WINDS"},"data":[0.0,0.0,0.0,0.0,0.0,0.0,0.0,0.0,0.0,0.0,0.0,0.0,0.0,0.0,0.0,0.0,0.0,0.0,0.0,0.0,0.0,0.0,0.0,0.0,0.0,0.0,0.0,0.0,0.0,0.0,0.0,0.0,0.0,0.0,0.0,0.0,0.0,0.0,0.0,0.0,0.0,0.0,0.0,0.0,0.0,0.0,0.0,0.0,0.0,0.0,0.0,0.0,0.0,0.0,0.0,0.0,0.0,0.0,0.0,0.0,0.0,0.0,0.0,0.0,0.0,0.0,0.0,0.0,0.0,0.0,0.0,0.0,0.0,0.0,0.0,0.0,0.0,0.0,0.0,0.0,0.0,0.0,0.0,0.0,0.0,0.0,0.0,0.0,0.0,0.0,0.0,0.3919,0.5545,0.6692,0.697,0.7017,0.6539,0.537,0.0,0.0,0.0,0.0,0.0,0.0,0.0,0.0,0.0,0.0,0.0,0.0,0.0,0.0,0.0,0.0,0.0,0.0,0.0,0.0,0.0,0.0,0.0,0.0,0.0,0.0,0.0,0.0,0.0,0.0,0.0,0.0,0.0,0.0,0.0,0.0,0.0,0.0,0.0,0.0,0.0,0.0,0.0,0.0,0.0,0.0,0.0,0.0,0.0,0.0,0.0,0.0,0.0,0.0,0.0,0.0,0.0,0.0,0.0,0.0,0.0,0.0,0.0,0.0,0.0,0.0,0.0,0.0,0.0,0.0,0.0,0.0,0.0,0.0,0.0,0.0,0.0,0.0,0.0,0.0,0.0,0.0,0.0,0.0,0.0,0.0,0.0,0.0,0.0,0.0,0.0,0.0,0.0,0.0,0.0,0.0,0.0,0.0,0.0,0.0,0.0,0.0,0.0,0.0,0.3163,0.4358,0.5895,0.6748,0.6521,0.6663,0.6346,0.5356,0.0,0.0,0.0,0.0,0.0,0.0,0.0,0.0,0.0,0.0,0.0,0.0,0.0,0.0,0.0,0.0,0.0,0.0,0.0,0.0,0.0,0.0,0.0,0.0,0.0,0.0,0.0,0.0,0.0,0.0,0.0,0.0,0.0,0.0,0.0,0.0,0.0,0.0,0.0,0.0,0.0,0.0,0.0,0.0,0.0,0.0,0.0,0.0,0.0,0.0,0.0,0.0,0.0,0.0,0.0,0.0,0.0,0.0,0.0,0.0,0.0,0.0,0.0,0.0,0.0,0.0,0.0,0.0,0.0,0.0,0.0,0.0,0.0,0.0,0.0,0.0,0.0,0.0,0.0,0.0,0.0,0.0,0.0,0.0,0.0,0.0,0.0,0.0,0.0,0.0,0.0,0.0,0.0,0.0,0.0,0.0,0.0,0.0,0.0,0.0,0.0,0.0,0.0,0.2961,0.3503,0.4649,0.5827,0.6498,0.6461,0.6596,0.6295,0.5356,0.5129,0.0,0.0,0.0,0.0,0.0,0.0,0.0,0.0,0.0,0.0,0.0,0.0,0.0,0.0,0.0,0.0,0.0,0.0,0.0,0.0,0.0,0.0,0.0,0.0,0.0,0.0,0.0,0.0,0.0,0.0,0.0,0.0,0.0,0.0,0.0,0.0,0.0,0.0,0.0,0.0,0.0,0.0,0.0,0.0,0.0,0.0,0.0,0.0,0.0,0.0,0.0,0.0,0.0,0.0,0.0,0.0,0.0,0.0,0.0,0.0,0.0,0.0,0.0,0.0,0.0,0.0,0.0,0.0,0.0,0.0,0.0,0.0,0.0,0.0,0.0,0.0,0.0,0.0,0.0,0.0,0.0,0.0,0.0,0.0,0.0,0.0,0.0,0.0,0.0,0.0,0.0,0.0,0.0,0.0,0.0,0.0,0.0,0.0,0.0,0.0,0.0,0.0,0.3325,0.3919,0.4803,0.5603,0.6169,0.6389,0.6435,0.6077,0.5239,0.4873,0.0,0.0,0.0,0.0,0.0,0.0,0.0,0.0,0.0,0.0,0.0,0.0,0.0,0.0,0.0,0.0,0.0,0.0,0.0,0.0,0.0,0.0,0.0,0.0,0.0,0.0,0.0,0.0,0.0,0.0,0.0,0.0,0.0,0.0,0.0,0.0,0.0,0.0,0.0,0.0,0.0,0.0,0.0,0.0,0.0,0.0,0.0,0.0,0.0,0.0,0.0,0.0,0.0,0.0,0.0,0.0,0.0,0.0,0.0,0.0,0.0,0.0,0.0,0.0,0.0,0.0,0.0,0.0,0.0,0.0,0.0,0.0,0.0,0.0,0.0,0.0,0.0,0.0,0.0,0.0,0.0,0.0,0.0,0.0,0.0,0.0,0.0,0.0,0.0,0.0,0.0,0.0,0.0,0.0,0.0,0.0,0.0,0.0,0.0,0.0,0.0,0.0,0.3449,0.4338,0.484,0.5399,0.5843,0.6114,0.5852,0.5438,0.4876,0.4524,0.0,0.0,0.0,0.0,0.0,0.0,0.0,0.0,0.0,0.0,0.0,0.0,0.0,0.0,0.0,0.0,0.0,0.0,0.0,0.0,0.0,0.0,0.0,0.0,0.0,0.0,0.0,0.0,0.0,0.0,0.0,0.0,0.0,0.0,0.0,0.0,0.0,0.0,0.0,0.0,0.0,0.0,0.0,0.0,0.0,0.0,0.0,0.0,0.0,0.0,0.0,0.0,0.0,0.0,0.0,0.0,0.0,0.0,0.0,0.0,0.0,0.0,0.0,0.0,0.0,0.0,0.0,0.0,0.0,0.0,0.0,0.0,0.0,0.0,0.0,0.0,0.0,0.0,0.0,0.0,0.0,0.0,0.0,0.0,0.0,0.0,0.0,0.0,0.0,0.0,0.0,0.0,0.0,0.0,0.0,0.0,0.0,0.0,0.0,0.0,0.0,0.0,0.3425,0.421,0.0,0.5255,0.561,0.5369,0.5694,0.5508,0.4549,0.0,0.0,0.0,0.0,0.0,0.0,0.0,0.0,0.0,0.0,0.0,0.0,0.0,0.0,0.0,0.0,0.0,0.0,0.0,0.0,0.0,0.0,0.0,0.0,0.0,0.0,0.0,0.0,0.0,0.0,0.0,0.0,0.0,0.0,0.0,0.0,0.0,0.0,0.0,0.0,0.0,0.0,0.0,0.0,0.0,0.0,0.0,0.0,0.0,0.0,0.0,0.0,0.0,0.0,0.0,0.0,0.0,0.0,0.0,0.0,0.0,0.0,0.0,0.0,0.0,0.0,0.0,0.0,0.0,0.0,0.0,0.0,0.0,0.0,0.0,0.0,0.0,0.0,0.0,0.0,0.0,0.0,0.0,0.0,0.0,0.0,0.0,0.0,0.0,0.0,0.0,0.0,0.0,0.0,0.0,0.0,0.0,0.0,0.0,0.0,0.0,0.0,0.2447,0.3433,0.4201,0.0,0.5039,0.5324,0.4939,0.5395,0.5305,0.4369,0.0,0.0,0.0,0.0,0.0,0.0,0.0,0.0,0.0,0.0,0.0,0.0,0.0,0.0,0.0,0.0,0.0,0.0,0.0,0.0,0.0,0.0,0.0,0.0,0.0,0.0,0.0,0.0,0.0,0.0,0.0,0.0,0.0,0.0,0.0,0.0,0.0,0.0,0.0,0.0,0.0,0.0,0.0,0.0,0.0,0.0,0.0,0.0,0.0,0.0,0.0,0.0,0.0,0.0,0.0,0.0,0.0,0.0,0.0,0.0,0.0,0.0,0.0,0.0,0.0,0.0,0.0,0.0,0.0,0.0,0.0,0.0,0.0,0.0,0.0,0.0,0.0,0.0,0.0,0.0,0.0,0.0,0.0,0.0,0.0,0.0,0.0,0.0,0.0,0.0,0.0,0.0,0.0,0.0,0.0,0.0,0.0,0.0,0.0,0.0,0.0,0.0,0.2208,0.3483,0.4404,0.4404,0.476,0.4962,0.4901,0.4894,0.4729,0.0,0.0,0.0,0.0,0.0,0.0,0.0,0.0,0.0,0.0,0.0,0.0,0.0,0.0,0.0,0.0,0.0,0.0,0.0,0.0,0.0,0.0,0.0,0.0,0.0,0.0,0.0,0.0,0.0,0.0,0.0,0.0,0.0,0.0,0.0,0.0,0.0,0.0,0.0,0.0,0.0,0.0,0.0,0.0,0.0,0.0,0.0,0.0,0.0,0.0,0.0,0.0,0.0,0.0,0.0,0.0,0.0,0.0,0.0,0.0,0.0,0.0,0.0,0.0,0.0,0.0,0.0,0.0,0.0,0.0,0.0,0.0,0.0,0.0,0.0,0.0,0.0,0.0,0.0,0.0,0.0,0.0,0.0,0.0,0.0,0.0,0.0,0.0,0.0,0.0,0.0,0.0,0.0,0.0,0.0,0.0,0.0,0.0,0.0,0.0,0.0,0.0,0.0,0.24,0.3569,0.4457,0.4604,0.4845,0.4883,0.4572,0.4976,0.4875,0.4011,0.0,0.0,0.0,0.0,0.0,0.0,0.0,0.0,0.0,0.0,0.0,0.0,0.0,0.0,0.0,0.0,0.0,0.0,0.0,0.0,0.0,0.0,0.0,0.0,0.0,0.0,0.0,0.0,0.0,0.0,0.0,0.0,0.0,0.0,0.0,0.0,0.0,0.0,0.0,0.0,0.0,0.0,0.0,0.0,0.0,0.0,0.0,0.0,0.0,0.0,0.0,0.0,0.0,0.0,0.0,0.0,0.0,0.0,0.0,0.0,0.0,0.0,0.0,0.0,0.0,0.0,0.0,0.0,0.0,0.0,0.0,0.0,0.0,0.0,0.0,0.0,0.0,0.0,0.0,0.0,0.0,0.0,0.0,0.0,0.0,0.0,0.0,0.0,0.0,0.0,0.0,0.0,0.0,0.0,0.0,0.0,0.0,0.0,0.0,0.0,0.0,0.0,0.2548,0.3638,0.448,0.4681,0.4879,0.4841,0.4437,0.5009,0.494,0.3867,0.0,0.0,0.0,0.0,0.0,0.0,0.0,0.0,0.0,0.0,0.0,0.0,0.0,0.0,0.0,0.0,0.0,0.0,0.0,0.0,0.0,0.0,0.0,0.0,0.0,0.0,0.0,0.0,0.0,0.0,0.0,0.0,0.0,0.0,0.0,0.0,0.0,0.0,0.0,0.0,0.0,0.0,0.0,0.0,0.0,0.0,0.0,0.0,0.0,0.0,0.0,0.0,0.0,0.0,0.0,0.0,0.0,0.0,0.0,0.0,0.0,0.0,0.0,0.0,0.0,0.0,0.0,0.0,0.0,0.0,0.0,0.0,0.0,0.0,0.0,0.0,0.0,0.0,0.0,0.0,0.0,0.0,0.0,0.0,0.0,0.0,0.0,0.0,0.0,0.0,0.0,0.0,0.0,0.0,0.0,0.0,0.0,0.0,0.0,0.0,0.0,0.0,0.2683,0.3699,0.449,0.4714,0.4893,0.4841,0.4437,0.5009,0.494,0.3867,0.0,0.0,0.0,0.0,0.0,0.0,0.0,0.0,0.0,0.0,0.0,0.0,0.0,0.0,0.0,0.0,0.0,0.0,0.0,0.0,0.0,0.0,0.0,0.0,0.0,0.0,0.0,0.0,0.0,0.0,0.0,0.0,0.0,0.0,0.0,0.0,0.0,0.0,0.0,0.0,0.0,0.0,0.0,0.0,0.0,0.0,0.0,0.0,0.0,0.0,0.0,0.0,0.0,0.0,0.0,0.0,0.0,0.0,0.0,0.0,0.2577,0.0,0.0,0.0,0.0,0.0,0.0,0.0,0.0,0.0,0.0,0.0,0.0,0.0,0.0,0.0,0.0,0.0,0.0,0.0,0.0,0.0,0.0,0.0,0.0,0.0,0.0,0.0,0.0,0.0,0.0,0.0,0.0,0.0,0.0,0.0,0.0,0.0,0.0,0.0,0.0,0.0,0.2891,0.3783,0.4547,0.4898,0.4983,0.4841,0.4437,0.5009,0.494,0.3867,0.4108,0.0,0.0,0.0,0.0,0.0,0.0,0.0,0.0,0.0,0.0,0.0,0.0,0.0,0.0,0.0,0.0,0.0,0.0,0.0,0.0,0.0,0.0,0.0,0.0,0.0,0.0,0.0,0.0,0.0,0.0,0.0,0.0,0.0,0.0,0.0,0.0,0.0,0.0,0.0,0.0,0.0,0.0,0.0,0.0,0.0,0.0,0.0,0.0,0.0,0.0,0.0,0.0,0.0,0.0,0.0,0.0,0.0,0.0,0.0,0.0,0.273,0.0,0.0,0.0,0.0,0.0,0.0,0.0,0.0,0.0,0.0,0.0,0.0,0.0,0.0,0.0,0.0,0.0,0.0,0.0,0.0,0.0,0.0,0.0,0.0,0.0,0.0,0.0,0.0,0.0,0.0,0.0,0.0,0.0,0.0,0.0,0.0,0.0,0.0,0.0,0.0,0.3129,0.3907,0.4546,0.4964,0.5011,0.4841,0.4437,0.5009,0.501,0.4099,0.4354,0.0,0.0,0.0,0.0,0.0,0.0,0.0,0.0,0.0,0.0,0.0,0.0,0.0,0.0,0.0,0.0,0.0,0.0,0.0,0.0,0.0,0.0,0.0,0.0,0.0,0.0,0.0,0.0,0.0,0.0,0.0,0.0,0.0,0.0,0.0,0.0,0.0,0.0,0.0,0.0,0.0,0.0,0.0,0.0,0.0,0.0,0.0,0.0,0.0,0.0,0.0,0.0,0.0,0.3357,0.3476,0.3693,0.3636,0.366,0.3744,0.3466,0.3276,0.3158,0.291,0.0,0.0,0.0,0.0,0.0,0.0,0.0,0.0,0.0,0.0,0.0,0.0,0.0,0.0,0.0,0.0,0.0,0.0,0.0,0.0,0.0,0.0,0.0,0.0,0.3715,0.3692,0.0,0.0,0.0,0.0,0.0,0.0,0.0,0.0,0.0,0.0,0.0,0.0,0.338,0.4042,0.4584,0.4969,0.5011,0.4855,0.449,0.498,0.501,0.4307,0.4595,0.4527,0.0,0.0,0.0,0.0,0.0,0.0,0.0,0.0,0.0,0.0,0.0,0.0,0.0,0.0,0.0,0.0,0.0,0.0,0.0,0.0,0.0,0.0,0.0,0.0,0.0,0.0,0.0,0.0,0.0,0.0,0.0,0.0,0.243,0.262,0.0,0.0,0.0,0.0,0.0,0.0,0.0,0.0,0.0,0.0,0.0,0.0,0.0,0.3379,0.3512,0.3765,0.3822,0.3737,0.4136,0.4239,0.4139,0.4293,0.4354,0.4371,0.4331,0.0,0.3529,0.331,0.0,0.0,0.0,0.0,0.0,0.0,0.0,0.0,0.0,0.0,0.0,0.0,0.0,0.0,0.0,0.0,0.0,0.0,0.0,0.0,0.0,0.0,0.4321,0.4013,0.3953,0.3961,0.0,0.3494,0.3047,0.2657,0.2609,0.0,0.0,0.0,0.0,0.0,0.0,0.0,0.3673,0.4289,0.4741,0.4983,0.5011,0.4912,0.4685,0.4844,0.4725,0.4161,0.455,0.4509,0.3844,0.3876,0.0,0.0,0.0,0.0,0.0,0.0,0.0,0.0,0.0,0.0,0.0,0.0,0.0,0.0,0.0,0.0,0.0,0.0,0.0,0.0,0.0,0.0,0.0,0.0,0.0,0.0,0.0,0.0,0.0,0.2484,0.2725,0.2857,0.2853,0.2815,0.0,0.0,0.0,0.0,0.0,0.0,0.0,0.0,0.0,0.3614,0.3706,0.3863,0.4098,0.4287,0.4406,0.4426,0.4626,0.4687,0.4597,0.4691,0.4718,0.4718,0.4718,0.4524,0.4178,0.3832,0.3613,0.347,0.0,0.0,0.0,0.0,0.3405,0.3748,0.4167,0.4384,0.0,0.4541,0.0,0.0,0.0,0.0,0.0,0.0,0.0,0.0,0.0,0.0,0.4608,0.4377,0.4252,0.4209,0.4303,0.4065,0.3617,0.0,0.2911,0.2769,0.2109,0.0,0.0,0.0,0.0,0.2951,0.3402,0.3987,0.4428,0.4631,0.4876,0.4921,0.4723,0.4821,0.4758,0.4394,0.4645,0.466,0.4375,0.4216,0.398,0.0,0.0,0.0,0.0,0.0,0.0,0.0,0.0,0.0,0.0,0.0,0.0,0.0,0.0,0.0,0.0,0.0,0.0,0.0,0.0,0.0,0.0,0.0,0.0,0.0,0.0,0.0,0.0,0.2761,0.3042,0.3187,0.3245,0.3216,0.0,0.0,0.0,0.0,0.0,0.0,0.353,0.3724,0.3897,0.4016,0.4168,0.4355,0.4604,0.4694,0.4806,0.4887,0.4887,0.4887,0.4887,0.4887,0.4887,0.4887,0.4887,0.4853,0.4718,0.4304,0.4046,0.3883,0.36,0.3569,0.3693,0.3693,0.3829,0.4055,0.4604,0.4808,0.4833,0.4783,0.4896,0.4887,0.4072,0.0,0.0,0.0,0.0,0.478,0.4294,0.4478,0.4723,0.4547,0.4313,0.4158,0.4303,0.4235,0.394,0.0,0.3304,0.3174,0.241,0.0,0.0,0.0,0.0,0.2939,0.3372,0.3878,0.4274,0.4526,0.4832,0.4945,0.4784,0.4778,0.4702,0.4554,0.4698,0.4762,0.4683,0.4593,0.4383,0.4005,0.0,0.0,0.0,0.0,0.0,0.0,0.0,0.0,0.0,0.0,0.0,0.0,0.0,0.0,0.0,0.0,0.0,0.0,0.0,0.0,0.0,0.0,0.0,0.0,0.0,0.0,0.0,0.0,0.0,0.372,0.3751,0.0,0.0,0.0,0.0,0.3737,0.3761,0.3897,0.4137,0.4341,0.4515,0.464,0.4796,0.485,0.4867,0.4874,0.4881,0.4887,0.4887,0.4887,0.4887,0.4887,0.4887,0.4887,0.4887,0.4884,0.4854,0.4597,0.4355,0.4157,0.4024,0.3967,0.3971,0.3971,0.4433,0.5023,0.5065,0.5358,0.5772,0.6033,0.5569,0.4898,0.4771,0.4133,0.0,0.0,0.46,0.4927,0.5102,0.5061,0.4845,0.4351,0.3923,0.3649,0.3658,0.3652,0.3699,0.0,0.3958,0.3764,0.3147,0.0,0.2857,0.2857,0.2934,0.3239,0.3955,0.4239,0.453,0.4919,0.4985,0.5002,0.4992,0.4638,0.4418,0.4409,0.466,0.4654,0.4344,0.4918,0.4946,0.4298,0.402,0.0,0.0,0.0,0.0,0.0,0.0,0.0,0.0,0.0,0.0,0.0,0.0,0.0,0.0,0.0,0.0,0.0,0.0,0.0,0.0,0.0,0.0,0.0,0.0,0.0,0.0,0.0,0.0,0.4041,0.4253,0.0,0.4187,0.4262,0.4314,0.4365,0.446,0.4537,0.4645,0.4728,0.4782,0.4836,0.486,0.4931,0.5022,0.5022,0.5104,0.5235,0.5235,0.5235,0.5235,0.5235,0.5235,0.5235,0.5235,0.5148,0.5015,0.4938,0.4752,0.4528,0.4473,0.4392,0.4331,0.4331,0.4495,0.4703,0.4703,0.4811,0.5039,0.5475,0.5306,0.4902,0.497,0.496,0.4849,0.4397,0.4966,0.5548,0.4758,0.4807,0.4869,0.4113,0.3824,0.3771,0.3962,0.399,0.4112,0.449,0.4071,0.3494,0.3095,0.3058,0.3055,0.2979,0.3202,0.348,0.3753,0.415,0.4456,0.4609,0.4854,0.5011,0.5011,0.4622,0.4404,0.4404,0.4643,0.4739,0.4623,0.4842,0.4873,0.4626,0.4145,0.3737,0.0,0.0,0.0,0.0,0.0,0.0,0.0,0.0,0.0,0.0,0.0,0.0,0.0,0.0,0.0,0.0,0.0,0.0,0.0,0.0,0.0,0.0,0.0,0.0,0.0,0.0,0.4231,0.4358,0.4616,0.4707,0.4583,0.4677,0.4769,0.4769,0.486,0.4887,0.4887,0.4935,0.4958,0.4958,0.504,0.5114,0.5206,0.526,0.5311,0.5395,0.5446,0.5443,0.5395,0.5395,0.5395,0.5395,0.5395,0.5337,0.5209,0.5209,0.5064,0.4836,0.4785,0.4707,0.4644,0.4644,0.461,0.4559,0.4508,0.4491,0.4574,0.4928,0.4907,0.479,0.4866,0.5104,0.5214,0.4504,0.5062,0.5664,0.4684,0.4759,0.4944,0.4267,0.399,0.3907,0.4042,0.4067,0.4153,0.4405,0.4165,0.3842,0.3618,0.3649,0.3614,0.3341,0.3654,0.387,0.3792,0.4229,0.4545,0.4596,0.4832,0.5011,0.5011,0.4622,0.4404,0.4404,0.4529,0.4654,0.4798,0.4718,0.4677,0.4703,0.4087,0.3648,0.3395,0.0,0.0,0.0,0.0,0.0,0.0,0.0,0.0,0.0,0.0,0.0,0.0,0.0,0.0,0.0,0.0,0.0,0.0,0.0,0.0,0.0,0.0,0.0,0.4001,0.4146,0.4355,0.467,0.4843,0.488,0.4731,0.4857,0.4918,0.4918,0.4918,0.4918,0.4918,0.5046,0.512,0.512,0.5298,0.5409,0.5409,0.5556,0.5556,0.5412,0.5559,0.5552,0.5409,0.5409,0.5409,0.5409,0.5402,0.5402,0.5402,0.5395,0.5274,0.5093,0.4951,0.4891,0.4887,0.4887,0.4826,0.4677,0.4556,0.4505,0.4505,0.4505,0.4505,0.4505,0.4498,0.4498,0.4494,0.4491,0.4873,0.5226,0.4952,0.4976,0.5003,0.4739,0.4328,0.3965,0.3852,0.3824,0.3796,0.3666,0.4325,0.4845,0.4684,0.4681,0.4499,0.3978,0.4253,0.0,0.4169,0.454,0.4865,0.4996,0.5011,0.5011,0.5011,0.4632,0.4409,0.4404,0.4281,0.4393,0.4766,0.4542,0.4443,0.4507,0.3869,0.3502,0.3424,0.0,0.0,0.0,0.0,0.0,0.0,0.0,0.0,0.0,0.0,0.0,0.0,0.0,0.0,0.0,0.0,0.0,0.0,0.0,0.0,0.0,0.0,0.4304,0.4173,0.456,0.4887,0.4968,0.5243,0.5389,0.5345,0.5474,0.5559,0.5559,0.5559,0.5559,0.5559,0.5596,0.5616,0.5616,0.5657,0.5681,0.5681,0.5722,0.5722,0.5681,0.5725,0.5722,0.5681,0.5681,0.5681,0.5674,0.5572,0.5562,0.5552,0.544,0.5368,0.5284,0.5131,0.4978,0.4887,0.4887,0.4864,0.485,0.4809,0.4796,0.4796,0.4796,0.4796,0.4772,0.466,0.4655,0.4634,0.4522,0.4598,0.4708,0.4625,0.4625,0.4598,0.4384,0.4249,0.4193,0.4411,0.4467,0.4519,0.4791,0.5034,0.4909,0.4054,0.4151,0.4297,0.415,0.4662,0.0,0.4976,0.5083,0.5172,0.5212,0.5097,0.5011,0.5011,0.476,0.4561,0.4414,0.4452,0.4447,0.4377,0.4578,0.4689,0.4723,0.4531,0.4312,0.0,0.0,0.0,0.0,0.0,0.0,0.0,0.0,0.0,0.0,0.0,0.0,0.0,0.0,0.0,0.0,0.0,0.0,0.0,0.0,0.0,0.0,0.4524,0.4839,0.4724,0.4924,0.5147,0.5308,0.5481,0.5613,0.5674,0.5752,0.58,0.58,0.58,0.58,0.58,0.58,0.58,0.58,0.58,0.58,0.58,0.5864,0.5864,0.58,0.5867,0.5864,0.58,0.58,0.58,0.5796,0.5715,0.5644,0.5583,0.5528,0.5453,0.0,0.0,0.0,0.0,0.0,0.4975,0.4968,0.4911,0.4887,0.4887,0.4887,0.4887,0.4874,0.4813,0.4785,0.4755,0.4631,0.4586,0.4573,0.4505,0.4491,0.4463,0.4356,0.4328,0.4356,0.4467,0.4498,0.455,0.4736,0.4763,0.0,0.3885,0.4215,0.4543,0.4432,0.4981,0.5395,0.5262,0.5519,0.5683,0.5609,0.551,0.538,0.5135,0.4944,0.0,0.0,0.0,0.4198,0.3873,0.4353,0.0,0.0,0.0,0.0,0.0,0.0,0.0,0.0,0.4215,0.4416,0.0,0.0,0.0,0.0,0.0,0.0,0.0,0.0,0.0,0.0,0.0,0.0,0.0,0.0,0.0,0.0,0.4931,0.5426,0.5443,0.5294,0.5275,0.5583,0.563,0.5688,0.5817,0.5844,0.5854,0.5854,0.5854,0.5854,0.5854,0.0,0.0,0.0,0.0,0.5854,0.5854,0.5986,0.5986,0.5854,0.5989,0.5983,0.5854,0.5854,0.5854,0.5854,0.5833,0.5755,0.5637,0.5623,0.5559,0.5419,0.5402,0.5395,0.5378,0.5206,0.5123,0.5106,0.5013,0.0,0.0,0.4969,0.4969,0.4965,0.4918,0.4914,0.4881,0.4758,0.4718,0.4709,0.464,0.457,0.4539,0.4574,0.4546,0.4463,0.4276,0.4221,0.4218,0.4159,0.4159,0.4159,0.4242,0.4684,0.4991,0.4825,0.5238,0.5527,0.5431,0.5916,0.6218,0.6115,0.0,0.0,0.5431,0.5228,0.5019,0.4791,0.4347,0.3925,0.3581,0.4142,0.4382,0.4244,0.4528,0.4788,0.5013,0.5319,0.5312,0.5013,0.494,0.5023,0.0,0.0,0.0,0.0,0.0,0.0,0.0,0.0,0.0,0.0,0.0,0.0,0.0,0.0,0.0,0.4911,0.5291,0.5586,0.5701,0.5691,0.5694,0.5752,0.5871,0.5919,0.5946,0.6098,0.6211,0.6211,0.6211,0.6211,0.6211,0.6211,0.6211,0.6211,0.6211,0.6211,0.6211,0.6238,0.6238,0.6211,0.0,0.0,0.6211,0.6211,0.6211,0.6204,0.604,0.5932,0.5899,0.5813,0.5677,0.5569,0.5443,0.5395,0.5392,0.5361,0.5351,0.5347,0.5317,0.531,0.531,0.531,0.531,0.5286,0.5096,0.5059,0.0,0.4884,0.4874,0.4959,0.5291,0.5016,0.4755,0.5069,0.4818,0.4491,0.4436,0.4436,0.4574,0.4979,0.5062,0.5195,0.5691,0.523,0.4936,0.5348,0.5395,0.5706,0.6614,0.6299,0.615,0.6599,0.6504,0.6305,0.5971,0.5921,0.5701,0.5294,0.4819,0.4573,0.4609,0.473,0.5085,0.5683,0.5753,0.5961,0.6331,0.6396,0.6389,0.6316,0.5831,0.577,0.0,0.0,0.0,0.0,0.0,0.0,0.0,0.0,0.0,0.0,0.0,0.5304,0.0,0.0,0.5277,0.5348,0.5613,0.5833,0.5905,0.5983,0.6003,0.5925,0.5946,0.6023,0.6139,0.6252,0.63,0.63,0.63,0.63,0.63,0.63,0.63,0.63,0.63,0.63,0.63,0.63,0.63,0.63,0.63,0.63,0.63,0.63,0.63,0.6296,0.6179,0.6101,0.5979,0.5864,0.5759,0.5688,0.561,0.5525,0.5395,0.5395,0.5395,0.5395,0.5395,0.5395,0.5395,0.5395,0.5395,0.5382,0.527,0.5247,0.5281,0.5505,0.5554,0.5666,0.6168,0.5988,0.5694,0.5908,0.5646,0.5363,0.5363,0.5363,0.5418,0.5687,0.5741,0.5855,0.6154,0.5773,0.5559,0.5859,0.5878,0.615,0.6999,0.6876,0.6802,0.7128,0.7078,0.6822,0.6289,0.6032,0.5766,0.5416,0.5047,0.483,0.4799,0.4864,0.5085,0.5497,0.5887,0.6201,0.6403,0.6611,0.6702,0.6702,0.656,0.6503,0.0,0.0,0.0,0.0,0.0,0.0,0.0,0.0,0.5915,0.5103,0.518,0.5373,0.5251,0.5489,0.5677,0.5677,0.5901,0.6074,0.6074,0.6183,0.6252,0.6091,0.6074,0.6125,0.6286,0.63,0.63,0.63,0.63,0.63,0.63,0.63,0.63,0.63,0.63,0.63,0.63,0.63,0.63,0.63,0.63,0.63,0.63,0.63,0.63,0.63,0.63,0.619,0.6061,0.5908,0.5844,0.5844,0.5813,0.5654,0.5481,0.5481,0.5463,0.544,0.544,0.5419,0.5395,0.5395,0.5395,0.5395,0.5395,0.5395,0.55,0.5921,0.6038,0.6184,0.6845,0.6762,0.6557,0.6735,0.6528,0.6256,0.6213,0.6209,0.6236,0.6344,0.6372,0.6399,0.6507,0.6534,0.6507,0.6399,0.6367,0.6583,0.7187,0.7359,0.7467,0.7574,0.7619,0.7364,0.6614,0.6168,0.5792,0.5543,0.5317,0.5075,0.4822,0.4923,0.4996,0.5054,0.5704,0.6104,0.6281,0.6603,0.6816,0.6899,0.718,0.7129,0.7383,0.7101,0.6793,0.6326,0.6489,0.6812,0.0,0.0,0.6948,0.6553,0.6497,0.6367,0.5816,0.5837,0.5942,0.5942,0.6125,0.6272,0.6272,0.6289,0.6293,0.6276,0.6272,0.6279,0.6296,0.63,0.63,0.63,0.63,0.63,0.63,0.63,0.63,0.63,0.63,0.63,0.63,0.63,0.63,0.63,0.63,0.63,0.63,0.63,0.63,0.63,0.63,0.6289,0.6262,0.6067,0.5966,0.5952,0.5854,0.5783,0.5752,0.5752,0.5674,0.5562,0.5562,0.5511,0.5395,0.5395,0.5395,0.5395,0.5395,0.5395,0.5425,0.547,0.55,0.5723,0.6822,0.6661,0.6432,0.7216,0.6979,0.6487,0.6246,0.6209,0.6372,0.6891,0.6999,0.7166,0.7628,0.7708,0.7547,0.7079,0.6561,0.6615,0.7681,0.7413,0.7327,0.7788,0.7877,0.765,0.7146,0.684,0.647,0.5969,0.5915,0.5685,0.5257,0.5252,0.5375,0.5614,0.5699,0.6121,0.69,0.6948,0.7183,0.7581,0.7618,0.7465,0.8237,0.7684,0.0,0.0,0.7738,0.7563,0.768,0.747,0.7108,0.6618,0.6504,0.6403,0.6151,0.6128,0.6166,0.0,0.6255,0.63,0.63,0.63,0.6265,0.6135,0.6245,0.63,0.63,0.63,0.63,0.63,0.63,0.63,0.63,0.63,0.63,0.63,0.63,0.63,0.63,0.63,0.63,0.63,0.63,0.63,0.63,0.63,0.63,0.63,0.63,0.63,0.6293,0.6193,0.6166,0.6159,0.6095,0.6105,0.6085,0.5867,0.5766,0.5711,0.5711,0.5616,0.5528,0.5528,0.5467,0.5395,0.5395,0.5395,0.5495,0.5881,0.598,0.6191,0.7058,0.7297,0.7412,0.7767,0.7721,0.7549,0.7444,0.7285,0.7273,0.7521,0.7574,0.7628,0.7875,0.7901,0.7821,0.7601,0.7354,0.7354,0.7848,0.7708,0.7655,0.7875,0.7784,0.7648,0.7449,0.7048,0.6717,0.647,0.617,0.5917,0.5717,0.5436,0.5474,0.5867,0.599,0.6359,0.7,0.728,0.7517,0.7691,0.7691,0.7618,0.8659,0.0,0.0,0.8758,0.8681,0.8404,0.8318,0.7925,0.738,0.6857,0.6527,0.6294,0.6184,0.6204,0.6235,0.6235,0.6272,0.63,0.63,0.63,0.6259,0.6105,0.6193,0.63,0.63,0.63,0.63,0.63,0.63,0.63,0.63,0.63,0.63,0.63,0.63,0.63,0.63,0.63,0.63,0.63,0.63,0.63,0.63,0.63,0.63,0.63,0.63,0.63,0.63,0.63,0.63,0.63,0.63,0.63,0.6272,0.601,0.5901,0.5864,0.5864,0.5742,0.5589,0.5589,0.5521,0.5395,0.5395,0.5395,0.5491,0.5976,0.6141,0.6272,0.6957,0.7498,0.7939,0.8063,0.83,0.8493,0.8321,0.8141,0.7991,0.7913,0.7901,0.7901,0.7901,0.7901,0.7901,0.7901,0.7901,0.7901,0.7901,0.7901,0.7901,0.7901,0.778,0.7654,0.7601,0.7243,0.6993,0.6921,0.6487,0.6187,0.6122,0.5668,0.5539,0.5809,0.6017,0.6359,0.6803,0.728,0.7566,0.7698,0.7786,0.7851,0.0,0.0,0.9021,0.8546,0.8931,0.9379,0.9142,0.861,0.8075,0.7641,0.6944,0.6276,0.5878,0.5932,0.6,0.6,0.6162,0.63,0.63,0.63,0.6296,0.6293,0.6296,0.63,0.0,0.63,0.63,0.63,0.63,0.63,0.63,0.63,0.63,0.63,0.63,0.63,0.63,0.63,0.63,0.63,0.63,0.63,0.63,0.63,0.63,0.63,0.63,0.63,0.63,0.63,0.63,0.63,0.63,0.63,0.6296,0.6289,0.6152,0.5986,0.5986,0.5833,0.5589,0.5589,0.5521,0.5395,0.5395,0.5395,0.5395,0.5428,0.5428,0.5591,0.6272,0.692,0.7519,0.8007,0.8592,0.8933,0.8399,0.8285,0.8201,0.7949,0.7901,0.7901,0.7901,0.7901,0.7901,0.7901,0.7901,0.7901,0.7901,0.7901,0.7901,0.7901,0.7895,0.7808,0.7619,0.7583,0.7461,0.7206,0.6916,0.6657,0.6401,0.593,0.5572,0.5328,0.5572,0.591,0.6331,0.6782,0.7259,0.7698,0.8041,0.8187,0.0,0.0,0.9624,1.0021,1.0223,1.0269,1.0184,0.9592,0.8892,0.8278,0.7562,0.6902,0.6429,0.6086,0.594,0.6178,0.6146,0.6142,0.6286,0.63,0.6262,0.6122,0.6238,0.0,0.0,0.0,0.0,0.63,0.6385,0.6443,0.6443,0.6535,0.6505,0.6443,0.6443,0.6395,0.6303,0.63,0.63,0.63,0.63,0.63,0.63,0.63,0.63,0.63,0.63,0.63,0.63,0.63,0.63,0.63,0.63,0.63,0.63,0.63,0.6265,0.6183,0.6183,0.6051,0.5864,0.5762,0.5633,0.5593,0.5948,0.6075,0.6141,0.6601,0.6736,0.6765,0.699,0.7609,0.8178,0.8329,0.8754,0.9047,0.8872,0.8698,0.8499,0.8207,0.8159,0.8105,0.7931,0.7901,0.7901,0.7901,0.7901,0.7901,0.7901,0.7901,0.7901,0.7901,0.7901,0.7865,0.7802,0.7673,0.7552,0.7467,0.7212,0.7019,0.6925,0.6447,0.627,0.6493,0.6236,0.652,0.7365,0.7479,0.7813,0.8363,0.8473,0.8524,0.9434,0.9656,0.9858,1.0353,1.0389,1.028,1.028,0.9696,0.8892,0.82,0.7457,0.681,0.627,0.5892,0.5757,0.6065,0.6021,0.604,0.6337,0.633,0.6282,0.6193,0.6355,0.6415,0.0,0.0,0.0,0.6303,0.6433,0.6511,0.6511,0.6617,0.6654,0.6556,0.6552,0.6512,0.646,0.6457,0.6457,0.6457,0.6457,0.6429,0.6375,0.6375,0.6386,0.6412,0.6412,0.6412,0.6412,0.6412,0.6377,0.63,0.63,0.63,0.63,0.63,0.63,0.6338,0.6644,0.6608,0.6408,0.6281,0.6296,0.6405,0.639,0.6564,0.6859,0.7288,0.7386,0.7386,0.7386,0.7939,0.849,0.849,0.8885,0.9221,0.9119,0.8963,0.877,0.8506,0.8357,0.8237,0.8069,0.7961,0.7901,0.7901,0.7901,0.7901,0.7901,0.7901,0.7901,0.7901,0.7901,0.7901,0.7901,0.7792,0.7715,0.7715,0.7467,0.734,0.734,0.6824,0.669,0.6991,0.6632,0.6886,0.7788,0.7802,0.8115,0.8692,0.8833,0.8884,0.9409,0.9589,0.9786,0.9556,0.9519,0.9509,0.9587,0.8974,0.8236,0.7541,0.6776,0.6044,0.0,0.0,0.5485,0.5767,0.581,0.5959,0.645,0.6395,0.6364,0.0,0.0,0.0,0.0,0.0,0.0,0.6373,0.0,0.6525,0.6535,0.6682,0.6719,0.6712,0.6753,0.675,0.6743,0.674,0.674,0.6698,0.6698,0.6665,0.6525,0.6525,0.6529,0.6623,0.6623,0.662,0.6613,0.6613,0.6493,0.63,0.63,0.63,0.63,0.63,0.63,0.6416,0.7215,0.7366,0.7188,0.7041,0.739,0.7681,0.6813,0.6979,0.7498,0.7536,0.7526,0.7517,0.7517,0.8037,0.8554,0.8554,0.9049,0.9444,0.9179,0.9119,0.9041,0.8776,0.8506,0.8285,0.8273,0.8069,0.7901,0.7901,0.7901,0.7901,0.7901,0.7901,0.7901,0.7901,0.7901,0.7901,0.7901,0.7901,0.7901,0.7901,0.7707,0.7619,0.7619,0.7112,0.6851,0.6875,0.6797,0.7056,0.7685,0.781,0.8163,0.8743,0.9075,0.9222,0.9801,1.0061,1.0343,0.9918,0.9674,0.9587,0.9587,0.9101,0.8435,0.7704,0.7016,0.6385,0.0,0.0,0.0,0.575,0.581,0.0,0.6651,0.6687,0.0,0.7118,0.0,0.7222,0.7178,0.7222,0.0,0.0,0.6828,0.6774,0.7098,0.7211,0.7242,0.7169,0.7289,0.7315,0.7202,0.7202,0.7157,0.6988,0.6988,0.6884,0.6644,0.6644,0.6665,0.6668,0.6868,0.6885,0.6781,0.6893,0.6784,0.6528,0.6528,0.6412,0.63,0.63,0.63,0.6416,0.7215,0.7452,0.7382,0.7196,0.7684,0.8363,0.8503,0.8555,0.8615,0.9125,0.9132,0.8958,0.8958,0.9087,0.9247,0.9247,0.9382,0.9498,0.9426,0.9408,0.933,0.9053,0.8632,0.8231,0.8033,0.7949,0.7901,0.7901,0.7901,0.7901,0.7901,0.7901,0.7901,0.7901,0.7901,0.7901,0.7901,0.7901,0.7901,0.7901,0.7862,0.7826,0.7826,0.7561,0.7542,0.784,0.7579,0.7852,0.8655,0.8671,0.8927,0.938,0.946,0.9504,0.9856,0.9999,1.0103,0.911,0.8687,0.8522,0.8374,0.801,0.7471,0.6739,0.6377,0.0,0.0,0.0,0.0,0.0,0.0,0.0,0.6842,0.6918,0.7086,0.0,0.7602,0.0,0.7514,0.7602,0.7674,0.0,0.7341,0.7211,0.7428,0.7592,0.7639,0.7545,0.7671,0.7713,0.7626,0.7626,0.758,0.7449,0.7449,0.7285,0.6968,0.6968,0.6972,0.7033,0.0,0.723,0.7178,0.7224,0.7058,0.6812,0.6743,0.6602,0.6412,0.6412,0.6606,0.6834,0.6949,0.7446,0.7982,0.7823,0.8529,0.9435,0.9352,0.9391,0.9582,0.9974,0.9889,0.969,0.969,0.96,0.9516,0.9516,0.9516,0.9516,0.9516,0.9516,0.9432,0.9149,0.877,0.8375,0.8117,0.7973,0.7901,0.7901,0.7901,0.7901,0.7901,0.7901,0.7901,0.7901,0.7901,0.7901,0.7901,0.7901,0.7901,0.7901,0.7901,0.8008,0.8209,0.8111,0.8236,0.8621,0.8351,0.8549,0.9275,0.908,0.9242,0.9681,0.9614,0.9647,0.9927,0.9865,0.9701,0.8129,0.7522,0.7211,0.697,0.6622,0.6162,0.5534,0.0,0.5396,0.4753,0.4873,0.5158,0.54,0.0,0.6154,0.6991,0.7139,0.7274,0.7646,0.7928,0.7986,0.7765,0.7944,0.8135,0.8237,0.7931,0.7722,0.7675,0.7861,0.7944,0.7988,0.7988,0.7988,0.7988,0.7988,0.7988,0.7944,0.7944,0.7738,0.7382,0.7343,0.7395,0.7473,0.7473,0.0,0.771,0.7531,0.7329,0.7136,0.7009,0.683,0.6637,0.6714,0.7099,0.7446,0.6834,0.7595,0.8822,0.8597,0.9453,1.0479,0.9759,0.9915,1.0346,1.0346,1.013,0.9907,0.9907,0.9709,0.9516,0.9516,0.9516,0.9516,0.9516,0.9516,0.9432,0.9149,0.8884,0.8626,0.8333,0.8075,0.7901,0.7901,0.7901,0.7901,0.7901,0.7901,0.7901,0.7901,0.7901,0.7901,0.7901,0.7901,0.7901,0.7901,0.7901,0.8082,0.8494,0.8573,0.8784,0.9185,0.9014,0.9197,0.9692,0.9347,0.9387,0.9799,0.9681,0.9681,1.0628,1.0686,1.0605,0.9432,0.8471,0.7806,0.7984,0.7007,0.0,0.0,0.0,0.5385,0.4938,0.4885,0.0,0.5496,0.0,0.0,0.0,0.0,0.7558,0.0,0.0,0.0,0.0,0.0,0.0,0.0,0.0,0.8337,0.811,0.8141,0.8248,0.8476,0.848,0.848,0.848,0.848,0.8384,0.8157,0.8157,0.8009,0.7767,0.7552,0.7581,0.7814,0.7814,0.0,0.7851,0.7879,0.7676,0.7331,0.7208,0.7022,0.6903,0.7399,0.7668,0.7783,0.8169,0.8894,0.9571,0.8888,0.9288,1.0146,1.0658,1.0713,1.0617,1.0617,1.0274,0.9907,0.9907,0.9709,0.9516,0.9516,0.9516,0.9516,0.9516,0.9516,0.9432,0.9149,0.8884,0.8626,0.8333,0.8075,0.7901,0.7901,0.7901,0.7901,0.7901,0.7901,0.7901,0.7901,0.7901,0.7901,0.7901,0.7901,0.7901,0.7901,0.7901,0.7928,0.8002,0.8395,0.8784,0.9185,0.9484,0.9795,1.018,1.0102,0.9973,0.9799,0.9766,0.9766,1.0997,1.1015,1.0822,0.975,0.8915,0.832,0.8191,0.0,0.0,0.0,0.0,0.5377,0.4937,0.0,0.0,0.0,0.0,0.0,0.0,0.0,0.0,0.0,0.0,0.0,0.0,0.0,0.0,0.0,0.0,0.8564,0.8428,0.8428,0.8472,0.8612,0.8612,0.8612,0.8612,0.8612,0.852,0.8428,0.8428,0.8296,0.8072,0.794,0.794,0.8072,0.8072,0.0,0.8738,0.8665,0.8711,0.882,0.8659,0.8499,0.8347,0.8613,0.895,0.9178,0.8922,0.9382,0.9992,0.9501,0.9873,1.0594,1.0962,1.1021,1.0924,1.0924,1.0515,1.0106,1.0106,0.9817,0.9516,0.9516,0.9516,0.9516,0.9516,0.9516,0.9474,0.9342,0.8987,0.8668,0.8542,0.8165,0.7901,0.7901,0.7901,0.7901,0.7901,0.7901,0.7901,0.7901,0.7901,0.7901,0.7901,0.7901,0.7901,0.7901,0.7901,0.8002,0.8262,0.8679,0.9099,0.9517,0.9932,1.0249,1.0393,1.0342,1.0213,1.0058,0.9877,0.9903,1.1283,1.1329,1.1107,1.0161,0.9437,0.8881,0.8446,0.7637,0.0,0.0,0.6019,0.541,0.4955,0.0,0.0,0.0,0.0,0.0,0.0,0.0,0.0,0.0,0.0,0.0,0.0,0.0,0.0,0.0,0.0,0.0,0.8612,0.8612,0.8612,0.8612,0.8612,0.8612,0.8612,0.8612,0.8612,0.8612,0.8612,0.8604,0.8548,0.85,0.8632,0.8851,0.8807,0.0,0.0,0.9567,0.9797,1.0195,0.9992,0.982,0.9674,0.9825,1.0158,1.0458,0.9825,0.9981,1.0513,1.0331,1.0556,1.0887,1.1037,1.1149,1.1149,1.1149,1.0767,1.0361,1.0361,0.994,0.9516,0.9516,0.9516,0.9516,0.9516,0.9516,0.9516,0.9516,0.9077,0.871,0.871,0.8249,0.7901,0.7901,0.7901,0.7901,0.7901,0.7901,0.7901,0.7901,0.7901,0.7901,0.7901,0.7901,0.7901,0.7901,0.7901,0.8055,0.8448,0.8837,0.923,0.9529,1.0061,1.036,1.036,1.0342,1.0324,1.029,1.0032,1.0058,1.168,1.1989,1.2018,1.1394,1.0425,0.9592,0.9557,0.0,0.0,0.711,0.6367,0.5573,0.5226,0.4732,0.0,0.0,0.0,0.0,0.0,0.0,0.0,0.0,0.0,0.0,0.0,0.0,0.0,0.0,0.0,0.0,0.8656,0.8612,0.8612,0.8612,0.8612,0.8612,0.8612,0.8612,0.8612,0.8612,0.8612,0.8999,0.9728,0.9545,1.0062,1.102,1.0832,0.0,0.0,1.055,1.0351,1.0195,0.9992,0.9895,0.9933,1.0507,1.0738,1.085,1.1298,1.1521,1.1558,1.1558,1.085,1.0143,1.0887,1.1223,1.1372,1.1372,1.0983,1.0569,1.0569,1.004,0.9516,0.9516,0.9516,0.9516,0.9516,0.9516,0.9516,0.9516,0.9077,0.871,0.871,0.8249,0.7901,0.7901,0.7901,0.7901,0.7901,0.7901,0.7901,0.7901,0.7901,0.7901,0.7901,0.7901,0.7901,0.7901,0.7901,0.7928,0.7955,0.8421,0.8679,0.8699,0.9477,0.9865,0.9865,1.0283,1.0419,1.029,1.0265,1.0265,1.1698,1.1986,1.1944,1.1495,1.0824,1.0158,0.979,0.0,0.7589,0.7613,0.6785,0.5938,0.5578,0.5147,0.4884,0.0,0.5064,0.5729,0.0,0.0,0.0,0.0,0.0,0.0,0.0,0.0,0.0,0.0,0.0,0.0,0.9428,0.8867,0.8612,0.8612,0.8612,0.8612,0.8612,0.8612,0.8612,0.8612,0.8612,0.8784,0.913,0.9593,1.0024,1.0496,1.0788,0.0,0.0,1.1175,1.1227,1.1476,1.1366,1.1323,1.136,1.1589,1.1706,1.1706,1.1855,1.1892,1.1855,1.1744,1.1372,1.1037,1.1372,1.1446,1.1446,1.1558,1.1198,1.0776,1.0776,1.024,0.9644,0.9516,0.9516,0.9516,0.9516,0.9516,0.9516,0.9516,0.9077,0.871,0.871,0.8249,0.7901,0.7901,0.7901,0.7901,0.7901,0.7901,0.8002,0.8289,0.8315,0.8315,0.8315,0.8553,0.8685,0.8685,0.8685,0.8685,0.8685,0.9099,0.9321,0.9321,0.9906,1.0223,1.0223,1.0411,1.047,1.0419,1.0342,1.0342,1.1323,1.1638,1.167,1.1369,1.0862,1.0305,0.0,0.0,0.7879,0.7792,0.6998,0.6204,0.5926,0.5594,0.5273,0.5032,0.5287,0.6029,0.7638,0.0,0.0,0.0,0.0,0.0,0.0,0.0,0.0,0.0,0.0,0.0,1.0766,0.9864,0.9174,0.8612,0.8612,0.8612,0.8612,0.8612,0.8612,0.8612,0.8612,0.8872,0.9428,0.9971,1.0497,1.1033,1.1388,0.0,0.0,1.1887,1.1992,1.2305,1.2305,1.2305,1.2305,1.2305,1.2305,1.2268,1.215,1.2077,1.2077,1.1929,1.1855,1.1781,1.1855,1.1744,1.1595,1.1744,1.1413,1.0917,1.0717,1.0247,0.9804,0.9644,0.958,0.958,0.9516,0.9516,0.9516,0.9516,0.9143,0.88,0.8722,0.8365,0.8072,0.7994,0.8029,0.8055,0.8055,0.8109,0.8289,0.8626,0.883,0.8916,0.8784,0.9047,0.9211,0.9211,0.9211,0.9211,0.9211,0.9458,0.9614,0.9614,1.0061,1.0275,1.0275,1.0437,1.0496,1.0496,1.0393,1.0419,1.0519,1.0995,1.1329,1.1069,1.0555,0.9937,0.0,0.8538,0.7819,0.7558,0.6852,0.6289,0.6289,0.5974,0.5654,0.5514,0.5999,0.6647,0.7388,0.0,0.0,0.0,0.0,0.0,0.0,0.0,0.0,0.0,0.0,0.0,1.2662,1.18,1.0463,0.8652,0.8612,0.8612,0.8612,0.8612,0.8612,0.8612,0.8612,0.9515,1.1273,1.1,1.1857,0.0,0.0,0.0,0.0,1.2784,1.261,1.2305,1.2305,1.2305,1.2305,1.2305,1.2305,1.2305,1.2305,1.2305,1.2305,1.2298,1.2157,1.204,1.2224,1.215,1.2003,1.2003,1.1598,1.0997,1.0232,0.9989,0.9958,0.9836,0.9804,0.974,0.9548,0.9516,0.9516,0.9516,0.9287,0.9011,0.8752,0.863,0.8506,0.8232,0.8321,0.8395,0.8395,0.8626,0.8797,0.8804,0.9399,0.9614,0.9237,0.9211,0.9211,0.9211,0.9211,0.9211,0.9211,0.9211,0.9211,0.9211,0.9614,0.9814,0.9814,1.0275,1.0496,1.0496,1.0496,1.0496,0.9856,1.0241,1.0461,1.0174,0.996,0.9666,0.9051,0.8392,0.7819,0.7551,0.7119,0.6677,0.6352,0.6204,0.6169,0.6349,0.6555,0.0,0.0,0.0,0.0,0.0,0.0,0.0,0.0,0.0,0.0,0.0,0.0,0.0,1.2747,1.24,1.1714,1.0463,0.9816,0.9471,0.9471,0.8915,0.8915,0.9471,0.8737,0.9307,1.1037,1.0796,1.13,0.0,0.0,0.0,0.0,1.2563,1.2385,1.2305,1.2305,1.2305,1.2305,1.2305,1.2305,1.2305,1.2305,1.2305,1.2305,1.2305,1.2261,1.2231,1.2268,1.2157,1.1924,1.1675,1.1466,1.116,1.0387,1.0206,1.0149,0.9989,0.9926,0.9926,0.9862,0.9766,0.9708,0.9708,0.9381,0.9011,0.8752,0.8636,0.8506,0.8232,0.8321,0.8395,0.8395,0.8784,0.9099,0.9204,0.9736,0.9943,0.964,0.9914,1.0102,1.0102,1.0102,1.0102,1.0102,1.0102,1.0102,1.0102,1.0205,1.0275,1.0275,1.0437,1.0496,1.0496,1.0496,1.0496,0.0,0.9566,0.9744,0.9699,0.9519,0.9225,0.8751,0.8183,0.7669,0.7383,0.7154,0.6915,0.6613,0.6571,0.6633,0.6881,0.7089,0.0,0.0,0.0,0.0,0.0,0.0,0.0,0.0,0.0,0.0,0.0,0.0,0.0,1.3264,1.3121,1.2764,1.2168,1.1021,1.038,1.03,0.9747,0.9662,1.0082,0.9401,0.9839,1.1249,1.1026,1.135,0.0,0.0,0.0,0.0,1.2378,1.2305,1.2305,1.2305,1.2305,1.2305,1.2305,1.2305,1.2305,1.2305,1.2305,1.2305,1.2305,1.2305,1.2305,1.2305,1.2224,1.1995,1.152,1.1389,1.1255,1.058,1.0396,1.0371,1.0149,1.011,1.0079,1.0015,0.9926,0.9951,1.0199,0.98,0.95,0.9748,0.9464,0.9202,0.9173,0.9162,0.9164,0.9164,0.9569,0.988,0.9958,1.0362,1.0558,1.0387,1.0531,1.0641,1.0641,1.0641,1.0641,1.0641,1.0539,1.0496,1.0496,1.0496,1.0496,1.0496,1.0496,1.0496,1.0496,1.0496,1.0496,0.0,0.0,0.0,0.0,0.9132,0.8671,0.8402,0.7899,0.0,0.7066,0.7,0.7006,0.7026,0.7033,0.708,0.7205,0.766,0.0,0.0,0.0,0.0,0.0,0.0,0.0,0.0,0.0,0.0,0.0,0.0,0.0,1.4088,1.3766,1.36,1.36,1.2187,1.1298,1.095,1.0908,1.0744,1.0514,1.0418,1.09,1.1872,1.1516,1.1896,0.0,0.0,0.0,0.0,1.2305,1.2305,1.2305,1.2305,1.2305,1.2305,1.2305,1.2305,1.2305,1.2305,1.2305,1.2305,1.2305,1.2305,1.2305,1.2305,1.2305,1.2178,1.1555,1.1389,1.1289,1.0747,1.0593,1.0561,1.0371,1.0333,1.0269,1.0142,1.011,1.0295,1.0954,1.0598,1.0448,1.1428,1.0864,1.0392,1.0744,1.0559,1.0389,1.0389,1.0719,1.0922,1.0896,1.115,1.1326,1.1301,1.1074,1.0922,1.0922,1.0922,1.0922,1.0896,1.0667,1.0522,1.0496,1.0496,1.0496,1.0496,1.0496,1.0496,1.0496,1.0496,1.0496,0.7685,0.0,0.8172,0.8053,0.8063,0.8032,0.0,0.7614,0.7404,0.7066,0.0,0.0,0.7343,0.7383,0.7612,0.8286,0.0,0.0,0.0,0.0,0.0,0.0,0.0,0.0,0.0,0.0,0.0,0.0,0.0,1.4088,1.4088,1.3766,1.36,1.36,1.3041,1.2401,1.1601,1.0895,1.0821,1.1456,1.0626,1.1042,1.2531,1.1588,1.1615,0.0,0.0,0.0,1.2305,1.2305,1.2305,1.2305,1.2305,1.2305,1.2305,1.2305,1.2305,1.2305,1.2305,1.2305,1.2305,1.2305,1.2305,1.2305,1.2305,1.2305,1.2178,1.1555,1.1389,1.1289,1.0747,1.0593,1.0593,1.053,1.053,1.0649,1.1052,1.1083,1.1202,1.1865,1.1734,1.1544,1.1607,1.1249,1.0933,1.0825,1.0559,1.0389,1.0389,1.0871,1.1124,1.0922,1.1326,1.1528,1.1326,1.1251,1.12,1.12,1.12,1.1124,1.0896,1.0845,1.0701,1.0496,1.0496,1.0496,1.0496,1.0496,1.0496,1.0496,1.0496,1.0496,0.7221,0.7566,0.7899,0.7913,0.7903,0.7866,0.7715,0.0,0.0,0.0,0.0,0.0,0.0,0.0,0.0,0.0,0.0,0.0,0.0,0.0,0.0,0.0,0.0,0.0,0.0,0.0,0.0,0.0,0.0,1.3881,1.3881,1.3474,1.3233,1.3233,1.2946,1.2621,1.2277,1.1748,1.1688,1.201,1.1427,1.1664,1.2538,1.1926,1.1892,0.0,0.0,0.0,1.2305,1.2305,1.2305,1.2305,1.2305,1.2305,1.2305,1.2305,1.2305,1.2305,1.2305,1.2305,1.2305,1.2305,1.2211,1.2104,1.2104,1.2011,1.1837,1.1482,1.1295,1.1122,1.0707,1.0593,1.0593,1.0593,1.0593,1.0782,1.1365,1.1428,1.167,1.2673,1.2512,1.2387,1.2842,1.2394,1.1967,1.1952,1.166,1.1379,1.1209,1.146,1.1619,1.1477,1.1694,1.1828,1.1678,1.1678,1.1619,1.1494,1.1477,1.1427,1.1267,1.115,1.0972,1.0701,1.0573,1.0496,1.0496,1.0496,1.0496,1.0496,1.0496,1.0616,0.7053,0.7479,0.7952,0.8208,0.8083,0.7905,0.7905,0.0,0.0,0.0,0.0,0.0,0.0,0.0,0.0,0.0,0.0,0.0,0.0,0.0,0.0,0.0,0.0,0.0,0.0,0.0,0.0,0.0,0.0,1.354,1.354,1.3085,1.2784,1.2784,1.2458,1.2425,1.2717,1.2717,1.2589,1.2305,1.2305,1.2305,1.2305,1.2305,1.2305,1.2305,0.0,0.0,1.2305,1.2305,1.2305,1.2305,1.2305,1.2305,1.2305,1.2305,1.2305,1.2305,1.2305,1.2305,1.2305,1.2305,1.2104,1.1906,1.1906,1.163,1.1329,1.1329,1.1182,1.0922,1.0667,1.0593,1.0593,1.0593,1.0688,1.0902,1.1514,1.1725,1.2158,1.342,1.3191,1.3161,1.4297,1.3691,1.3121,1.3268,1.2964,1.2542,1.2147,1.2101,1.2101,1.2101,1.2101,1.2101,1.2101,1.2101,1.2002,1.1778,1.1753,1.1753,1.1703,1.1452,1.1175,1.0896,1.0667,1.0547,1.0496,1.0496,1.0547,1.0624,1.0624,1.0896,0.735,0.7655,0.7852,0.7685,0.7769,0.7905,0.7905,0.0,0.0,0.0,0.0,0.0,0.0,0.0,0.0,0.0,0.0,0.0,0.0,0.0,0.0,0.0,0.0,0.0,0.0,0.0,0.0,0.0,0.0,1.3273,1.3273,1.2978,1.2784,1.2784,1.2458,1.2325,1.2371,1.2371,1.2345,1.2305,1.2305,1.2305,1.2305,1.2305,1.2305,1.2305,0.0,1.2305,1.2305,1.2305,1.2305,1.2305,1.2305,1.2305,1.2305,1.2305,1.2305,1.2305,1.2305,1.2305,1.2305,1.2305,1.2104,1.1906,1.1906,1.1524,1.1056,1.1056,1.1029,1.0922,1.0667,1.0593,1.0593,1.0593,1.0996,1.1545,1.2212,1.2795,1.342,1.4198,1.4258,1.4258,1.4446,1.4079,1.3632,1.3351,1.2964,1.2542,1.2147,1.2101,1.2101,1.2101,1.2101,1.2101,1.2101,1.2101,1.2076,1.2051,1.2051,1.1952,1.1703,1.1452,1.1175,1.0896,1.0871,1.0726,1.0496,1.0496,1.0718,1.1175,1.1175,1.1418,0.6975,0.735,0.7682,0.7709,0.7943,0.817,0.817,0.0,0.0,0.0,0.0,0.0,0.0,0.0,0.0,0.0,0.0,0.0,0.0,0.0,0.0,0.0,0.0,0.0,0.0,0.0,0.0,0.0,0.0,0.0,1.2998,1.271,1.2543,1.2543,1.2371,1.2305,1.2305,1.2305,1.2305,1.2305,1.2305,1.2305,1.2305,1.2305,1.2305,1.2305,0.0,1.2305,1.2305,1.2305,1.2305,1.2305,1.2305,1.2305,1.2305,1.2305,1.2305,1.2305,1.2305,1.2204,1.2064,1.2064,1.1799,1.1396,1.1396,1.1129,1.0787,1.0787,1.0787,1.076,1.0626,1.0593,1.0593,1.0593,1.1059,1.1663,1.2358,1.3039,1.37,1.4357,1.4515,1.4515,1.4515,1.435,1.4084,1.3671,1.3295,1.2882,1.2468,1.2229,1.2101,1.2101,1.2294,1.233,1.2119,1.2303,1.233,1.2119,1.2101,1.2051,1.1927,1.1653,1.1452,1.1318,1.1049,1.0845,1.0718,1.0888,1.1091,1.1318,1.1626,1.2015,0.6801,0.7095,0.7491,0.7923,0.0,0.8516,0.8564,0.0,0.0,0.0,0.0,0.0,0.0,0.0,0.0,0.0,0.0,0.0,0.0,0.0,0.0,0.0,0.0,0.0,0.0,0.0,0.0,0.0,0.0,0.0,1.2683,1.2425,1.2305,1.2305,1.2305,1.2305,1.2305,1.2305,1.2305,1.2305,1.2305,1.2305,1.2305,1.2305,1.2305,1.2305,1.2305,1.2305,1.2305,1.2305,1.2305,1.2305,1.2305,1.2305,1.2305,1.2305,1.2305,1.2305,1.2305,1.2111,1.1906,1.1906,1.1504,1.1028,1.1193,1.095,1.0649,1.0958,1.0933,1.0776,1.0656,1.0713,1.0807,1.0807,1.1264,1.1911,1.2581,1.326,1.389,1.4387,1.4515,1.4515,1.4515,1.4515,1.4368,1.3975,1.3626,1.3314,1.2891,1.2579,1.2386,1.2386,1.2661,1.268,1.2275,1.2432,1.2422,1.2119,1.2101,1.2101,1.2101,1.1902,1.1753,1.1703,1.1368,1.1175,1.1099,1.1451,1.1651,1.171,1.2203,1.2643,0.7407,0.7235,0.7261,0.8147,0.8564,0.0,0.9091,0.9131,0.0,0.9499,0.0,0.0,0.0,0.0,0.0,0.0,0.0,0.0,0.0,0.0,0.0,0.0,0.0,0.0,0.0,0.0,0.0,0.0,0.0,0.0,1.2338,1.2311,1.2305,1.2305,1.2305,1.2305,1.2305,1.2305,1.2305,1.2305,1.2305,1.2305,1.2305,1.2305,1.2305,1.2305,1.2305,1.2305,1.2305,1.2305,1.2305,1.2305,1.2305,1.2305,1.2305,1.2305,1.2305,1.2305,1.2305,1.2111,1.1906,1.1906,1.1504,1.112,1.1743,1.1304,1.0839,1.202,1.1903,1.1303,1.0751,1.1028,1.1428,1.1428,1.1934,1.2604,1.329,1.395,1.4446,1.4476,1.4515,1.4515,1.4515,1.4515,1.4368,1.3975,1.3883,1.3727,1.3305,1.3222,1.3204,1.3204,1.3231,1.3075,1.2689,1.234,1.2128,1.2101,1.2101,1.2101,1.2101,1.2076,1.1952,1.1703,1.1968,1.1959,1.1653,1.2113,1.2521,1.2871,1.304,1.3338,0.7307,0.7334,0.7428,0.7963,0.8565,0.0,0.0,0.9357,0.9599,0.9893,1.01,0.0,0.0,0.0,0.0,0.0,0.0,0.0,0.0,0.0,0.0,0.0,0.0,0.0,0.0,0.0,0.0,0.0,0.0,0.0,1.2305,1.2305,1.2305,1.2305,1.2305,1.2305,1.2305,1.2305,1.2305,1.2305,1.2305,1.2305,1.2305,1.2305,1.2305,1.2305,1.2305,1.2305,1.2305,1.2305,1.2305,1.2305,1.2305,1.2305,1.2305,1.2305,1.2305,1.2305,1.2305,1.1991,1.159,1.159,1.1457,1.1354,1.1602,1.1735,1.1872,1.2358,1.2612,1.2589,1.1934,1.1934,1.212,1.212,1.2634,1.3191,1.345,1.404,1.4515,1.4515,1.4515,1.4515,1.4515,1.4515,1.446,1.4295,1.4047,1.3856,1.3681,1.3442,1.3296,1.3296,1.3296,1.3148,1.2726,1.2551,1.2367,1.2119,1.2101,1.2101,1.2101,1.2101,1.2051,1.1952,1.2107,1.2132,1.2008,1.2677,1.3064,1.3136,1.36,1.3847,0.7616,0.7679,0.7833,0.8225,0.0,0.0,0.9424,0.9673,0.9927,1.0314,0.0,0.0,0.0,0.0,0.0,0.0,0.0,0.0,0.0,0.0,0.0,0.0,0.0,0.0,0.0,0.0,0.0,0.0,0.0,0.0,0.0,1.2305,1.2305,1.2305,1.2305,1.2305,1.2305,1.2305,1.2305,1.2305,1.2305,1.2305,1.2305,1.2305,1.2305,1.2305,1.2305,1.2305,1.2305,1.2305,1.2305,1.2305,1.2305,1.2305,1.2305,1.2305,1.2245,1.2164,1.2164,1.1784,1.1323,1.1519,1.1537,1.1577,1.2004,1.2305,1.2604,1.3009,1.3321,1.3442,1.3199,1.2978,1.2818,1.2818,1.3161,1.3571,1.3761,1.4169,1.4515,1.4515,1.4515,1.4515,1.4515,1.4515,1.4515,1.4515,1.4268,1.4084,1.4084,1.3846,1.3681,1.3681,1.3691,1.3606,1.3316,1.3325,1.3147,1.2704,1.266,1.2553,1.2308,1.2283,1.2348,1.2461,1.2623,1.2672,1.2647,1.3362,1.3658,1.3529,1.4035,1.4186,0.8459,0.8301,0.8453,0.0,0.0,0.0,0.992,1.0127,1.0294,0.0,0.0,0.0,0.0,0.0,0.0,0.0,0.0,0.0,0.0,0.0,0.0,0.0,0.0,0.0,0.0,0.0,0.0,0.0,0.0,0.0,0.0,1.2305,1.2305,1.2305,1.2305,1.2305,1.2305,1.2305,1.2305,1.2305,1.2305,1.2305,1.2305,1.2305,1.2305,1.2305,1.2305,1.2305,1.2305,1.2305,1.2298,1.2298,1.2305,1.2298,1.2298,1.2298,1.2118,1.1906,1.1899,1.1517,1.112,1.1775,1.1777,1.1763,1.3108,1.3039,1.2787,1.4139,1.401,1.3662,1.4327,1.401,1.3511,1.3511,1.3511,1.3692,1.4357,1.4515,1.4515,1.4515,1.4515,1.4515,1.4515,1.4515,1.4515,1.4515,1.4515,1.4515,1.4515,1.4515,1.4506,1.4506,1.4563,1.4617,1.4608,1.4666,1.4489,1.3937,1.3907,1.3551,1.2744,1.27,1.2861,1.3194,1.3597,1.3739,1.3597,1.414,1.4326,1.4199,1.435,1.4326,0.8411,0.8635,0.0,0.0,0.0,0.0,0.0,1.0898,0.0,0.0,0.0,0.0,0.0,0.0,0.0,0.0,0.0,0.0,0.0,0.0,0.0,0.0,0.0,0.0,0.0,0.0,0.0,0.0,0.0,0.0,0.0,1.2305,1.2305,1.2305,1.2305,1.2305,1.2305,1.2452,1.2526,1.2526,1.2636,1.2562,1.2305,1.2305,1.2305,1.2305,1.2305,1.2305,1.2305,1.2452,1.2367,1.2191,1.2554,1.2578,1.2356,1.2249,1.2194,1.2056,1.1665,1.1377,1.1245,1.1909,1.2334,1.2673,1.3411,1.3833,1.4133,1.4538,1.4428,1.4258,1.4577,1.4428,1.4198,1.4198,1.4198,1.4258,1.4455,1.4515,1.4515,1.4515,1.4515,1.4515,1.4515,1.4515,1.4515,1.4515,1.4515,1.4515,1.4515,1.4784,1.4867,1.4611,1.5155,1.5291,1.472,1.4965,1.476,1.3957,1.3907,1.3631,1.3079,1.306,1.3098,1.3194,1.3597,1.3773,1.3739,1.4186,1.4373,1.435,1.4373,1.4373,0.9422,0.0,0.0,0.0,0.0,0.0,0.0,0.0,0.0,0.0,0.0,0.0,0.0,0.0,0.0,0.0,0.0,0.0,0.0,0.0,0.0,0.0,0.0,0.0,0.0,0.0,0.0,0.0,0.0,0.0,0.0,1.2305,1.2305,1.2305,1.2378,1.2415,1.2415,1.2636,1.2709,1.2709,1.2826,1.2783,1.2526,1.2452,1.2452,1.2519,1.233,1.2173,1.2058,1.2208,1.2134,1.2054,1.2381,1.2375,1.2179,1.211,1.1999,1.1902,1.1843,1.1701,1.1656,1.2625,1.3135,1.3494,1.4052,1.4508,1.4813,1.4813,1.4764,1.4714,1.4813,1.4764,1.4654,1.4545,1.4515,1.4515,1.4515,1.4515,1.4515,1.4515,1.4515,1.4515,1.4515,1.4515,1.4515,1.4515,1.4515,1.4515,1.4515,1.4902,1.511,1.4849,1.5627,1.5974,1.5505,1.5839,1.5754,1.4977,1.4924,1.4643,1.3973,1.3632,1.3505,1.3671,1.3894,1.4046,1.4046,1.428,1.4396,1.4396,1.4396,1.4396,1.0907,0.0,0.0,0.0,0.0,0.0,0.0,0.0,0.0,0.0,0.0,0.0,0.0,0.0,0.0,0.0,0.0,0.0,0.0,0.0,0.0,0.0,0.0,0.0,0.0,0.0,0.0,0.0,0.0,0.0,0.0,1.2301,1.2288,1.2261,1.2444,1.2554,1.2554,1.2743,1.2852,1.2852,1.2852,1.2852,1.2852,1.2654,1.2654,1.2795,1.2372,1.1991,1.1737,1.1737,1.1785,1.1893,1.2023,1.2016,1.2021,1.2055,1.1912,1.1768,1.2357,1.2366,1.232,1.3597,1.4034,1.4154,1.4813,1.5029,1.5029,1.5029,1.5009,1.5,1.5029,1.5009,1.4921,1.4625,1.4545,1.4506,1.4515,1.4506,1.4506,1.4506,1.4506,1.4506,1.4506,1.4506,1.4515,1.4515,1.4515,1.4515,1.4565,1.4981,1.5284,1.5313,1.6132,1.6655,1.6655,1.7043,1.706,1.652,1.6487,1.6083,1.5214,1.4366,1.4076,1.4384,1.4396,1.4396,1.4396,1.4396,1.4396,1.4396,1.4396,1.4396,0.0,1.113,0.0,0.0,0.0,0.0,0.0,0.0,0.0,0.0,0.0,0.0,0.0,0.0,0.0,0.0,0.0,0.0,0.0,0.0,0.0,0.0,0.0,0.0,0.0,0.0,0.0,0.0,0.0,0.0,1.24,1.2386,1.2276,1.1999,1.2026,1.2061,1.2061,1.2241,1.2345,0.0,1.2517,1.2593,1.2593,1.2494,1.2325,1.2096,1.1992,1.1929,1.1867,1.2037,1.1997,1.1904,1.2802,1.2999,1.28,1.3188,1.3268,1.3195,1.2975,1.2913,1.3092,1.3876,1.4252,1.4499,1.5,1.5156,1.5156,1.5156,1.5098,1.5029,1.5127,1.5098,1.497,1.4911,1.4754,1.4636,1.4506,1.4586,1.4656,1.4656,1.4656,1.4656,1.4656,1.4556,1.4515,1.4515,1.4515,1.4616,1.501,1.5468,1.5902,1.6247,1.6807,1.7155,1.7155,1.725,1.706,1.652,1.6487,1.6236,1.568,1.5115,1.4694,1.4407,1.4396,1.4396,1.4396,1.4396,1.4396,1.4396,1.4396,1.4396,0.0,0.0,0.0,0.0,0.0,0.0,0.0,0.0,0.0,0.0,0.0,0.0,0.0,0.0,0.0,0.0,0.0,0.0,0.0,0.0,0.0,0.0,0.0,0.0,0.0,0.0,0.0,0.0,0.0,1.276,1.2409,1.2396,1.2256,1.1908,1.2003,1.2037,1.2037,1.2248,1.2349,1.2349,1.2451,1.2404,1.2266,1.2382,1.2346,1.2196,1.2296,1.2404,1.2514,1.265,1.2646,1.2664,1.3259,1.34,1.3266,1.3515,1.3608,1.3613,1.3683,1.3765,1.3923,1.4569,1.4844,1.4971,1.5225,1.5313,1.5313,1.5313,1.5254,1.5196,1.5284,1.5254,1.5167,1.5117,1.497,1.4813,1.4743,1.4793,1.4843,1.4843,1.4843,1.4843,1.4843,1.4704,1.4556,1.4506,1.4565,1.4775,1.5332,1.5853,1.6322,1.6758,1.72,1.7445,1.7306,1.7306,1.7241,1.7076,1.6956,1.672,1.6406,1.6001,1.5454,1.4744,1.4733,1.4613,1.4396,1.4396,1.4396,1.4396,1.4396,1.4396,0.0,0.0,0.0,0.0,0.0,0.0,0.0,0.0,0.0,0.0,0.0,0.0,0.0,0.0,0.0,0.0,0.0,0.0,0.0,0.0,0.0,0.0,0.0,0.0,0.0,0.0,0.0,0.0,0.0,1.3042,1.2528,1.2506,1.2364,1.2009,1.2042,1.2083,1.2083,1.225,1.2358,1.2358,1.2358,1.2244,1.2116,1.2358,1.2485,1.2527,1.279,1.304,1.3252,1.3252,1.3351,1.3502,1.3631,1.3653,1.3692,1.3773,1.3833,1.3893,1.4469,1.4647,1.4736,1.5235,1.541,1.541,1.541,1.541,1.541,1.541,1.541,1.541,1.541,1.541,1.5362,1.5264,1.5147,1.5059,1.5,1.5029,1.5029,1.5029,1.5029,1.5039,1.5,1.4961,1.4863,1.4764,1.4922,1.5245,1.5843,1.6368,1.6793,1.7151,1.7534,1.7656,1.739,1.7362,1.7462,1.7684,1.7501,1.7285,1.7133,1.6844,1.6293,1.5367,1.5192,1.4908,1.4527,1.444,1.4396,1.4396,1.4396,1.4396,0.0,0.0,0.0,0.0,0.0,0.0,0.0,0.0,0.0,0.0,0.0,0.0,0.0,0.0,0.0,0.0,0.0,0.0,0.0,0.0,0.0,0.0,0.0,0.0,0.0,0.0,0.0,0.0,1.4468,1.4243,1.2984,1.292,1.2765,1.2445,1.1929,1.1684,1.1684,1.1716,1.1723,1.1723,1.1723,1.1969,1.2429,1.2476,1.2499,1.2514,1.3144,1.3432,1.3472,1.3472,1.348,1.3571,1.4142,1.438,1.444,1.4932,1.5147,1.5147,1.5264,1.5264,1.5294,1.5381,1.541,1.541,1.541,1.541,1.541,1.541,1.541,1.541,1.541,1.541,1.541,1.5391,1.5352,1.5274,1.5059,1.5088,1.5186,1.5186,1.5186,1.5156,1.5029,1.542,1.5729,1.5729,1.6102,1.6602,1.709,1.724,1.7446,1.7909,1.8002,1.7947,1.7684,1.7656,1.7656,1.7711,1.7656,1.7623,1.7611,1.7556,1.7152,1.6339,1.552,1.5072,1.5006,1.4604,1.4396,1.4396,1.4396,1.4396,0.0,0.0,0.0,0.0,0.0,0.0,0.0,0.0,0.0,0.0,0.0,0.0,0.0,0.0,0.0,0.0,0.0,0.0,0.0,0.0,0.0,0.0,0.0,0.0,0.0,0.0,0.0,0.0,1.4614,1.4411,1.3586,1.3562,1.342,1.3078,1.2803,1.2658,1.2658,1.2658,1.2658,1.2658,1.2658,1.2803,1.307,1.3463,1.3614,1.3644,1.3923,1.4252,1.4549,1.4549,1.4549,1.4579,1.4883,1.5001,1.503,1.5294,1.541,1.541,1.541,1.541,1.541,1.541,1.541,1.541,1.541,1.541,1.541,1.541,1.541,1.541,1.541,1.541,1.541,1.541,1.541,1.5381,1.5245,1.5284,1.5313,1.5313,1.5313,1.5371,1.5575,1.5855,1.6104,1.6301,1.6641,1.7073,1.7611,1.7749,1.7941,1.8344,1.8383,1.8275,1.7947,1.792,1.8002,1.8193,1.803,1.8002,1.8193,1.803,1.7682,1.7185,1.633,1.564,1.5105,1.4886,1.467,1.4396,1.4396,1.4535,0.0,0.0,0.0,0.0,0.0,0.0,0.0,0.0,0.0,0.0,0.0,0.0,0.0,0.0,0.0,0.0,0.0,0.0,0.0,0.0,0.0,0.0,0.0,0.0,0.0,0.0,0.0,0.0,1.4819,1.4684,1.4143,1.4117,1.4017,1.3761,1.3601,1.3511,1.3511,1.3511,1.3511,1.3511,1.3511,1.3601,1.3773,1.4261,1.4588,1.4736,1.4736,1.4971,1.541,1.541,1.541,1.541,1.541,1.541,1.541,1.541,1.541,1.541,1.541,1.541,1.541,1.541,1.541,1.541,1.541,1.541,1.541,1.541,1.541,1.541,1.541,1.541,1.541,1.541,1.541,1.541,1.541,1.541,1.541,1.541,1.5526,1.5748,1.6104,1.6418,1.6708,1.6996,1.7313,1.7667,1.8116,1.8278,1.8429,1.8667,1.8694,1.856,1.8247,1.822,1.8317,1.8587,1.8383,1.8356,1.8587,1.8344,1.8084,1.7822,1.7222,1.6479,1.5565,1.5202,1.4949,1.4876,1.4872,1.5117,0.0,0.0,0.0,0.0,0.0,0.0,0.0,0.0,0.0,0.0,0.0,0.0,0.0,0.0,0.0,0.0,0.0,0.0,0.0,0.0,0.0,0.0,0.0,0.0,0.0,0.0,0.0,0.0,1.5657,1.5567,1.4524,1.4476,1.4467,1.444,1.3833,1.3511,1.3511,1.3511,1.3511,1.3511,1.3511,1.3833,1.444,1.4469,1.4824,1.5352,1.5352,1.5381,1.541,1.541,1.541,1.541,1.541,1.541,1.541,1.541,1.541,1.541,1.541,1.541,1.541,1.541,1.541,1.541,1.541,1.541,1.541,1.541,1.541,1.541,1.541,1.541,1.541,1.541,1.541,1.541,1.541,1.541,1.541,1.541,1.5853,1.6255,1.6283,1.723,1.8011,1.8011,1.8509,1.8907,1.8934,1.8934,1.896,1.8999,1.8999,1.8854,1.8587,1.856,1.8587,1.8587,1.8587,1.8587,1.8587,1.8587,1.8437,1.8084,1.8034,1.7652,1.6909,1.5423,1.5234,1.6207,1.6206,1.636,0.0,0.0,0.0,0.0,0.0,0.0,0.0,0.0,0.0,0.0,0.0,0.0,0.0,0.0,0.0,0.0,0.0,0.0,0.0,0.0,0.0,0.0,0.0,0.0,0.0,0.0,0.0,0.0,0.0,1.5488,1.5098,1.5089,1.5089,1.5089,1.4844,1.4726,1.4726,1.4726,1.4726,1.4726,1.4726,1.4854,1.5089,1.5089,1.5206,1.541,1.541,1.541,1.541,1.541,1.541,1.541,1.541,1.541,1.541,1.541,1.541,1.541,1.541,1.541,1.541,1.541,1.541,1.541,1.541,1.541,1.541,1.541,1.541,1.541,1.541,1.541,1.541,1.541,1.541,1.541,1.541,1.541,1.541,1.541,1.5892,1.6415,1.681,1.7562,1.8228,1.8629,1.8854,1.8987,1.8987,1.8987,1.8987,1.8987,1.8987,1.896,1.8854,1.8854,1.8854,1.8854,1.8854,1.8854,1.8854,1.8854,1.8721,1.8437,1.8389,1.7822,1.6735,1.6175,1.595,1.6057,1.6315,1.6788,0.0,0.0,0.0,0.0,0.0,0.0,0.0,0.0,0.0,0.0,0.0,0.0,0.0,0.0,0.0,0.0,0.0,0.0,0.0,0.0,0.0,0.0,0.0,0.0,0.0,0.0,0.0,0.0,0.0,0.0,1.541,1.541,1.541,1.541,1.541,1.541,1.541,1.541,1.541,1.541,1.541,1.541,1.541,1.541,1.541,1.541,1.541,1.541,1.541,1.541,1.541,1.541,1.541,1.541,1.541,1.541,1.541,1.541,1.541,1.541,1.541,1.541,1.541,1.541,1.541,1.541,1.541,1.541,1.541,1.541,1.541,1.541,1.541,1.541,1.5555,1.569,1.569,1.5546,1.541,1.541,1.6054,1.6726,1.7118,1.7863,1.8548,1.8934,1.8987,1.8987,1.8987,1.8987,1.8987,1.8987,1.8987,1.8987,1.8987,1.8987,1.8987,1.8987,1.8987,1.8987,1.8987,1.8987,1.8907,1.8747,1.8678,1.8134,1.7045,1.6929,1.6895,1.6907,1.7202,1.7886,0.0,0.0,0.0,0.0,0.0,0.0,0.0,0.0,0.0,0.0,0.0,0.0,0.0,0.0,0.0,0.0,0.0,0.0,0.0,0.0,0.0,0.0,0.0,0.0,0.0,0.0,0.0,0.0,1.541,1.541,1.541,1.541,1.541,1.541,1.541,1.541,1.541,1.541,1.541,1.541,1.541,1.541,1.541,1.541,1.541,1.541,1.541,1.541,1.541,1.541,1.541,1.541,1.541,1.541,1.541,1.541,1.541,1.541,1.541,1.541,1.541,1.541,1.541,1.541,1.541,1.541,1.541,1.541,1.541,1.541,1.541,1.5439,1.5439,1.5439,1.5892,1.633,1.633,1.5864,1.5439,1.5439,1.6415,1.723,1.723,1.8201,1.8987,1.8987,1.8987,1.8987,1.8987,1.8987,1.8987,1.8987,1.8987,1.8987,1.8987,1.8987,1.8987,1.8987,1.8987,1.8987,1.8987,1.8987,1.8987,1.8987,1.9013,1.8675,1.7942,1.7593,1.7926,1.8895,1.899,1.9735,0.8561,0.0,0.0,0.0,0.0,0.0,0.0,0.0,0.0,0.0,0.0,0.0,0.0,0.0,0.0,0.0,0.0,0.0,0.0,0.0,0.0,0.0,0.0,0.0,0.0,0.0,0.0,0.0,1.541,1.541,1.541,1.541,1.541,1.541,1.541,1.541,1.541,1.541,1.541,1.541,1.541,1.541,1.541,1.541,1.541,1.541,1.541,1.541,1.541,1.541,1.541,1.541,1.541,1.541,1.541,1.541,1.541,1.541,1.541,1.541,1.541,1.541,1.541,1.541,1.541,1.541,1.541,1.541,1.541,1.5497,1.594,1.6054,1.6169,1.6613,1.6838,1.695,1.695,1.681,1.6698,1.6698,1.7313,1.7847,1.7847,1.8483,1.8987,1.8987,1.8987,1.8987,1.8987,1.8987,1.8987,1.8987,1.8987,1.8987,1.8987,1.8987,1.8987,1.8987,1.8987,1.8987,1.8987,1.8987,1.8987,1.8987,1.9552,1.9535,1.8914,1.8133,1.8044,1.8654,1.9657,2.0494,0.0,0.0,0.0,0.0,0.0,0.0,0.0,1.1191,0.0,0.0,0.0,0.0,0.0,0.0,0.0,0.0,0.0,0.0,0.0,0.0,0.0,0.0,0.0,0.0,0.0,1.541,1.541,1.541,1.541,1.5342,1.5156,1.5146,1.5068,1.4855,1.4855,1.4855,1.4855,1.4855,1.4855,1.4855,1.4855,1.4971,1.5146,1.5146,1.5244,1.541,1.541,1.541,1.541,1.541,1.541,1.541,1.541,1.541,1.541,1.541,1.541,1.541,1.541,1.541,1.541,1.541,1.541,1.541,1.541,1.541,1.541,1.541,1.5575,1.5911,1.6528,1.6669,1.6754,1.7118,1.7396,1.7589,1.7589,1.7754,1.7781,1.7313,1.7683,1.8093,1.8093,1.8602,1.8987,1.8987,1.8987,1.8987,1.8987,1.8987,1.8987,1.8987,1.8987,1.8987,1.8987,1.8987,1.8987,1.8987,1.8987,1.8987,1.8987,1.8987,1.9093,1.9251,1.972,1.9813,1.9542,1.916,1.91,1.9357,2.0435,2.1019,0.0,0.0,0.0,0.0,0.0,0.0,1.158,1.1346,1.1289,0.0,0.0,0.0,0.0,0.0,0.0,0.0,0.0,0.0,0.0,0.0,0.0,0.0,0.0,0.0,1.541,1.5371,1.5342,1.5342,1.5293,1.5107,1.4727,1.4717,1.4531,1.4114,1.4104,1.4104,1.4104,1.4104,1.4104,1.4104,1.4104,1.4309,1.4717,1.4793,1.499,1.5342,1.5391,1.541,1.541,1.541,1.541,1.541,1.541,1.541,1.541,1.541,1.541,1.541,1.541,1.541,1.541,1.541,1.541,1.541,1.541,1.541,1.541,1.5468,1.594,1.6528,1.7146,1.7313,1.7313,1.7368,1.7809,1.8201,1.8228,1.8655,1.8709,1.7617,1.7836,1.8201,1.8201,1.8655,1.8987,1.8987,1.8987,1.8987,1.8987,1.8987,1.8987,1.8987,1.8987,1.8987,1.8987,1.8987,1.8987,1.8987,1.8987,1.9013,1.9066,1.9066,1.9251,1.9668,1.9708,1.9838,2.0067,2.0345,2.0495,2.0495,2.1114,2.135,1.0801,0.0,0.0,0.0,0.0,0.0,1.0127,1.0273,1.0616,0.0,0.0,0.0,0.0,0.0,0.0,0.0,0.0,0.0,0.0,0.0,0.0,0.0,0.0,0.0,1.5381,1.5107,1.4902,1.4902,1.458,1.4319,1.4241,1.4231,1.4192,1.4104,1.4104,1.4104,1.4104,1.4104,1.4104,1.4104,1.4104,1.4153,1.4241,1.4629,1.4834,1.4932,1.5264,1.541,1.541,1.5575,1.5546,1.541,1.541,1.541,1.541,1.541,1.541,1.541,1.541,1.541,1.541,1.541,1.541,1.541,1.541,1.541,1.5497,1.5997,1.6557,1.7174,1.7754,1.7929,1.8038,1.8536,1.8735,1.8854,1.8946,1.909,1.909,1.8866,1.8827,1.8827,1.8827,1.8934,1.8987,1.8987,1.8987,1.8987,1.8987,1.8987,1.8987,1.8987,1.8987,1.8987,1.8987,1.8987,1.8987,1.8987,1.8987,1.9146,1.946,1.9486,1.9668,2.008,2.0409,2.0743,2.1126,2.0701,2.0495,2.0495,2.1114,2.1399,0.0,0.0,0.0,1.1357,0.0,0.0,0.0,1.0732,1.084,1.1719,0.0,0.0,0.0,0.0,0.0,0.0,0.0,0.0,0.0,0.0,0.0,0.0,0.0,0.0,1.4728,1.4552,1.4463,1.4463,1.4231,1.4016,1.3802,1.3792,1.3695,1.3516,1.3506,1.3506,1.3506,1.3506,1.3506,1.3506,1.3506,1.3623,1.3802,1.4043,1.4258,1.4482,1.4968,1.5183,1.5231,1.5641,1.573,1.5633,1.5575,1.5478,1.541,1.541,1.5449,1.5546,1.5546,1.5604,1.5662,1.5662,1.5662,1.5662,1.5662,1.5797,1.6132,1.668,1.724,1.7781,1.8456,1.8667,1.8735,1.9119,1.921,1.921,1.9302,1.9302,1.9302,1.9302,1.9237,1.9158,1.9013,1.8987,1.8987,1.8987,1.8987,1.8987,1.8987,1.8987,1.8987,1.8987,1.8987,1.8987,1.8987,1.8987,1.8987,1.8987,1.9198,1.9382,1.9591,1.9798,2.0093,2.0498,2.0883,2.1191,2.1399,2.1101,2.0952,2.0965,2.1263,2.1399,0.0,0.0,0.0,0.0,0.0,1.1985,0.0,0.0,0.0,1.2469,0.0,0.0,0.0,0.0,0.0,0.0,0.0,0.0,0.0,0.0,0.0,0.0,0.0,0.0,0.0,1.388,1.3773,1.386,1.3704,1.3539,1.3389,1.3389,1.3232,1.2915,1.2905,1.2905,1.2905,1.2905,1.2905,1.2929,1.2929,1.3131,1.3455,1.3543,1.3743,1.4096,1.4674,1.4889,1.4946,1.5535,1.5783,1.5764,1.5758,1.5633,1.5507,1.5507,1.5604,1.574,1.574,1.5885,1.6077,1.6077,1.6124,1.6239,1.6239,1.657,1.7067,1.749,1.7957,1.8483,1.9078,1.9249,1.9275,1.9368,1.9394,1.942,1.942,1.9447,1.9447,1.9447,1.9447,1.9342,1.9066,1.9052,1.9025,1.8987,1.8987,1.8987,1.8987,1.9025,1.9025,1.8987,1.9025,1.9025,1.8987,1.8987,1.8987,1.8987,1.9382,1.963,1.972,2.0182,2.0573,2.0908,2.124,2.1399,2.1399,2.1399,2.1399,2.1399,2.1399,2.1399,0.0,0.0,0.0,0.0,1.3047,0.0,0.0,0.0,1.2034,1.1945,0.0,0.0,0.0,0.0,0.0,0.0,0.0,0.0,0.0,0.0,0.0,0.0,0.0,0.0,0.0,1.309,1.2584,1.3023,1.2318,1.2201,1.2935,1.2974,1.2954,1.2905,1.2905,1.2905,1.2905,1.2905,1.2954,1.3085,1.3085,1.3133,1.326,1.3656,1.3876,1.3946,1.4376,1.4577,1.4597,1.5201,1.5383,1.5333,1.5734,1.5856,1.5856,1.5856,1.5856,1.5885,1.5885,1.6239,1.6691,1.6691,1.7017,1.7424,1.7424,1.7809,1.8309,1.8363,1.8804,1.9277,1.9368,1.9368,1.9368,1.9394,1.9394,1.942,1.9539,1.9591,1.9591,1.9591,1.9591,1.9486,1.9223,1.917,1.9143,1.9025,1.8987,1.8987,1.8987,1.9105,1.9143,1.9013,1.9117,1.9117,1.9013,1.8987,1.8987,1.8987,1.9382,1.9772,2.0131,2.0871,2.1302,2.1313,2.1375,2.1399,2.1399,2.1399,2.1399,2.1399,2.1399,2.1399,0.0,0.0,0.0,0.0,0.0,0.0,1.2715,0.0,1.2457,0.0,0.0,0.0,0.0,0.0,0.0,0.0,0.0,0.0,0.0,0.0,0.0,0.0,0.0,0.0,0.0,0.0,0.0,0.0,1.223,1.2156,1.302,1.3069,1.3069,1.3069,1.3069,1.3069,1.3069,1.3069,1.3094,1.3166,1.3166,1.318,1.3218,1.3395,1.3485,1.3515,1.4033,1.4261,1.4317,1.4922,1.5307,1.5519,1.5713,1.5825,1.5885,1.5885,1.5933,1.6066,1.641,1.6758,1.7101,1.7424,1.7699,1.7891,1.7891,1.8255,1.8658,1.8658,1.9028,1.942,1.9486,1.9512,1.9539,1.9617,1.963,1.9656,1.9708,1.9734,1.9734,1.9734,1.9734,1.9656,1.9473,1.9368,1.9275,1.9143,1.9117,1.9117,1.9117,1.917,1.9196,1.9237,1.9223,1.9196,1.9237,1.9158,1.9158,1.9237,1.9772,2.0384,2.1093,2.1288,2.1399,2.1399,2.1399,2.1399,2.1399,2.1399,2.1399,2.1399,2.1399,2.1399,1.5236,0.0,0.0,0.0,0.0,0.0,0.0,0.0,0.0,0.0,0.0,0.0,0.0,0.0,0.0,0.0,0.0,0.0,0.0,0.0,0.0,0.0,0.0,0.0,0.0,0.0,0.0,0.0,0.0,1.1899,1.3124,1.3083,1.3097,1.3208,1.3194,1.3194,1.3194,1.3194,1.3218,1.3266,1.3266,1.3266,1.3314,1.3314,1.3314,1.3334,1.3767,1.4058,1.4222,1.4767,1.5384,1.5951,1.6079,1.6282,1.6467,1.6134,1.6105,1.6257,1.686,1.7324,1.7781,1.839,1.8578,1.8578,1.8578,1.8792,1.9069,1.9069,1.9291,1.9539,1.963,1.9656,1.9682,1.9773,1.9798,1.9798,1.9798,1.9798,1.9798,1.9798,1.9798,1.9773,1.9656,1.9539,1.942,1.9275,1.9249,1.9249,1.9249,1.9302,1.9328,1.9394,1.9342,1.9328,1.9394,1.9447,1.9617,1.9991,2.0472,2.108,2.1864,2.1664,2.1544,2.1616,2.1544,2.152,2.152,2.152,2.1471,2.1399,2.1399,2.1399,0.0,0.0,0.0,1.4934,0.0,0.0,0.0,0.0,1.3781,0.0,0.0,0.0,0.0,0.0,0.0,0.0,0.0,0.0,0.0,0.0,0.0,0.0,0.0,0.0,0.0,0.0,0.0,0.0,0.0,0.0,1.3073,1.2822,1.2792,1.3174,1.3194,1.3194,1.3194,1.3194,1.3266,1.3386,1.3386,1.3467,1.3597,1.3597,1.3597,1.3597,1.3607,1.3926,1.4415,1.4836,1.5614,1.6621,1.7074,1.7565,1.7902,1.6779,1.6384,1.6459,1.7,1.7957,1.904,1.9566,1.9747,1.9747,1.9747,1.9747,1.9773,1.9773,1.9773,1.9798,1.9798,1.9798,1.9798,1.9798,1.9798,1.9798,1.9798,1.9798,1.9798,1.9798,1.9798,1.9798,1.9798,1.9682,1.9539,1.942,1.9394,1.9394,1.9394,1.9512,1.9539,1.942,1.9512,1.9539,1.942,1.9875,2.0572,2.1482,2.1544,2.1746,2.2184,2.1926,2.1926,2.2184,2.1926,2.1793,2.1793,2.1793,2.1664,2.1399,2.1399,2.1399,0.0,0.0,1.8008,1.7173,0.0,0.0,0.0,0.0,0.0,0.0,0.0,0.0,0.0,0.0,0.0,0.0,0.0,0.0,0.0,0.0,0.0,0.0,0.0,0.0,0.0,0.0,0.0,0.0,1.1307,0.0,0.0,1.317,1.3324,1.3457,1.3467,1.3467,1.3467,1.3467,1.3491,1.3539,1.3539,1.3729,1.414,1.414,1.4303,1.4593,1.4593,1.4686,1.4869,1.5015,1.5676,1.6614,1.6761,1.7347,1.8038,1.7667,1.754,1.7611,1.8186,1.8883,1.9552,1.9747,1.9798,1.9798,1.9798,1.9798,1.9798,1.9798,1.9798,1.9798,1.9798,1.9798,1.9798,1.9798,1.9798,1.9798,1.9798,1.9798,1.9798,1.9798,1.9798,1.9798,1.9798,1.9759,1.9682,1.9539,1.9539,1.9539,1.9539,1.9565,1.9604,1.9656,1.963,1.9759,2.0169,2.0696,2.1272,2.1959,2.1817,2.1949,2.244,2.2208,2.2114,2.2208,2.2114,2.2067,2.2067,2.2067,2.202,2.1926,2.1926,2.1817,1.8925,1.9246,0.0,1.8677,1.8034,0.0,1.6011,0.0,0.0,0.0,0.0,0.0,0.0,0.0,0.0,0.0,0.0,0.0,0.0,0.0,0.0,0.0,0.0,0.0,0.0,0.0,1.0274,1.1388,0.0,0.0,0.0,0.0,1.3421,1.3586,1.3597,1.3597,1.3597,1.3787,1.3871,1.3905,1.4059,1.4316,1.4651,1.4651,1.4811,1.5108,1.5108,1.5187,1.5356,1.5554,1.6244,1.718,1.7395,1.7964,1.8658,1.8255,1.824,1.8483,1.8881,1.9344,1.9798,1.9798,1.9798,1.9798,1.9798,1.9798,1.9798,1.9798,1.9798,1.9798,1.9798,1.9798,1.9798,1.9798,1.9798,1.9798,1.9798,1.9798,1.9798,1.9798,1.9798,1.9798,1.9798,1.9798,1.9773,1.9682,1.9656,1.9656,1.9656,1.9656,1.9708,1.9798,1.9734,2.0003,2.082,2.1382,2.1898,2.2417,2.2301,2.2347,2.2684,2.2463,2.237,2.244,2.237,2.2347,2.2347,2.2347,2.2301,2.2208,2.2301,2.2254]}]]